[[{"header":{"parameterUnit":"m.s-1","parameterCategory":1,"la1":30.6,"la2":28.766,"lo1":-90.7593,"lo2":-88.6598,"dy":0.0162,"dx":0.0183,"nx":116,"ny":114,"refTime":"2023-10-05T06:00:00:Z","depth":0,"parameterNumber":2,"parameterNumberName":"U-component_of_WINDS"},"data":[0.0,0.0,0.0,0.0,0.0,0.0,0.0,0.0,0.0,0.0,0.0,0.0,0.0,0.0,0.0,0.0,0.0,0.0,0.0,0.0,0.0,0.0,0.0,0.0,0.0,0.0,0.0,0.0,0.0,0.0,0.0,0.0,0.0,0.0,0.0,0.0,0.0,0.0,0.0,0.0,0.0,0.0,0.0,0.0,0.0,0.0,0.0,0.0,0.0,0.0,0.0,0.0,0.0,0.0,0.0,0.0,0.0,0.0,0.0,0.0,0.0,0.0,0.0,0.0,0.0,0.0,0.0,0.0,0.0,0.0,0.0,0.0,0.0,0.0,0.0,0.0,0.0,0.0,0.0,0.0,0.0,0.0,0.0,0.0,0.0,0.0,0.0,0.0,0.0,0.0,0.0,0.0,0.0,0.0,0.0,0.0,0.0,0.0,0.0,0.0,0.0,0.0,0.0,0.0,0.0,0.0,0.0,0.0,0.0,0.0,0.0,0.0,0.0,0.0,0.0,0.0,0.0,0.0,0.0,0.0,0.0,0.0,0.0,0.0,0.0,0.0,0.0,0.0,0.0,0.0,0.0,0.0,0.0,0.0,0.0,0.0,0.0,0.0,0.0,0.0,0.0,0.0,0.0,0.0,0.0,0.0,0.0,0.0,0.0,0.0,0.0,0.0,0.0,0.0,0.0,0.0,0.0,0.0,0.0,0.0,0.0,0.0,0.0,0.0,0.0,0.0,0.0,0.0,0.0,0.0,0.0,0.0,0.0,0.0,0.0,0.0,0.0,0.0,0.0,0.0,0.0,0.0,0.0,0.0,0.0,0.0,0.0,0.0,0.0,0.0,0.0,0.0,0.0,0.0,0.0,0.0,0.0,0.0,0.0,0.0,0.0,0.0,0.0,0.0,0.0,0.0,0.0,0.0,0.0,0.0,0.0,0.0,0.0,0.0,0.0,0.0,0.0,0.0,0.0,0.0,0.0,0.0,0.0,0.0,0.0,0.0,0.0,0.0,0.0,0.0,0.0,0.0,0.0,0.0,0.0,0.0,0.0,0.0,0.0,0.0,0.0,0.0,0.0,0.0,0.0,0.0,0.0,0.0,0.0,0.0,0.0,0.0,0.0,0.0,0.0,0.0,0.0,0.0,0.0,0.0,0.0,0.0,0.0,0.0,0.0,0.0,0.0,0.0,0.0,0.0,0.0,0.0,0.0,0.0,0.0,0.0,0.0,0.0,0.0,0.0,0.0,0.0,0.0,0.0,0.0,0.0,0.0,0.0,0.0,0.0,0.0,0.0,0.0,0.0,0.0,0.0,0.0,0.0,0.0,0.0,0.0,0.0,0.0,0.0,0.0,0.0,0.0,0.0,0.0,0.0,0.0,0.0,0.0,0.0,0.0,0.0,0.0,0.0,0.0,0.0,0.0,0.0,0.0,0.0,0.0,0.0,0.0,0.0,0.0,0.0,0.0,0.0,0.0,0.0,0.0,0.0,0.0,0.0,0.0,0.0,0.0,0.0,0.0,0.0,0.0,0.0,0.0,0.0,0.0,0.0,0.0,0.0,0.0,0.0,0.0,0.0,0.0,0.0,0.0,0.0,0.0,0.0,0.0,0.0,0.0,0.0,0.0,0.0,0.0,0.0,0.0,0.0,0.0,0.0,0.0,0.0,0.0,0.0,0.0,0.0,0.0,0.0,0.0,0.0,0.0,0.0,0.0,0.0,0.0,0.0,0.0,0.0,0.0,0.0,0.0,0.0,0.0,0.0,0.0,0.0,0.0,0.0,0.0,0.0,0.0,0.0,0.0,0.0,0.0,0.0,0.0,0.0,0.0,0.0,0.0,0.0,0.0,0.0,0.0,0.0,0.0,0.0,0.0,0.0,0.0,0.0,0.0,0.0,0.0,0.0,0.0,0.0,0.0,0.0,0.0,0.0,0.0,0.0,0.0,0.0,0.0,0.0,0.0,0.0,0.0,0.0,0.0,0.0,0.0,0.0,0.0,0.0,0.0,0.0,0.0,0.0,0.0,0.0,0.0,0.0,0.0,0.0,0.0,0.0,0.0,0.0,0.0,0.0,0.0,0.0,0.0,0.0,0.0,0.0,0.0,0.0,0.0,0.0,0.0,0.0,0.0,0.0,0.0,0.0,0.0,0.0,0.0,0.0,0.0,0.0,0.0,0.0,0.0,0.0,0.0,0.0,0.0,0.0,0.0,0.0,0.0,0.0,0.0,0.0,0.0,0.0,0.0,0.0,0.0,0.0,0.0,0.0,0.0,0.0,0.0,0.0,0.0,0.0,0.0,0.0,0.0,0.0,0.0,0.0,0.0,0.0,0.0,0.0,0.0,0.0,0.0,0.0,0.0,0.0,0.0,0.0,0.0,0.0,0.0,0.0,0.0,0.0,0.0,0.0,0.0,0.0,0.0,0.0,0.0,0.0,0.0,0.0,0.0,0.0,0.0,0.0,0.0,0.0,0.0,0.0,0.0,0.0,0.0,0.0,0.0,0.0,0.0,0.0,0.0,0.0,0.0,0.0,0.0,0.0,0.0,0.0,0.0,0.0,0.0,0.0,0.0,0.0,0.0,0.0,0.0,0.0,0.0,0.0,0.0,0.0,0.0,0.0,0.0,0.0,0.0,0.0,0.0,0.0,0.0,0.0,0.0,0.0,0.0,0.0,0.0,0.0,0.0,0.0,0.0,0.0,0.0,0.0,0.0,0.0,0.0,0.0,0.0,0.0,0.0,0.0,0.0,0.0,0.0,0.0,0.0,0.0,0.0,0.0,0.0,0.0,0.0,0.0,0.0,0.0,0.0,0.0,0.0,0.0,0.0,0.0,0.0,0.0,0.0,0.0,0.0,0.0,0.0,0.0,0.0,0.0,0.0,0.0,0.0,0.0,0.0,0.0,0.0,0.0,0.0,0.0,0.0,0.0,0.0,0.0,0.0,0.0,0.0,0.0,0.0,0.0,0.0,0.0,0.0,0.0,0.0,0.0,0.0,0.0,0.0,0.0,0.0,0.0,0.0,0.0,0.0,0.0,0.0,0.0,0.0,0.0,0.0,0.0,0.0,0.0,0.0,0.0,0.0,0.0,0.0,0.0,0.0,0.0,0.0,0.0,0.0,0.0,0.0,0.0,0.0,0.0,0.0,0.0,0.0,0.0,0.0,0.0,0.0,0.0,0.0,0.0,0.0,0.0,0.0,0.0,0.0,0.0,0.0,0.0,0.0,0.0,0.0,0.0,0.0,0.0,0.0,0.0,0.0,0.0,0.0,0.0,0.0,0.0,0.0,0.0,0.0,0.0,0.0,0.0,0.0,0.0,0.0,0.0,0.0,0.0,0.0,0.0,0.0,0.0,0.0,0.0,0.0,0.0,0.0,0.0,0.0,0.0,0.0,0.0,0.0,0.0,0.0,0.0,0.0,0.0,0.0,0.0,0.0,0.0,0.0,0.0,0.0,0.0,0.0,0.0,0.0,0.0,0.0,0.0,0.0,0.0,0.0,0.0,0.0,0.0,0.0,0.0,0.0,0.0,0.0,0.0,0.0,0.0,0.0,0.0,0.0,0.0,0.0,0.0,0.0,0.0,0.0,0.0,0.0,0.0,0.0,0.0,0.0,0.0,0.0,0.0,0.0,0.0,0.0,0.0,0.0,0.0,0.0,0.0,0.0,0.0,0.0,0.0,0.0,0.0,0.0,0.0,0.0,0.0,0.0,0.0,0.0,0.0,0.0,0.0,0.0,0.0,0.0,0.0,0.0,0.0,0.0,0.0,0.0,0.0,0.0,0.0,0.0,0.0,0.0,0.0,0.0,0.0,0.0,0.0,0.0,0.0,0.0,0.0,0.0,0.0,0.0,0.0,0.0,0.0,0.0,0.0,0.0,0.0,0.0,0.0,0.0,0.0,0.0,0.0,0.0,0.0,0.0,0.0,0.0,0.0,0.0,0.0,0.0,0.0,0.0,0.0,0.0,0.0,0.0,0.0,0.0,0.0,0.0,0.0,0.0,0.0,0.0,0.0,0.0,0.0,0.0,0.0,0.0,0.0,0.0,0.0,0.0,0.0,0.0,0.0,0.0,0.0,0.0,0.0,0.0,0.0,0.0,0.0,0.0,0.0,0.0,0.0,0.0,0.0,0.0,0.0,0.0,0.0,0.0,0.0,0.0,0.0,0.0,0.0,0.0,0.0,0.0,0.0,0.0,0.0,0.0,0.0,0.0,0.0,0.0,0.0,0.0,0.0,0.0,0.0,0.0,0.0,0.0,0.0,0.0,0.0,0.0,0.0,0.0,0.0,0.0,0.0,0.0,0.0,0.0,0.0,0.0,0.0,0.0,0.0,0.0,0.0,0.0,0.0,0.0,0.0,0.0,0.0,0.0,0.0,0.0,0.0,0.0,0.0,0.0,0.0,0.0,0.0,0.0,0.0,0.0,0.0,0.0,0.0,0.0,0.0,0.0,0.0,0.0,0.0,0.0,0.0,0.0,0.0,0.0,0.0,0.0,0.0,0.0,0.0,0.0,0.0,0.0,0.0,0.0,0.0,0.0,0.0,0.0,0.0,0.0,0.0,0.0,0.0,0.0,0.0,0.0,0.0,0.0,0.0,0.0,0.0,0.0,0.0,0.0,0.0,0.0,0.0,0.0,0.0,0.0,0.0,0.0,0.0,0.0,0.0,0.0,0.0,0.0,0.0,0.0,0.0,0.0,0.0,0.0,0.0,0.0,0.0,0.0,0.0,0.0,0.0,0.0,0.0,0.0,0.0,0.0,0.0,0.0,0.0,0.0,0.0,0.0,0.0,0.0,0.0,0.0,0.0,0.0,0.0,0.0,0.0,0.0,0.0,0.0,0.0,0.0,0.0,0.0,0.0,0.0,0.0,0.0,0.0,0.0,0.0,0.0,0.0,0.0,0.0,0.0,0.0,0.0,0.0,0.0,0.0,0.0,0.0,0.0,0.0,0.0,0.0,0.0,0.0,0.0,0.0,0.0,0.0,0.0,0.0,0.0,0.0,0.0,0.0,0.0,0.0,0.0,0.0,0.0,0.0,0.0,0.0,0.0,0.0,0.0,0.0,0.0,0.0,0.0,0.0,0.0,0.0,0.0,0.0,0.0,0.0,0.0,0.0,0.0,0.0,0.0,0.0,0.0,0.0,0.0,0.0,0.0,0.0,0.0,0.0,0.0,0.0,0.0,0.0,0.0,0.0,0.0,0.0,0.0,0.0,0.0,0.0,0.0,0.0,0.0,0.0,0.0,0.0,0.0,0.0,0.0,0.0,0.0,0.0,0.0,0.0,0.0,0.0,0.0,0.0,0.0,0.0,0.0,0.0,0.0,0.0,0.0,0.0,0.0,0.0,0.0,0.0,0.0,0.0,0.0,0.0,0.0,0.0,0.0,0.0,0.0,0.0,0.0,0.0,0.0,0.0,0.0,0.0,0.0,0.0,0.0,0.0,0.0,0.0,0.0,0.0,0.0,0.0,0.0,0.0,0.0,0.0,0.0,0.0,0.0,0.0,0.0,0.0,0.0,0.0,0.0,0.0,0.0,0.0,0.0,0.0,0.0,0.0,0.0,0.0,0.0,0.0,0.0,0.0,0.0,0.0,0.0,0.0,0.0,0.0,0.0,0.0,0.0,0.0,0.0,0.0,0.0,0.0,0.0,0.0,0.0,0.0,0.0,0.0,0.0,0.0,0.0,0.0,0.0,0.0,0.0,0.0,0.0,0.0,0.0,0.0,0.0,0.0,0.0,0.0,0.0,0.0,0.0,0.0,0.0,0.0,0.0,0.0,0.0,0.0,0.0,0.0,0.0,0.0,0.0,0.0,0.0,0.0,0.0,0.0,0.0,0.0,0.0,0.0,0.0,0.0,0.0,0.0,0.0,0.0,0.0,0.0,0.0,0.0,0.0,0.0,0.0,0.0,0.0,0.0,0.0,0.0,0.0,0.0,0.0,0.0,0.0,0.0,0.0,0.0,0.0,0.0,0.0,0.0,0.0,0.0,0.0,0.0,0.0,0.0,0.0,0.0,0.0,0.0,0.0,0.0,0.0,0.0,0.0,0.0,0.0,0.0,0.0,0.0,0.0,0.0,0.0,0.0,0.0,0.0,2.5245,2.5303,0.0,0.0,0.0,0.0,0.0,0.0,0.0,0.0,0.0,0.0,0.0,0.0,0.0,0.0,0.0,0.0,0.0,0.0,0.0,0.0,0.0,0.0,0.0,0.0,0.0,0.0,0.0,0.0,0.0,0.0,0.0,0.0,0.0,0.0,0.0,0.0,0.0,3.2812,3.3203,3.3184,3.2793,3.4062,3.4902,3.5391,0.0,0.0,0.0,0.0,0.0,0.0,0.0,0.0,0.0,0.0,0.0,0.0,0.0,0.0,0.0,0.0,0.0,0.0,0.0,0.0,0.0,0.0,0.0,0.0,0.0,0.0,0.0,0.0,0.0,0.0,0.0,0.0,0.0,0.0,0.0,0.0,0.0,0.0,0.0,0.0,0.0,0.0,0.0,0.0,0.0,0.0,0.0,0.0,0.0,0.0,0.0,0.0,0.0,0.0,0.0,0.0,0.0,0.0,0.0,0.0,0.0,0.0,0.0,0.0,0.0,0.0,0.0,0.0,0.0,0.0,0.0,2.5919,0.0,0.0,0.0,0.0,0.0,0.0,0.0,0.0,0.0,0.0,0.0,0.0,0.0,0.0,0.0,0.0,0.0,0.0,0.0,0.0,0.0,0.0,0.0,3.5996,3.5996,3.5996,3.5859,3.5527,0.0,0.0,0.0,0.0,0.0,0.0,3.3633,3.3789,3.3457,3.2637,3.3301,3.3691,3.3887,3.5488,3.5762,3.4961,3.5684,0.0,0.0,0.0,0.0,0.0,0.0,0.0,0.0,0.0,0.0,0.0,0.0,0.0,0.0,0.0,0.0,0.0,0.0,0.0,0.0,0.0,0.0,0.0,0.0,0.0,0.0,0.0,0.0,0.0,0.0,0.0,0.0,0.0,0.0,0.0,0.0,0.0,0.0,0.0,0.0,0.0,0.0,0.0,0.0,0.0,0.0,0.0,0.0,0.0,0.0,0.0,0.0,0.0,0.0,0.0,0.0,0.0,0.0,0.0,0.0,0.0,0.0,0.0,3.1152,3.1445,3.125,3.1123,3.1118,3.1079,2.8895,2.7603,2.7016,2.6845,0.0,0.0,0.0,0.0,0.0,0.0,0.0,0.0,0.0,0.0,0.0,0.0,0.0,0.0,0.0,0.0,0.0,0.0,0.0,0.0,0.0,3.5996,3.5996,3.5996,3.5312,3.5137,3.5781,0.0,0.0,0.0,0.0,0.0,3.4551,3.5273,3.5234,3.4375,3.4473,3.4922,3.5684,3.668,3.666,3.582,3.5957,3.6426,3.6973,0.0,0.0,0.0,0.0,0.0,0.0,0.0,0.0,0.0,0.0,0.0,0.0,0.0,0.0,0.0,0.0,0.0,0.0,0.0,0.0,0.0,0.0,0.0,0.0,0.0,0.0,0.0,0.0,0.0,0.0,0.0,0.0,0.0,0.0,0.0,0.0,0.0,0.0,0.0,0.0,0.0,2.6543,2.5781,0.0,0.0,0.0,0.0,0.0,0.0,0.0,0.0,0.0,0.0,0.0,0.0,0.0,3.1016,3.2539,3.2773,3.2891,3.291,3.3789,3.3809,3.3047,3.2985,3.3315,3.3955,3.3557,0.0,2.8706,2.7843,0.0,0.0,0.0,0.0,0.0,0.0,0.0,0.0,0.0,0.0,0.0,0.0,0.0,0.0,0.0,0.0,0.0,0.0,0.0,0.0,0.0,3.6445,3.6738,3.6738,3.7285,3.7363,3.6777,3.6836,0.0,0.0,0.0,3.5098,3.4707,3.459,3.459,3.4707,3.666,3.7578,3.748,3.8359,3.8555,3.8164,3.7676,3.7129,3.6465,3.4785,0.0,0.0,0.0,0.0,0.0,0.0,0.0,0.0,0.0,0.0,0.0,0.0,0.0,0.0,0.0,0.0,0.0,0.0,0.0,0.0,0.0,0.0,0.0,0.0,0.0,0.0,0.0,0.0,0.0,0.0,0.0,0.0,0.0,0.0,0.0,0.0,0.0,0.0,0.0,2.6875,2.7226,2.5859,2.6894,2.7168,0.0,0.0,0.0,0.0,0.0,0.0,0.0,0.0,0.0,3.2109,3.3144,3.4043,3.4844,3.582,3.6328,3.6328,3.6719,3.6699,3.6328,3.6211,3.6333,3.6631,3.6555,3.5321,3.3221,3.1355,2.9699,2.8371,0.0,0.0,0.0,0.0,2.7176,2.6472,0.0,0.0,0.0,0.0,0.0,0.0,0.0,0.0,0.0,0.0,0.0,0.0,3.6582,3.7246,3.7812,3.8262,3.9082,3.9023,3.7715,3.7812,3.7363,3.6055,3.5371,3.5039,3.5039,3.4629,3.4824,3.5703,3.873,4.0019,3.959,4.0469,4.0742,4.0508,3.9863,3.8613,3.6894,3.5332,3.4908,3.5068,0.0,0.0,0.0,0.0,0.0,0.0,0.0,0.0,0.0,0.0,0.0,0.0,0.0,0.0,0.0,0.0,0.0,0.0,0.0,0.0,0.0,0.0,0.0,0.0,0.0,0.0,0.0,0.0,0.0,0.0,0.0,0.0,0.0,0.0,0.0,0.0,0.0,2.793,2.8496,2.6289,2.834,2.8984,0.0,0.0,0.0,0.0,0.0,0.0,3.2885,3.3265,3.3934,3.5108,3.6479,3.7441,3.7949,3.9023,3.9687,3.9902,3.9687,3.957,3.9551,3.9217,3.913,3.9256,3.9196,3.8735,3.7759,3.4639,3.2423,3.0982,3.0753,3.0373,2.9993,3.0263,2.9667,2.8848,0.0,0.0,0.0,0.0,0.0,0.0,0.0,0.0,0.0,0.0,0.0,3.5703,3.8203,3.8516,3.9199,4.0859,3.957,3.8633,3.8535,3.7031,3.6094,3.5996,3.5957,3.5937,3.5937,3.6699,3.7539,3.8398,4.0234,4.1504,4.2226,4.3105,4.3066,4.2266,4.2226,4.1289,3.9473,3.6055,3.5566,3.6752,3.3228,0.0,0.0,0.0,0.0,0.0,0.0,0.0,0.0,0.0,0.0,0.0,0.0,0.0,0.0,0.0,0.0,0.0,0.0,0.0,0.0,0.0,0.0,0.0,0.0,0.0,0.0,0.0,0.0,0.0,0.0,0.0,0.0,0.0,0.0,0.0,0.0,0.0,0.0,2.7344,3.1348,0.0,0.0,0.0,0.0,3.287,3.353,3.4666,3.6452,3.7315,3.8599,4.0357,4.0632,4.1543,4.3203,4.2558,4.2617,4.3437,4.2598,4.2207,4.2187,4.1276,4.1247,4.191,4.1826,4.172,4.1178,3.6525,3.4244,3.3609,3.2781,3.2185,3.1804,3.1992,3.1669,3.0991,0.0,0.0,0.0,0.0,0.0,0.0,0.0,0.0,3.3281,3.3809,3.4844,3.6328,3.8379,3.9609,4.0723,4.1875,4.1914,4.1426,4.0332,3.918,3.8008,3.6894,3.6309,3.6269,3.6816,3.8242,3.9394,4.0273,4.2539,4.3789,4.4082,4.4394,4.4375,4.4043,4.3496,4.2891,4.2129,3.8652,3.6855,3.6152,3.3692,3.2854,0.0,0.0,0.0,0.0,0.0,0.0,0.0,0.0,0.0,0.0,0.0,0.0,0.0,0.0,0.0,0.0,0.0,0.0,0.0,0.0,0.0,0.0,0.0,0.0,0.0,0.0,0.0,0.0,0.0,0.0,0.0,0.0,0.0,0.0,0.0,0.0,0.0,3.2109,3.5078,0.0,3.2734,3.3594,3.4702,3.5573,3.627,3.7619,3.9906,4.0312,4.1042,4.2321,4.3015,4.3705,4.4375,4.418,4.4238,4.4512,4.3086,4.2678,4.3144,4.2236,4.2189,4.2818,4.2787,4.2722,4.2494,4.0559,3.9046,3.7789,3.6741,3.644,3.6476,3.5484,3.4765,3.424,0.0,0.0,0.0,0.0,0.0,0.0,0.0,0.0,3.248,3.3281,3.4922,3.6894,3.9219,4.1016,4.248,4.3613,4.3437,4.2676,4.1289,3.9824,3.8379,3.6914,3.6875,3.7285,3.8164,4.0449,4.1894,4.248,4.5058,4.6328,4.6328,4.6328,4.6328,4.6289,4.5703,4.5137,4.4433,4.2168,3.9668,3.709,3.5234,3.4633,3.4494,0.0,0.0,0.0,0.0,0.0,0.0,0.0,0.0,0.0,0.0,0.0,0.0,0.0,0.0,0.0,0.0,0.0,0.0,0.0,0.0,0.0,0.0,0.0,0.0,0.0,0.0,0.0,0.0,0.0,0.0,0.0,0.0,0.0,0.0,3.4101,3.623,3.5644,3.8379,3.9199,3.6309,3.7129,3.8224,3.9092,3.9747,4.0991,4.2979,4.3113,4.3401,4.3993,4.4722,4.5123,4.513,4.5258,4.5291,4.5291,4.3866,4.3454,4.395,4.3025,4.2977,4.3643,4.3585,4.3703,4.3936,4.3698,4.2957,4.1797,4.0246,3.9854,4.0049,3.8787,3.797,3.7316,0.0,0.0,0.0,0.0,0.0,0.0,0.0,3.2187,3.2461,3.3281,3.4941,3.7363,4.082,4.2734,4.4453,4.6152,4.3965,4.2148,4.1328,3.8809,3.6953,3.6113,3.7754,3.9101,4.0039,4.332,4.5078,4.5156,4.7676,4.8906,4.8945,4.8906,4.8906,4.8906,4.8906,4.7969,4.6387,4.6387,4.3945,3.9922,3.7929,3.7605,3.804,0.0,0.0,0.0,0.0,0.0,0.0,0.0,0.0,0.0,0.0,0.0,0.0,0.0,0.0,0.0,0.0,0.0,0.0,0.0,0.0,0.0,0.0,0.0,0.0,0.0,0.0,0.0,0.0,0.0,0.0,0.0,0.0,0.0,3.373,3.7305,3.9414,3.7773,4.1308,4.2539,3.918,4.0918,4.2598,4.339,4.4013,4.4722,4.5547,4.5738,4.5738,4.5618,4.5813,4.5873,4.5796,4.5871,4.5909,4.589,4.5083,4.4714,4.4705,4.3699,4.3703,4.453,4.4393,4.4814,4.5586,4.5586,4.5586,4.5374,4.3056,4.2176,4.2148,4.1734,4.1053,4.0027,0.0,0.0,0.0,0.0,0.0,0.0,3.2109,3.166,3.1777,3.3203,3.5469,3.8027,4.0898,4.3828,4.5781,4.6269,4.5058,4.3926,4.3066,4.0019,3.8144,3.7891,3.9551,4.1465,4.3555,4.5137,4.6875,4.8769,4.8867,4.9219,4.9824,4.9199,4.8906,4.8906,4.8906,4.8633,4.8183,4.8183,4.6777,4.4256,4.1092,3.9592,3.8941,0.0,0.0,0.0,0.0,0.0,0.0,0.0,0.0,0.0,0.0,0.0,0.0,0.0,0.0,0.0,0.0,0.0,0.0,0.0,0.0,0.0,0.0,0.0,0.0,0.0,0.0,0.0,0.0,0.0,0.0,0.0,3.7207,3.9101,3.8242,4.0723,4.2949,4.373,4.5976,4.6601,4.4394,4.5156,4.5397,4.4408,4.4895,4.5355,4.5586,4.5738,4.5769,4.5743,4.5848,4.5892,4.5873,4.5893,4.5896,4.5896,4.5075,4.4978,4.5476,4.4542,4.4568,4.5297,4.5259,4.5391,4.5586,4.5586,4.5586,4.5451,4.3993,4.3599,4.3726,4.2151,4.1034,4.0109,0.0,0.0,0.0,0.0,0.0,0.0,3.1582,3.123,3.1621,3.3633,3.6191,3.8828,4.1387,4.4433,4.6152,4.5781,4.4961,4.3789,4.2207,3.9902,3.9082,4.0156,4.1855,4.3828,4.6035,4.7637,4.918,5.0703,5.0937,5.1308,5.1777,5.1269,5.1035,5.1035,5.1035,5.082,5.0488,5.0488,4.9492,4.7753,4.5577,4.3518,4.1437,3.8725,3.8105,3.8402,3.6185,3.6118,3.6829,3.5004,0.0,0.0,0.0,0.0,0.0,0.0,0.0,0.0,0.0,0.0,0.0,0.0,0.0,0.0,0.0,0.0,0.0,0.0,0.0,0.0,0.0,0.0,0.0,0.0,4.0898,4.3008,4.3594,4.4629,4.5859,4.7226,4.8281,4.8496,4.748,4.7656,4.7431,4.6458,4.6641,4.6795,4.6795,4.6544,4.6366,4.6356,4.603,4.5838,4.5776,4.5776,4.5776,4.5776,4.5297,4.5297,4.5699,4.5201,4.5201,4.5586,4.5586,4.5586,4.5586,4.5586,4.5586,0.0,0.0,0.0,0.0,0.0,4.1722,4.0708,0.0,0.0,0.0,0.0,0.0,0.0,3.0879,3.0898,3.1797,3.4277,3.693,3.9507,4.1894,4.4629,4.5957,4.5078,4.4277,4.2773,4.0332,3.9531,4.0254,4.2734,4.4609,4.6406,4.8144,5.0488,5.1738,5.1836,5.3281,5.4043,5.4141,5.4141,5.4141,5.4141,5.4258,5.3808,5.2988,5.2988,5.2012,5.0469,5.0346,4.816,4.4696,4.2117,4.194,4.2861,4.1011,4.0092,3.9554,3.8507,0.0,0.0,0.0,0.0,0.0,0.0,0.0,0.0,0.0,0.0,0.0,0.0,0.0,0.0,0.0,0.0,0.0,0.0,0.0,0.0,0.0,0.0,0.0,0.0,4.4766,4.6426,4.8848,4.8691,4.8496,4.8984,4.9121,4.9141,4.9062,4.8926,4.8806,4.8716,4.8578,4.8488,4.8467,4.7659,0.0,0.0,0.0,4.5731,4.5622,4.5605,4.5586,4.5586,4.5586,4.5586,4.5586,4.5586,4.5586,4.5586,4.5586,4.5586,4.5586,4.5586,4.5586,4.5586,4.5513,4.5135,4.4505,4.3763,4.2721,4.1649,0.0,0.0,0.0,0.0,0.0,0.0,3.0742,3.082,3.1797,3.4277,3.6941,3.9277,4.1052,4.4277,4.5957,4.5078,4.4746,4.3808,4.1953,4.2344,4.3496,4.5469,4.7891,4.998,5.168,5.2891,5.3848,5.4551,5.418,5.4355,5.5058,5.5058,5.5058,5.5078,5.5781,5.5605,5.4805,5.4805,5.3808,5.2205,5.2059,4.9892,4.6504,4.453,4.3492,4.2794,4.0392,4.0758,4.2027,3.9796,3.9738,4.0181,3.7777,3.6108,0.0,0.0,0.0,0.0,0.0,0.0,0.0,0.0,0.0,0.0,0.0,0.0,0.0,0.0,0.0,0.0,0.0,0.0,0.0,4.3418,4.6797,4.9609,5.0742,5.1973,5.2051,5.0176,5.0527,5.0664,5.0019,4.9824,4.9451,4.8747,4.8587,4.846,4.8355,4.7604,4.7139,4.7024,4.6227,4.5783,4.5757,4.5643,4.5586,4.5586,0.0,0.0,4.5586,4.5586,4.5586,4.5586,4.5586,4.5586,4.5586,4.5586,4.5586,4.555,4.5011,4.4711,4.4517,4.3766,4.3069,4.2459,0.0,0.0,0.0,0.0,0.0,0.0,3.0702,3.0801,3.1797,3.4277,3.6192,3.8075,4.0133,4.2383,4.3398,4.2519,4.2387,4.2322,4.2288,4.3964,4.5937,4.8164,5.0312,5.2051,5.332,5.4199,5.4863,5.5293,5.5293,5.5742,5.6601,5.6601,5.6836,5.7265,5.7715,5.7656,5.7245,5.7135,5.6353,5.5104,5.4536,5.2953,5.0677,4.8044,4.6722,4.6028,4.4316,4.397,4.4085,4.2374,4.1797,4.1431,3.9311,3.808,3.6983,0.0,0.0,0.0,0.0,0.0,0.0,0.0,0.0,0.0,0.0,0.0,0.0,0.0,0.0,3.8867,3.9707,0.0,4.5058,4.7207,4.9746,5.1738,5.2578,5.3457,5.3535,5.2246,5.2461,5.2539,5.2148,5.1641,5.1172,5.0723,5.0179,4.9821,4.974,4.8489,4.7719,4.7642,4.6373,4.5699,4.5699,4.5624,4.5586,4.5586,4.5586,4.5586,4.5586,4.5586,4.5586,4.5586,4.5586,4.5586,4.5586,4.5586,4.5586,4.553,4.4859,4.4587,4.4499,4.3461,4.2938,4.2723,0.0,0.0,0.0,0.0,0.0,0.0,0.0,3.0801,3.1738,3.4043,3.5157,3.6629,3.8943,4.0098,4.0469,3.9883,4.014,4.1062,4.2847,4.5319,4.7988,5.0781,5.2383,5.3613,5.4492,5.5351,5.5801,5.5801,5.668,5.7461,5.8164,5.8301,5.8769,5.9433,5.9609,5.959,5.9413,5.9263,5.8662,5.7755,5.6769,5.5888,5.4855,5.174,5.0183,4.949,4.8298,4.6876,4.549,4.4797,4.3547,4.2047,4.0712,4.0057,3.9287,3.6723,3.6716,0.0,0.0,0.0,0.0,0.0,0.0,0.0,0.0,3.7226,3.7598,3.8809,4.0449,4.2226,4.4101,4.6152,4.8457,5.1191,5.2539,5.3457,5.4141,5.4394,5.4512,5.4512,5.4219,5.4004,5.4004,5.3203,5.2695,5.2695,5.1773,5.1126,5.0933,4.9259,4.822,4.8046,4.645,4.5586,4.5586,4.5586,4.5586,4.5586,4.5586,4.5586,4.5586,4.5586,4.5586,4.5586,4.5586,4.5776,4.6065,4.5643,4.5586,4.5643,4.4818,4.4473,4.4336,4.3133,4.2611,4.2523,0.0,0.0,0.0,0.0,0.0,0.0,0.0,0.0,3.1504,3.3223,3.4255,3.5502,3.7207,3.8281,3.9082,3.959,4.0943,4.2789,4.5241,4.7186,4.9785,5.3242,5.4433,5.543,5.6289,5.7168,5.7617,5.7617,5.8476,5.8965,5.9062,5.9785,6.0176,6.0293,6.1074,6.0996,6.0254,6.0247,5.9668,5.8677,5.767,5.711,5.6701,5.4703,5.2549,5.024,4.7895,4.6416,4.559,4.5491,4.4818,4.3993,4.3799,4.2727,4.1023,3.8466,3.6801,3.5518,3.4337,3.4997,3.6523,3.8613,3.8144,3.873,0.0,4.3848,4.2363,4.4785,4.668,4.7734,4.7246,4.9805,5.2109,5.248,5.3945,5.5039,5.5137,5.582,5.6308,5.6308,5.4941,5.4004,5.4004,5.3203,5.2695,5.2695,5.1773,5.0837,4.999,4.8893,4.7912,4.7086,4.6105,4.5586,4.5586,4.5586,4.5586,4.5586,4.5586,4.5586,4.5586,4.5586,4.5586,4.5586,4.5586,4.6448,4.7677,4.5892,4.5566,4.6084,4.4626,4.407,4.397,4.3041,4.2356,4.1979,0.0,0.0,0.0,0.0,0.0,0.0,0.0,0.0,0.0,3.2519,3.3008,3.3652,3.4766,3.5234,3.5747,3.646,3.9015,4.1867,4.4851,4.8247,5.1442,5.4433,5.5527,5.623,5.6582,5.7441,5.789,5.789,5.8769,5.9433,5.9922,6.0762,6.1152,6.1191,6.207,6.1973,6.1152,6.1074,6.0757,6.0155,5.8645,5.7966,5.7463,5.4216,5.2045,5.043,4.8356,4.6416,0.0,4.4303,4.3899,4.3688,4.4147,4.3515,4.2155,4.0068,3.9319,3.9119,3.8853,3.8426,3.8572,4.0679,4.1504,4.2539,4.543,4.5742,4.5879,4.748,4.957,5.0996,5.0644,5.2578,5.4219,5.4219,5.5254,5.6055,5.6055,5.5937,5.5664,5.5156,5.4433,5.4394,5.541,5.4277,5.3457,5.3457,5.2016,5.0747,4.9836,4.8778,4.7778,4.6933,4.6047,4.5586,4.5586,4.5586,4.5586,4.5586,4.5586,4.5873,4.6371,4.6371,4.6602,4.7062,4.7049,4.7048,4.6987,4.6165,4.5611,4.5245,4.4589,4.4345,4.4226,4.3114,4.253,4.2375,0.0,0.0,0.0,0.0,0.0,0.0,0.0,0.0,0.0,0.0,3.1816,3.2068,3.2823,3.3071,3.3484,3.4218,3.7063,4.0318,4.3878,4.8105,5.1707,5.4511,5.6094,5.6894,5.6894,5.8008,5.8594,5.8594,5.9453,6.0195,6.0762,6.1406,6.1699,6.1738,6.2363,6.2285,6.1699,6.1601,6.1465,6.1149,5.9293,5.8308,5.7497,5.3443,5.0966,4.9411,4.7684,4.5571,4.3455,4.2415,4.2052,4.2153,4.2748,4.2673,4.2098,4.06,4.0442,4.0761,4.0881,4.0577,4.0746,4.2754,4.4643,4.6191,4.6914,4.8066,4.9258,5.0137,5.1973,5.3418,5.3418,5.4648,5.5664,5.5664,5.6191,5.6523,5.6289,5.5488,5.4629,5.375,5.3437,5.3867,5.5371,5.4375,5.3633,5.3633,5.1835,5.0362,4.949,4.8375,4.7395,4.6587,4.5932,4.5586,4.5586,4.5586,4.5586,4.5586,4.5586,4.593,4.6544,4.6681,4.7373,4.8431,4.8087,4.7722,4.7298,4.6495,4.5961,4.5542,4.4739,4.4638,4.4771,4.3655,4.305,4.2812,0.0,0.0,0.0,0.0,0.0,0.0,0.0,0.0,0.0,0.0,0.0,0.0,0.0,3.2648,3.3431,3.4222,3.583,3.8604,4.2864,4.6435,4.9896,5.33,5.6152,5.7676,5.7676,5.9414,6.0312,6.0312,6.1191,6.164,6.166,6.1699,6.1699,6.1699,6.1738,6.1719,6.1699,6.1699,6.1543,6.1149,5.939,5.8016,5.6668,5.3212,4.9875,4.6795,4.503,4.3307,4.1619,3.997,3.9418,3.9423,3.9442,3.9961,4.0432,3.9572,3.8767,3.8122,3.8116,3.9986,4.2544,4.5056,4.7148,4.9238,5.1719,5.2402,5.2793,5.3672,5.457,5.5215,5.5215,5.5957,5.6562,5.6562,5.6582,5.6308,5.5469,5.459,5.3711,5.2832,5.1992,5.1836,5.2734,5.2773,5.2734,5.2734,5.0937,4.9457,4.8586,4.753,4.6549,4.5663,4.5605,4.5586,4.5586,4.5586,4.5586,4.5586,4.5586,4.5605,4.5643,4.611,4.7434,4.9279,4.8049,4.8472,4.9777,4.699,4.6749,4.7911,4.5121,4.473,4.5666,4.4841,4.397,4.3137,0.0,0.0,0.0,0.0,0.0,0.0,0.0,0.0,0.0,0.0,0.0,0.0,0.0,0.0,0.0,0.0,3.5104,3.7786,4.04,4.4932,4.8503,5.0787,5.4139,5.5979,5.5976,5.8359,5.9609,5.9609,6.1015,6.1699,6.1719,6.2285,6.2246,6.1738,6.2305,6.2246,6.1699,6.1699,6.1269,6.0367,5.7998,5.6729,5.5698,5.0544,4.751,4.553,0.0,3.9394,3.8252,3.7145,3.7134,3.7777,3.8941,3.9084,3.8796,3.8512,3.8642,3.9354,4.1591,4.3722,4.5948,4.853,5.0147,5.1494,5.3017,5.3848,5.4394,5.4785,5.4648,5.4433,5.4433,5.4199,5.4199,5.4785,5.5351,5.5644,5.5332,5.5058,5.3906,5.1348,5.1758,5.1484,4.9512,5.0351,5.1269,5.1797,5.0032,4.8555,4.7679,4.7182,4.6491,4.5624,4.5586,4.5873,4.6467,4.5892,4.5892,4.6467,4.618,4.6641,4.7735,4.7664,4.8286,4.9446,4.9018,4.8702,4.8431,4.7471,4.7076,4.6984,4.5677,4.5944,4.6889,4.6046,4.5878,4.5878,0.0,0.0,0.0,0.0,0.0,0.0,0.0,0.0,0.0,0.0,0.0,0.0,0.0,0.0,0.0,0.0,0.0,3.5778,3.7795,4.1936,4.522,4.7238,5.0506,5.2593,5.3222,5.5039,5.6289,5.6875,5.8262,5.9277,5.9902,6.0762,6.1035,6.082,6.1387,6.1328,6.0762,6.0137,5.9121,5.7674,5.5022,5.3254,5.1741,4.6935,4.4379,0.0,3.8623,3.6548,3.5637,3.452,3.4886,3.5945,3.6774,3.7685,3.8445,3.8443,3.9711,4.1687,4.4472,4.6509,4.8546,5.1453,5.2722,5.3552,5.4801,5.5365,5.5488,5.4941,5.4141,5.3359,5.2754,5.1933,5.1621,5.25,5.3105,5.3574,5.3867,5.3652,5.2656,5.0469,5.1152,5.0937,4.873,4.9531,5.0293,5.0488,4.9559,4.8585,4.7713,4.718,4.6642,4.6084,4.5757,4.5873,4.6429,4.5876,4.5876,4.6429,4.6049,4.6741,4.8314,4.7853,4.8302,4.949,4.9329,4.8871,4.8075,4.7529,4.7205,4.6995,4.5832,4.6167,4.7236,4.6241,4.6221,4.6486,0.0,0.0,0.0,0.0,0.0,0.0,0.0,0.0,0.0,0.0,0.0,0.0,0.0,0.0,0.0,0.0,0.0,0.0,3.5218,3.7789,4.0331,4.2833,4.5649,4.7934,4.9668,5.0039,5.0976,5.2578,5.3437,5.4707,5.6348,5.7187,5.8008,5.8808,5.8808,5.8808,5.8691,5.6992,5.5215,5.332,5.0683,4.8048,4.5368,4.2756,4.0762,3.8992,3.6416,3.495,3.3959,3.242,3.3045,3.4318,3.3484,3.6046,3.9381,3.9515,4.1899,4.4878,4.6722,4.849,5.0587,5.3876,5.4858,5.5439,5.6981,5.6883,5.5956,5.4218,5.3105,5.1933,5.0293,4.9316,4.9062,4.998,5.0234,5.0586,5.1367,5.0918,5.0469,5.0273,5.0371,5.041,5.0273,5.0293,4.9941,4.9043,4.9454,4.9354,4.8542,4.7467,4.6908,4.6908,4.6046,4.5605,4.568,4.5668,4.5668,4.5643,4.5266,4.5949,4.749,4.6746,4.7494,4.9413,4.9062,4.8897,4.8748,4.7181,4.7201,4.7924,4.5569,4.5572,4.6775,4.5592,4.5167,4.5176,0.0,0.0,0.0,0.0,0.0,0.0,0.0,0.0,0.0,0.0,0.0,0.0,0.0,0.0,0.0,0.0,0.0,0.0,3.3518,3.6562,3.8653,3.9373,4.3847,4.6557,4.7051,4.9121,5.041,5.084,5.166,5.2285,5.2734,5.2949,5.3183,5.3398,5.3398,5.3398,5.332,5.2266,5.1172,4.9902,4.7187,4.5677,4.466,4.1364,3.9841,3.9119,3.6559,3.5064,3.4308,3.448,3.6084,3.7964,3.774,3.8827,4.0575,4.246,4.4974,4.7779,5.0779,5.328,5.5434,5.6953,5.6973,5.6579,5.6461,5.5423,5.4052,5.2392,5.0371,4.8574,4.748,4.7109,4.7461,4.8984,5.082,5.2129,5.2344,5.3867,5.4004,5.1406,5.2812,5.3223,5.1289,5.168,5.1445,4.998,4.9218,4.8729,4.8509,4.747,4.6908,4.6908,4.6046,4.5911,4.6564,4.6584,4.6584,4.6544,4.532,4.587,4.7986,4.6635,4.698,4.862,4.8803,4.873,4.8398,4.7697,4.7573,4.767,4.6104,4.6124,4.6949,4.6259,4.5956,4.5817,0.0,0.0,0.0,0.0,0.0,0.0,0.0,0.0,0.0,0.0,0.0,0.0,0.0,0.0,0.0,0.0,0.0,0.0,0.0,3.399,3.5649,3.6477,3.9039,4.0996,4.2207,4.3008,4.3769,4.4531,4.5762,4.6738,4.7461,4.8223,4.8808,4.916,4.916,4.916,4.9082,4.7851,4.6641,0.0,0.0,4.1601,4.0683,3.8681,3.788,3.7641,3.6213,3.6059,3.6785,3.8349,3.9314,3.9962,4.0735,4.2302,4.4263,4.6473,4.8914,5.1491,5.4145,5.6184,5.778,5.8723,5.8127,5.6999,5.5915,5.4444,5.2427,4.9232,4.7441,4.5859,4.3867,4.4082,4.4902,4.5898,4.8203,5.0156,5.0918,5.293,5.373,5.2168,5.3945,5.457,5.2715,5.3281,5.3066,5.1426,5.0278,4.9467,4.9086,4.8029,4.7431,4.7428,4.6602,4.641,4.6908,4.6525,4.6275,4.6103,4.5068,4.5418,4.6882,4.6195,4.6686,4.8066,0.0,4.8581,4.7984,4.7407,4.6967,4.649,4.563,4.5652,4.6183,4.5731,4.5348,4.4965,0.0,0.0,0.0,0.0,0.0,0.0,0.0,0.0,0.0,0.0,3.0398,0.0,0.0,0.0,0.0,0.0,0.0,0.0,0.0,0.0,3.2555,3.426,3.3774,3.4629,3.707,3.5644,3.5605,3.7129,3.8633,4.0137,4.1582,4.3105,4.4277,4.5117,4.5117,4.5176,4.5176,4.3535,4.2012,4.0547,3.8906,3.7305,3.5918,0.0,3.5846,3.5751,3.5859,3.7418,3.9817,4.2483,4.2469,4.1666,4.3537,4.6184,4.8971,5.0818,5.301,5.5203,5.6876,5.7973,5.8838,5.9611,5.8508,5.6829,5.5144,5.325,5.0508,4.5801,4.4648,4.3555,4.0469,4.1269,4.2441,4.2558,4.4766,4.707,4.8828,5.0527,5.1855,5.2617,5.4141,5.4824,5.4062,5.4473,5.4198,5.2797,5.171,5.0771,5.0048,4.8933,4.8221,4.7966,4.7276,4.6872,4.6718,4.5988,4.5432,4.5087,4.4767,4.4808,4.5231,4.57,4.6542,4.7739,4.8605,4.8544,4.7786,4.6936,4.6067,4.5231,4.4702,4.4626,4.4748,4.4505,4.3882,4.3105,0.0,0.0,0.0,0.0,0.0,0.0,0.0,0.0,0.0,0.0,3.0398,3.0398,0.0,0.0,0.0,0.0,0.0,0.0,0.0,0.0,0.0,3.3375,3.4041,3.4961,3.6191,3.5937,3.5918,3.623,3.6523,3.6836,3.7129,3.7422,3.8027,3.8867,3.8867,3.9258,3.9863,3.8848,3.8242,3.7891,3.6855,3.6269,3.5976,3.5976,0.0,0.0,3.6702,3.8074,4.005,4.3215,4.494,4.6225,4.8606,5.024,5.1722,5.4126,5.5645,5.6915,5.8607,5.9781,6.0396,5.9835,5.8135,5.5934,5.3502,5.0087,4.6758,4.4414,4.2812,4.1465,4.0137,4.1269,4.2637,4.3359,4.5664,4.7988,4.9726,5.1426,5.2539,5.2676,5.3594,5.418,5.4004,5.3457,5.3001,5.273,5.1775,5.1123,5.0972,5.0029,4.8817,4.7313,4.7126,4.6666,4.5834,4.568,4.5432,4.5107,4.4756,4.4819,4.5231,4.5676,4.6557,4.7759,4.8897,0.0,4.8607,4.7467,4.65,4.5653,4.4554,4.3699,4.3134,4.3369,4.2187,4.0471,0.0,0.0,0.0,0.0,0.0,0.0,0.0,3.1274,3.1376,3.1657,3.1696,3.1376,3.0544,3.0487,3.066,0.0,0.0,0.0,0.0,0.0,0.0,3.248,3.2617,3.3105,3.4004,3.3574,3.3359,3.3359,0.0,3.4023,3.4023,3.4453,3.4863,3.5273,3.5273,3.5508,3.5879,3.5449,3.5527,3.5918,3.5488,3.5605,3.5996,3.5996,0.0,0.0,3.7637,3.8961,4.0777,4.3684,4.6014,4.8218,5.1085,5.2856,5.4299,5.6434,5.7357,5.805,5.98,6.0627,6.0819,6.0123,5.8174,5.5513,5.2085,4.8357,4.4883,4.2266,4.0723,3.957,3.8711,3.9941,4.123,4.1641,4.3164,4.5176,4.7793,4.9258,5.0547,5.1875,5.3183,5.4004,5.4004,5.3566,5.3105,5.2737,5.2602,5.2161,5.126,5.0313,4.94,4.8541,4.7603,4.7067,4.7024,4.6065,4.5432,4.5107,4.4776,4.4796,4.522,4.5912,4.6871,4.8068,4.9068,4.8909,4.7871,4.6819,4.5533,4.4156,4.3412,4.2868,4.2452,4.2235,4.1281,3.9936,0.0,0.0,0.0,0.0,0.0,0.0,0.0,3.1889,3.2134,3.2813,3.2909,3.2358,3.0943,3.0779,3.0723,0.0,0.0,0.0,0.0,0.0,0.0,0.0,0.0,0.0,3.2187,0.0,0.0,3.0898,3.1582,0.0,0.0,0.0,0.0,0.0,3.3398,3.3398,3.3398,3.3398,3.3906,0.0,0.0,3.5215,3.5996,0.0,0.0,0.0,0.0,3.9633,4.1383,4.3936,4.6078,4.8182,5.1221,5.3706,5.5838,5.7373,5.8085,5.8739,6.0358,6.0935,6.0916,6.0123,5.7888,5.4831,5.0822,4.707,4.3633,4.0762,3.9336,3.8398,3.7695,3.8691,3.9666,3.9819,4.0619,4.2383,4.5781,4.7031,4.8476,5.0859,5.25,5.3437,5.3437,5.3351,5.3028,5.2421,5.2891,5.2713,5.1567,5.0639,5.0058,4.9844,4.8282,4.7642,4.8043,4.6448,4.547,4.5145,4.4766,4.4702,4.4978,4.5768,4.668,4.769,4.8497,4.8053,4.6713,4.5791,4.4364,4.2722,4.2167,4.1851,4.1666,4.0896,4.0187,3.9303,0.0,0.0,0.0,0.0,0.0,0.0,0.0,3.1891,3.2133,3.2812,3.2889,3.262,3.1845,3.1715,3.1383,0.0,0.0,0.0,0.0,0.0,0.0,0.0,0.0,0.0,0.0,0.0,0.0,3.0898,3.0976,0.0,0.0,0.0,0.0,0.0,0.0,3.3398,3.3398,3.3398,0.0,0.0,0.0,0.0,0.0,0.0,0.0,0.0,0.0,3.9628,4.1384,4.393,4.486,4.5405,4.8017,5.1664,5.5162,5.6022,5.7405,5.8869,5.9835,6.0762,6.105,5.9427,5.6596,5.3314,4.9804,4.5703,4.2344,4.1308,3.9766,3.8574,3.8496,3.8613,3.8938,3.9605,4.0545,4.2344,4.5644,4.6973,4.8262,5.0098,5.1094,5.1641,5.1641,5.1637,5.1538,5.1348,5.1348,5.1699,5.2513,5.1737,5.0859,5.0019,4.9041,4.8146,4.7311,4.6294,4.5605,4.5278,4.4827,4.4448,4.4125,4.4635,4.5125,4.564,4.643,4.6421,0.0,4.488,4.3904,4.2837,4.1355,4.0466,3.9937,3.9132,3.8035,3.6917,0.0,0.0,0.0,0.0,0.0,0.0,3.1797,3.1911,3.2325,3.3536,3.367,3.344,3.276,3.2658,3.2148,3.0898,0.0,0.0,0.0,0.0,0.0,0.0,0.0,0.0,0.0,0.0,3.168,3.168,3.2168,0.0,0.0,0.0,0.0,0.0,0.0,3.2383,3.1934,3.2461,0.0,0.0,0.0,0.0,0.0,0.0,0.0,0.0,0.0,0.0,3.9706,4.0721,4.2045,4.3272,4.3287,4.6261,5.0375,5.3639,5.58,5.7572,5.9579,6.08,6.1113,5.9488,5.6133,5.2461,4.9551,4.5156,4.1582,4.1269,3.9355,3.791,3.8398,3.7598,3.7292,3.8651,3.838,3.9376,4.3279,4.3789,4.4961,4.8242,4.9375,5.0293,5.1308,5.1328,5.1366,5.1547,5.0598,5.0408,5.1325,5.1316,5.0898,5.0039,4.9141,4.8228,4.7209,4.6751,4.6073,4.5187,4.528,4.4942,4.4255,4.4423,4.4671,4.5001,4.5342,4.5078,0.0,4.2935,4.1841,4.0935,3.9493,3.8753,3.8502,3.7678,3.7054,3.6622,0.0,0.0,0.0,0.0,0.0,3.1133,3.1797,3.1907,3.2359,3.3647,3.3813,3.3651,3.3254,3.297,3.2402,3.1367,3.0957,0.0,0.0,0.0,0.0,0.0,0.0,0.0,0.0,0.0,3.1934,3.2207,3.2773,3.3301,0.0,0.0,3.3476,3.293,0.0,0.0,0.0,0.0,0.0,0.0,0.0,0.0,0.0,0.0,0.0,0.0,0.0,0.0,0.0,0.0,0.0,4.107,3.9889,4.1945,4.5667,5.0131,5.3187,5.5637,5.8086,5.9769,6.0429,5.8834,5.5351,5.1641,4.9101,4.4902,4.1484,4.1191,3.9238,3.7713,3.8264,3.6907,3.619,3.766,3.7183,3.7861,4.1394,4.2126,4.3418,4.6465,4.8027,4.9297,5.0488,5.1031,5.1317,5.1356,5.0128,4.9544,4.9968,5.0159,5.0051,4.9629,4.9062,4.8271,4.7276,4.6868,4.6172,4.5148,4.5338,4.4946,4.4048,4.396,4.3884,4.388,4.367,4.315,0.0,4.0908,3.9846,3.9111,3.793,3.7438,3.7351,3.6798,3.6597,3.6637,0.0,0.0,0.0,0.0,0.0,0.0,3.1797,3.1903,3.2151,3.2817,3.2904,3.3004,3.3177,3.2419,3.1992,3.2168,3.1406,0.0,0.0,0.0,0.0,0.0,0.0,0.0,0.0,0.0,3.1348,3.2207,3.2207,3.3066,3.4687,3.4687,3.4687,3.4648,0.0,0.0,0.0,0.0,0.0,0.0,0.0,0.0,0.0,0.0,0.0,0.0,0.0,0.0,0.0,0.0,0.0,0.0,0.0,3.9824,4.1933,4.5371,4.9394,5.3125,5.4863,5.7246,5.8808,5.7051,5.4004,5.0742,4.8183,4.4902,4.2129,4.1191,3.9609,3.8378,3.8303,3.6876,3.5963,3.6785,3.7685,3.8896,4.0671,4.3196,4.4902,4.5019,4.7207,4.8711,4.873,5.0406,5.1183,5.0375,4.9797,4.9308,4.8852,4.8314,4.8242,4.8691,4.8828,4.843,4.7407,4.641,4.5688,4.5308,4.4821,4.4101,4.3188,4.2894,4.2397,4.1796,4.099,4.0354,0.0,3.8959,3.8286,3.7766,3.6903,3.6582,3.6629,3.6615,3.6591,3.6682,0.0,0.0,0.0,0.0,0.0,0.0,0.0,3.1041,3.1299,3.2112,3.2172,3.2218,3.2352,3.2124,3.1797,3.1348,3.1055,0.0,0.0,0.0,0.0,0.0,0.0,0.0,0.0,0.0,3.2187,3.3027,3.3613,3.4473,3.5586,3.5586,3.5273,3.4687,3.4414,3.3828,0.0,0.0,0.0,0.0,0.0,0.0,3.5996,0.0,0.0,0.0,0.0,0.0,0.0,0.0,0.0,0.0,0.0,0.0,0.0,4.0723,4.4922,4.9453,5.0605,5.1953,5.2637,5.0879,4.8711,4.666,4.5254,4.2734,4.0605,4.0312,3.8837,3.7564,3.7436,3.6477,3.6155,3.7564,3.8604,3.9653,4.081,4.3284,4.5195,4.582,4.8568,5.0564,5.0972,5.1308,5.1257,5.0679,4.9694,4.8885,4.8416,4.8359,4.8145,4.7684,4.7899,4.7805,4.7396,4.6773,4.6206,4.5765,4.5283,4.4068,4.226,4.2104,4.1557,4.058,3.977,3.9366,3.9109,3.777,3.7142,3.6919,3.614,3.6178,3.6506,3.6016,3.6182,3.6731,0.0,0.0,0.0,0.0,0.0,0.0,0.0,3.0661,3.0815,3.1341,3.138,3.1521,3.195,3.1705,3.1484,3.1406,3.1094,0.0,0.0,0.0,0.0,0.0,0.0,0.0,3.0898,3.1758,3.2598,3.3398,3.4277,3.5312,3.6484,3.6484,3.6191,3.5664,3.5332,3.4707,0.0,0.0,0.0,0.0,0.0,0.0,3.5996,0.0,0.0,0.0,0.0,0.0,0.0,0.0,0.0,0.0,0.0,0.0,0.0,0.0,4.0996,4.4609,4.6445,4.8047,4.8887,4.7461,4.5801,4.4277,4.3418,4.1484,3.9785,3.9414,3.821,3.7153,3.7014,3.6281,3.6042,3.7093,3.8326,3.948,4.0376,4.3046,4.5547,4.7324,4.9068,5.0547,5.1684,5.1433,5.1014,5.0548,4.9389,4.8473,4.8031,4.801,4.7665,4.6952,4.763,4.7969,4.7891,4.7217,4.6659,4.6168,4.5714,4.4392,4.2316,4.1966,4.1308,4.0358,3.9364,3.873,0.0,3.7121,3.6622,3.6526,3.611,3.631,3.6877,3.6722,3.6906,3.7379,0.0,0.0,0.0,0.0,0.0,0.0,0.0,3.0703,3.0679,3.0636,3.0613,3.093,3.1835,3.1203,3.1094,3.2031,3.1367,0.0,0.0,0.0,0.0,0.0,0.0,0.0,3.0898,3.1758,3.2598,3.3398,3.4336,3.5644,3.7305,3.7305,3.7305,3.7266,3.6387,3.5547,0.0,0.0,0.0,0.0,0.0,0.0,0.0,0.0,0.0,0.0,0.0,0.0,0.0,0.0,0.0,0.0,0.0,0.0,0.0,0.0,0.0,0.0,0.0,4.4961,4.666,4.5781,4.4394,4.3027,4.2226,4.082,0.0,3.8516,3.7676,3.709,3.7031,3.6307,3.5786,3.5951,3.7396,3.8814,3.9747,4.2759,4.6051,4.9216,4.8953,4.9202,5.1028,5.0903,5.0559,5.0138,4.9044,4.82,4.7828,4.7502,4.7133,4.6742,4.7969,4.861,4.8593,4.7587,4.6892,4.6492,4.5975,4.4851,4.322,4.2318,4.1585,0.0,3.9561,3.8563,3.7772,3.6953,3.6591,3.6546,3.6523,3.6868,3.7483,3.817,3.8359,3.8355,0.0,0.0,0.0,0.0,0.0,0.0,0.0,0.0,0.0,0.0,3.0737,3.0799,3.1111,3.0972,3.0957,0.0,0.0,0.0,0.0,0.0,0.0,0.0,0.0,0.0,3.0898,3.1758,3.2598,3.3398,3.4941,3.625,3.7305,3.7305,3.7305,3.7266,3.6387,3.5898,0.0,0.0,0.0,0.0,0.0,0.0,0.0,0.0,0.0,0.0,3.5065,3.5234,0.0,0.0,0.0,0.0,0.0,0.0,0.0,0.0,3.6884,3.7568,3.7762,0.0,3.9512,3.8633,3.8613,3.875,0.0,3.8184,3.7832,3.7617,3.6875,3.6465,3.7051,3.6476,3.6545,3.8457,3.9658,4.0675,4.1557,4.4526,4.7366,4.9362,5.0003,5.0301,5.0366,5.0558,5.0546,5.021,4.9636,4.9085,4.8632,4.8546,4.8636,4.8938,4.8291,4.7808,4.7554,4.6397,4.6055,4.6496,4.5451,4.4471,4.3584,4.308,4.2531,4.1888,4.0295,3.9118,3.8346,3.7126,3.628,3.5748,3.5774,3.6427,3.7337,3.7066,3.7629,3.8538,0.0,0.0,0.0,0.0,0.0,0.0,0.0,0.0,0.0,0.0,0.0,3.082,3.0898,3.0898,0.0,0.0,0.0,0.0,0.0,0.0,0.0,0.0,0.0,3.0898,3.0898,3.2129,3.2949,3.3359,3.5137,3.6426,3.7246,3.7285,3.7305,3.7266,3.6387,3.5996,0.0,0.0,0.0,0.0,3.5444,0.0,0.0,0.0,0.0,0.0,3.4443,3.4686,0.0,3.5593,3.5788,3.5812,0.0,0.0,0.0,0.0,3.5872,3.6338,3.5534,3.6258,3.7148,3.6719,3.6953,3.7305,3.7305,3.6992,3.6582,3.6191,3.5723,3.5541,3.5967,3.5996,3.6651,3.8762,3.9813,4.1182,4.3572,4.5611,4.7602,4.9595,5.01,5.0502,5.1175,5.1068,5.0842,5.0483,4.9908,4.9211,4.8255,4.8399,4.8298,4.7932,4.7305,4.7264,4.7882,4.6722,4.6297,4.6588,4.5811,4.5073,4.4423,4.3741,4.3238,4.2862,4.1273,3.9682,3.8101,3.6954,3.5859,3.4927,3.5223,3.6405,3.7887,3.7827,3.8438,3.9209,0.0,0.0,0.0,0.0,0.0,0.0,0.0,0.0,0.0,0.0,0.0,0.0,0.0,0.0,0.0,0.0,0.0,0.0,0.0,0.0,0.0,0.0,3.0957,3.0957,3.1074,3.2598,3.3418,3.3496,3.5424,3.6713,3.7383,3.7598,3.7559,3.7246,3.6348,3.5957,0.0,0.0,0.0,0.0,3.4855,0.0,0.0,0.0,0.0,0.0,0.0,0.0,0.0,3.5147,3.5441,3.5465,3.5356,0.0,0.0,0.0,0.0,0.0,3.4809,3.5896,3.7136,3.7066,3.7067,3.7029,3.6914,3.6426,3.5742,3.4883,3.4801,3.492,3.5058,3.5624,3.667,3.8465,3.9729,4.176,4.5454,4.6431,4.7525,4.9584,4.9638,5.0128,5.1682,5.1284,5.078,5.0444,4.9695,4.8685,4.7301,4.7452,4.6957,4.5587,4.5663,4.6427,4.7957,4.7158,4.6636,4.6454,4.6246,4.5782,4.5082,4.3966,4.3482,4.3406,0.0,0.0,3.7432,3.677,3.5459,3.3964,3.4723,3.6294,3.8234,3.8829,3.93,3.9644,0.0,0.0,0.0,0.0,0.0,0.0,0.0,0.0,0.0,0.0,0.0,0.0,0.0,0.0,0.0,0.0,0.0,0.0,0.0,0.0,0.0,3.1836,3.123,3.1191,3.1816,3.2812,3.3672,3.4394,3.6841,3.8082,3.8223,3.9101,3.8672,3.7168,3.6191,3.5742,3.5742,3.5742,0.0,0.0,3.4706,0.0,0.0,0.0,0.0,0.0,0.0,0.0,0.0,3.443,3.4507,3.4403,3.3786,0.0,0.0,0.0,0.0,0.0,3.5152,3.6208,3.6795,3.6112,3.5961,3.5773,3.5154,3.5488,3.5684,3.4863,3.5236,3.5944,3.6664,3.6828,3.7617,4.0038,4.2629,4.4927,4.6576,4.7442,4.8074,4.8431,4.9096,4.9232,4.8511,4.8963,4.9097,4.8693,4.8111,4.7386,4.6488,4.5978,4.5303,4.4467,4.4075,4.414,4.4637,4.5255,4.5491,4.535,4.5424,4.5068,4.4312,4.2968,4.2401,4.2446,0.0,3.923,3.6629,3.696,3.5258,3.2644,3.3813,3.5278,3.6747,3.6843,3.7729,3.8612,0.0,0.0,0.0,0.0,0.0,0.0,0.0,0.0,0.0,0.0,0.0,0.0,0.0,0.0,0.0,0.0,0.0,0.0,0.0,0.0,3.2266,3.2637,3.2328,3.2299,3.2637,3.3496,3.4103,3.4443,3.6134,3.7171,3.7656,3.8184,3.8007,3.7168,3.6149,3.5694,3.5694,3.5655,3.565,3.5565,0.0,0.0,0.0,0.0,0.0,0.0,0.0,0.0,0.0,0.0,3.3545,3.3468,3.3141,0.0,0.0,0.0,0.0,0.0,3.3442,3.4461,3.5476,3.5577,3.6336,3.6784,3.5574,3.5256,3.5227,3.5332,3.5628,3.6296,3.757,3.792,3.8916,4.1651,4.4384,4.6372,4.693,4.7129,4.7392,4.7879,4.8466,4.8834,4.8716,4.9455,4.9505,4.853,4.8224,4.7232,4.5351,4.4571,4.3687,4.2586,4.1831,4.1726,4.2265,4.2811,4.3602,4.462,4.4823,4.4767,4.4437,4.3768,4.3588,4.3703,0.0,3.9005,3.6566,3.5504,3.3628,3.1555,3.3005,3.5025,3.7062,3.6922,3.6631,3.6063,0.0,0.0,0.0,0.0,0.0,0.0,0.0,0.0,0.0,0.0,0.0,0.0,0.0,0.0,0.0,0.0,0.0,0.0,0.0,3.1953,3.236,3.3152,3.3384,3.3469,3.3461,3.4108,3.449,3.4601,3.5545,3.6444,3.7305,3.7187,3.7138,3.7088,3.6098,3.5661,3.5661,3.5603,3.5584,3.5493,0.0,0.0,0.0,0.0,0.0,0.0,0.0,0.0,0.0,0.0,0.0,0.0,0.0,0.0,0.0,3.1583,3.1833,3.2275,3.2045,3.3218,3.4622,3.5084,3.6285,3.7178,3.6559,3.5749,3.5446,3.6523,3.6891,3.7344,3.837,3.9223,4.0553,4.31,4.5563,4.7135,4.7021,4.6943,4.709,4.7752,4.8102,4.8524,4.9029,4.9651,4.9482,4.8171,4.776,4.6572,4.4222,4.2978,4.1655,4.0349,3.9065,3.8679,3.9297,3.8924,4.032,4.3508,4.3527,4.3511,4.3409,4.3154,4.3196,4.325,4.0549,3.8125,3.5938,3.3939,3.2228,3.1102,3.2752,3.4746,3.6675,3.6312,3.4742,3.2503,0.0,0.0,0.0,0.0,0.0,0.0,0.0,0.0,0.0,0.0,0.0,0.0,0.0,0.0,0.0,0.0,0.0,0.0,0.0,3.1621,3.2354,3.3147,3.3865,3.4211,3.4225,3.4276,3.4706,3.5526,3.6367,3.7287,3.8184,3.7324,3.6923,3.6881,3.593,3.5526,3.5526,3.5526,3.5526,3.5416,3.4543,0.0,0.0,0.0,0.0,0.0,0.0,0.0,0.0,0.0,0.0,0.0,0.0,0.0,3.0571,3.0513,3.0533,3.091,3.241,3.4083,3.5238,3.4468,3.4404,3.5103,3.7397,3.732,3.7201,3.8888,3.9844,4.0134,3.9458,4.0921,4.2731,4.419,4.624,4.7534,4.715,4.7716,4.8176,4.8269,4.8288,4.8093,4.7603,4.7615,4.7342,4.6605,4.5267,4.4146,4.3241,4.0932,3.896,3.7617,3.5548,3.4545,3.459,3.2469,3.4748,4.1398,4.08,4.0183,3.9563,3.8797,3.8451,3.8382,3.7387,3.5676,3.3602,3.3075,3.2182,3.1482,3.3465,3.4067,3.3853,3.3388,3.1043,2.7958,0.0,0.0,0.0,0.0,0.0,0.0,0.0,0.0,0.0,0.0,0.0,0.0,0.0,0.0,0.0,0.0,0.0,0.0,0.0,3.2246,3.2787,3.3133,3.4359,3.4787,3.4255,3.4768,3.5205,3.5545,3.7011,3.7614,3.743,3.7625,3.7413,3.6862,3.5911,3.5493,3.5493,3.5493,3.5187,3.4713,3.4911,3.3872,0.0,0.0,0.0,0.0,0.0,0.0,0.0,0.0,3.0891,3.0833,3.0494,3.0398,3.0398,3.0398,3.0398,3.0533,3.1179,3.2987,3.4603,3.4276,3.4603,3.543,3.6993,3.7926,3.8796,3.9998,4.1324,4.2179,4.1886,4.3303,4.4726,4.5291,4.6471,4.7441,4.781,4.8102,4.8306,4.8306,4.7977,4.7474,4.6759,4.6327,4.5605,4.4437,4.3426,4.2111,4.0349,3.8469,3.6716,3.5178,3.3183,3.2379,3.2872,3.0505,3.095,3.4118,3.5752,3.6401,3.6203,3.6974,3.8035,3.9088,3.5934,3.4451,3.4171,3.2496,3.1913,3.2107,3.3778,3.3375,3.1777,3.0823,2.8512,2.589,0.0,0.0,0.0,0.0,0.0,0.0,0.0,0.0,0.0,0.0,0.0,0.0,0.0,0.0,0.0,0.0,0.0,0.0,3.1913,3.2377,3.2746,3.3075,3.4109,3.4526,3.4216,3.4787,3.5224,3.5493,3.6747,3.7035,3.6474,3.7074,3.703,3.6406,3.5493,3.5089,3.507,3.4807,3.4327,3.3863,3.4745,3.3731,0.0,0.0,0.0,0.0,0.0,0.0,0.0,0.0,3.0398,3.0398,3.0398,3.0398,3.0398,3.0398,3.0398,3.034,3.0063,3.166,3.3333,3.3064,3.4449,3.6199,3.7377,3.875,4.0293,4.2264,4.3057,4.3483,4.3655,4.4522,4.5421,4.5978,4.6838,4.7679,4.8233,4.8086,4.7902,4.7902,4.7197,4.6308,4.5354,4.4678,4.372,4.2211,4.118,3.9859,3.8235,3.6266,3.464,3.3311,3.1033,2.9946,3.0103,2.7085,2.5988,2.6649,2.6052,2.681,2.8584,2.7995,3.0128,3.4045,3.0766,3.1648,3.522,3.2634,3.2318,3.3482,3.4385,3.3172,3.0799,2.9266,2.6932,2.4681,0.0,0.0,0.0,0.0,0.0,0.0,0.0,0.0,0.0,0.0,0.0,0.0,0.0,0.0,0.0,0.0,0.0,0.0,3.1865,3.185,3.2179,3.2966,3.2942,3.3333,3.4178,3.4216,3.4653,3.5493,3.5526,3.5508,3.5496,3.5508,3.5526,3.5455,3.4601,3.4216,3.4126,3.3273,3.2904,3.2952,3.3846,3.3179,3.178,0.0,0.0,0.0,0.0,0.0,0.0,0.0,3.0398,3.0398,3.0398,3.0398,3.0398,3.0398,3.0398,3.0217,2.9352,3.0371,3.1506,3.0648,3.3622,3.718,3.8931,3.995,4.1739,4.6028,4.5323,4.4062,4.4525,4.4289,4.4538,4.6139,4.7455,4.8288,4.8306,4.7609,4.7077,4.7077,4.5888,4.4539,4.3123,4.2448,4.1478,4.0066,3.8292,3.7288,3.7237,3.4534,3.2724,3.2213,2.901,2.6801,2.5813,2.1332,1.9326,1.98,1.1293,1.0348,1.5891,1.0299,1.2674,2.117,2.08,2.6688,3.6307,3.3472,3.3646,3.5657,3.5308,3.3592,3.1075,2.8949,2.6455,2.4172,0.0,0.0,0.0,0.0,0.0,0.0,0.0,0.0,0.0,0.0,0.0,0.0,0.0,0.0,0.0,0.0,0.0,0.0,3.2579,3.2609,3.2672,3.2914,3.4096,3.4569,3.4205,3.4808,3.5243,3.5493,3.6078,3.6045,3.5523,3.6084,3.604,3.5474,3.5224,3.477,3.4186,3.3923,3.3133,3.2131,3.294,3.2281,3.0886,0.0,0.0,0.0,0.0,0.0,0.0,0.0,0.0,0.0,3.0398,3.0833,3.1198,3.0571,3.0398,3.034,3.0083,3.0833,3.2064,3.3603,3.5815,3.8373,4.1316,4.2604,4.3957,4.6755,4.5963,4.4976,4.5723,4.5326,4.5268,4.6683,4.6728,4.6819,4.7388,4.6764,4.6103,4.576,4.4923,4.3648,4.1797,4.1032,3.9769,3.753,3.6407,3.519,3.3827,3.2461,3.0968,2.9352,2.7336,2.5698,2.468,1.9874,1.8562,2.079,0.6057,-0.027,0.1002,-0.0985,-0.1144,0.0752,1.1134,1.8707,2.4274,3.1797,3.5415,3.6042,3.4439,3.2946,3.1554,3.068,2.8862,2.7211,0.0,0.0,0.0,0.0,0.0,0.0,0.0,0.0,0.0,0.0,3.1426,3.1289,0.0,0.0,0.0,0.0,0.0,0.0,0.0,3.3455,3.3421,3.3421,3.4417,3.4744,3.4212,3.5059,3.5493,3.5493,3.6001,3.5982,3.5512,3.632,3.6281,3.5493,3.5493,3.4828,3.366,3.3338,3.242,3.1261,3.2093,3.1614,3.0508,0.0,0.0,0.0,0.0,0.0,0.0,0.0,0.0,0.0,3.0398,3.0756,3.1083,3.0552,3.0398,3.0321,2.9987,3.1006,3.2622,3.4507,3.7007,3.9892,4.3316,4.497,4.5995,4.6678,4.6055,4.5388,4.5281,4.5119,4.526,4.603,4.6287,4.6434,4.6617,4.5938,4.5205,4.4708,4.3495,4.1995,4.0238,3.8893,3.734,3.5463,3.3829,3.2399,3.1203,3.0033,2.8694,2.7219,2.5878,2.4659,2.365,1.892,1.7125,1.8277,0.4052,-0.5739,-1.1422,-1.2485,-1.1887,-0.9112,0.6989,1.6311,2.0966,3.211,3.6667,3.6477,3.4749,3.3566,3.2796,3.2216,3.1233,3.0388,0.0,0.0,0.0,0.0,0.0,0.0,0.0,0.0,0.0,0.0,3.2305,3.2012,0.0,0.0,0.0,0.0,0.0,0.0,0.0,3.4289,3.4255,3.4312,3.4332,3.4332,3.4332,3.5089,3.5493,3.5493,3.5493,3.5493,3.5512,3.6243,3.6204,3.5493,3.5493,3.4537,3.2851,3.2122,3.1261,3.0467,3.1261,3.1114,3.0475,3.1275,0.0,0.0,0.0,0.0,0.0,0.0,0.0,0.0,3.0398,3.0436,3.0494,3.0417,3.034,3.014,2.9506,3.0968,3.2987,3.4334,3.7834,4.1777,4.4874,4.6799,4.7527,4.6114,4.584,4.5462,4.3996,4.4268,4.4727,4.48,4.5993,4.6636,4.5883,4.5058,4.4273,4.3592,4.1667,3.9809,3.8266,3.6164,3.4537,3.3585,3.0791,2.912,2.9065,2.7254,2.5891,2.5374,2.4392,2.3471,2.2647,1.8249,1.5423,1.3979,0.493,-0.6071,-1.8378,-2.1517,-1.877,-1.0539,0.6667,1.7528,2.3867,3.3657,3.7461,3.7018,3.5795,3.5064,3.4612,3.3969,3.3783,3.3694,0.0,0.0,0.0,0.0,0.0,0.0,0.0,0.0,0.0,0.0,0.0,0.0,0.0,0.0,0.0,0.0,0.0,0.0,0.0,3.4576,3.4505,3.5185,3.5224,3.5224,3.5224,3.5397,3.5493,3.5493,3.5493,3.5493,3.5493,3.5671,3.5671,3.5493,3.5493,3.4545,3.2891,3.2716,3.1773,3.0417,3.0602,3.0564,3.0417,3.0609,3.0552,0.0,0.0,0.0,0.0,0.0,0.0,0.0,3.0398,3.0871,3.1295,3.059,2.9929,2.964,3.0814,3.1044,3.2122,3.6988,4.1373,4.4701,4.5432,4.6148,4.6527,4.5923,4.5806,4.5745,4.5436,4.5021,4.4911,4.5535,4.5406,4.5168,4.4984,4.3907,4.2483,4.0778,3.9565,3.7719,3.4776,3.3469,3.1931,3.0002,2.7992,2.649,2.5661,2.4345,2.313,2.2149,2.1372,2.0828,2.0643,1.7017,1.5404,1.5517,0.8367,0.2991,-0.1062,-1.4267,-1.6087,-0.8278,0.4128,1.5028,2.4636,3.3734,3.7747,3.8008,3.6384,3.6209,3.6973,3.8167,3.7987,3.6969,0.0,0.0,0.0,0.0,0.0,0.0,0.0,0.0,0.0,0.0,0.0,0.0,0.0,0.0,0.0,0.0,0.0,0.0,0.0,0.0,3.5018,3.5474,3.5493,3.5493,3.5493,3.5089,3.4883,3.4883,3.4883,3.5089,3.5526,3.5892,3.5872,3.5526,3.5911,3.4891,3.291,3.2897,3.1934,3.0398,3.0398,3.0398,3.0398,3.0398,3.0398,3.0398,3.0398,0.0,0.0,0.0,0.0,0.0,0.0,0.0,3.0987,3.0533,3.0083,2.9929,3.0833,3.1948,3.418,3.9738,4.3047,4.5086,4.549,4.5668,4.5616,4.5274,4.5387,4.5319,4.4528,4.4565,4.4547,4.4002,4.4381,4.4364,4.3441,4.2358,4.0914,3.8909,3.733,3.5275,3.2405,3.0948,2.9522,2.7826,2.5563,2.396,2.3329,2.1893,2.0629,1.9687,1.9303,1.9199,1.9479,1.7202,1.6957,1.8692,1.2999,0.9043,0.6294,-0.7237,-1.1102,-0.6785,0.0401,1.0476,2.2543,3.2022,3.645,3.7228,3.6452,3.663,3.7544,3.9424,3.9788,3.9062,0.0,0.0,0.0,0.0,0.0,0.0,0.0,0.0,0.0,0.0,0.0,0.0,0.0,0.0,0.0,0.0,0.0,0.0,0.0,0.0,0.0,3.5493,3.5493,3.5493,3.5493,3.4653,3.4274,3.4416,3.4282,3.4647,3.5526,3.6175,3.6136,3.5532,3.6199,3.5147,3.2904,3.3064,3.2076,3.0398,3.0552,3.0533,3.0398,3.0398,3.0398,3.0398,3.0398,3.0417,3.0417,3.0417,0.0,0.0,0.0,0.0,3.034,3.0071,2.9994,3.0013,3.0167,3.2917,3.6839,4.1489,4.3374,4.4355,4.5355,4.5073,4.46,4.46,4.4852,4.4596,4.2992,4.3614,4.3814,4.2086,4.3159,4.3554,4.1711,4.0747,3.9346,3.7034,3.5032,3.2816,3.0169,2.851,2.7095,2.5983,2.3267,2.1493,2.1317,1.9445,1.8073,1.7488,1.7576,1.8061,1.8825,1.78,1.8822,2.1693,1.8131,1.4735,1.124,0.2741,-0.2266,-0.3933,0.0852,0.9993,2.2189,3.0825,3.5077,3.6119,3.6006,3.6396,3.7253,3.9227,4.0272,4.024,0.0,0.0,0.0,0.0,0.0,0.0,0.0,0.0,0.0,0.0,3.582,3.5781,0.0,0.0,0.0,0.0,0.0,0.0,3.5622,0.0,0.0,3.5493,3.5493,3.5493,3.5493,3.4653,3.4578,3.5333,3.4557,3.4655,3.5493,3.5622,3.5603,3.5493,3.5622,3.4641,3.2949,3.3699,3.2622,3.0475,3.1225,3.1071,3.0398,3.0398,3.0398,3.0398,3.0467,3.0487,3.0487,3.0487,3.0487,0.0,0.0,0.0,3.0129,2.8733,2.833,2.8503,2.924,3.2968,3.7309,4.0142,4.2066,4.3662,4.524,4.3993,4.2894,4.4322,4.4383,4.3878,4.2884,4.284,4.2724,4.1913,4.2026,4.1676,4.0202,3.9457,3.7733,3.4292,3.294,3.0862,2.7268,2.5956,2.4792,2.3339,2.0522,1.8879,1.8828,1.6727,1.5507,1.5424,1.6001,1.6838,1.7979,1.8118,1.9429,2.1949,2.3557,2.3601,2.2409,2.2133,1.5163,0.3862,1.533,2.4254,3.0947,3.3738,3.5597,3.6471,3.4857,3.5227,3.6889,3.8666,3.9918,4.0169,0.0,0.0,0.0,0.0,0.0,0.0,0.0,0.0,0.0,0.0,0.0,3.5996,0.0,0.0,0.0,3.5957,3.5868,3.5757,3.5622,3.5545,3.5493,3.5493,3.5493,3.5493,3.5493,3.4653,3.4385,3.4774,3.4385,3.4647,3.5518,3.5965,3.5935,3.5526,3.5968,3.4949,3.2929,3.3314,3.2275,3.0417,3.0821,3.0436,2.9717,3.0217,3.0102,2.9737,3.0294,3.0506,3.051,3.0549,3.052,3.0352,2.9429,0.0,0.0,0.0,2.8338,2.9027,3.0346,3.264,3.5386,3.8354,4.0046,4.1412,4.3085,4.2749,4.2316,4.3052,4.2846,4.2449,4.2235,4.248,4.2302,4.103,4.0715,4.02,3.8931,3.7369,3.5497,3.309,3.1348,2.9026,2.5815,2.4661,2.3165,2.0816,1.9073,1.7689,1.6899,1.5467,1.4643,1.4476,1.4592,1.5575,1.7491,1.8118,2.065,2.5117,2.7184,2.8624,2.9444,3.0423,2.5579,1.6749,2.3695,2.8797,3.2291,3.3644,3.4526,3.4843,3.3842,3.3527,3.3658,3.444,3.5064,3.4812,0.0,0.0,0.0,0.0,0.0,0.0,0.0,0.0,0.0,0.0,0.0,0.0,0.0,0.0,0.0,0.0,3.5898,3.5759,3.5597,3.5545,3.5493,3.5493,3.5493,3.5493,3.5493,3.4653,3.4314,3.4526,3.4314,3.4649,3.5526,3.6315,3.6267,3.5545,3.6353,3.5411,3.3237,3.3237,3.2256,3.0717,3.0494,2.989,2.914,2.9583,2.9506,2.9217,2.9956,3.0359,3.0563,3.0619,3.0595,3.0371,2.9264,2.9506,0.0,0.0,0.0,2.8987,3.0222,3.162,3.3383,3.6054,3.7714,3.9104,4.0777,4.1148,4.1254,4.1669,4.1373,4.105,4.1191,4.1772,4.1654,3.9883,3.9384,3.871,3.7134,3.5395,3.3709,3.2048,3.0348,2.8268,2.5444,2.4364,2.2722,1.9953,1.8481,1.7169,1.6075,1.4909,1.4162,1.3874,1.4274,1.5337,1.7194,1.8883,2.2219,2.7196,2.9256,3.143,3.3567,3.4449,3.2433,2.8385,3.0057,3.1221,3.1949,3.2625,3.2872,3.2819,3.2066,3.0424,2.8298,2.7336,2.7145,2.6572,0.0,0.0,0.0,0.0,0.0,0.0,0.0,0.0,0.0,0.0,0.0,0.0,3.5996,3.5996,3.5996,3.5996,3.5819,3.5646,3.5509,3.5493,3.5493,3.5493,3.5493,0.0,3.5493,3.4653,3.4614,3.543,3.4614,3.4639,3.5512,3.632,3.6281,3.5545,3.6353,3.5738,3.4122,3.4122,3.316,3.1564,3.0737,2.989,2.9006,2.8294,2.8506,2.9217,2.9387,2.9982,3.0692,3.0693,3.0681,3.0379,2.8699,2.8714,2.8884,0.0,0.0,0.0,2.7148,2.9543,3.2247,3.3068,3.511,3.7377,3.9046,3.8957,3.8954,4.0532,4.0374,3.9899,3.9672,4.0377,4.038,3.8417,3.8077,3.7114,3.4305,3.3833,3.2905,3.0671,3.0283,2.9199,2.6468,2.5317,2.3959,2.2017,1.9,1.7202,1.6901,1.4779,1.3554,1.3267,1.5528,1.6781,1.6954,2.1104,2.4234,2.6186,2.9434,3.2084,3.4277,3.568,3.6112,3.5794,3.5292,3.3859,3.1865,3.1222,3.0975,3.0726,2.8878,2.5103,2.0266,1.6795,1.5656,1.542,0.0,0.0,0.0,0.0,0.0,0.0,0.0,0.0,0.0,0.0,0.0,0.0,0.0,3.5996,3.5996,3.5996,3.5811,3.5649,3.5578,3.5526,3.5493,3.5493,3.5493,3.5493,3.5493,3.5185,3.4924,3.4667,3.4347,3.4648,3.5512,3.5782,3.6051,3.6281,3.657,3.5468,3.3372,3.3372,3.241,3.0852,3.0533,2.989,2.9121,2.941,2.9371,2.9289,2.9948,3.0405,3.0711,3.0796,3.0769,3.0399,2.8704,2.9106,2.9823,2.7892,2.7565,2.7695,2.707,2.8207,2.9878,3.1142,3.2106,3.3339,3.5578,3.5706,3.5798,3.7335,3.744,3.7253,3.7179,3.8707,3.9415,3.7519,3.6457,3.5391,3.392,3.2885,3.1814,3.0569,2.9959,2.8643,2.6153,2.5081,2.3327,2.0293,1.9033,1.7541,1.5514,1.4668,1.3929,1.3213,1.408,1.5309,1.6843,2.0615,2.2805,2.3311,2.704,2.7074,2.3852,2.421,2.3124,2.0954,2.0089,2.5013,3.3365,2.9622,2.9686,3.1192,2.1842,1.5185,1.0506,0.7364,0.5709,0.4383,0.0,0.0,0.0,0.0,0.0,0.0,0.0,0.0,0.0,3.5996,0.0,0.0,0.0,0.0,3.5976,3.5918,3.5791,3.5661,3.5584,3.5526,3.5493,3.5493,3.5493,3.5493,3.5493,3.5213,3.477,3.4202,3.3921,3.4058,3.4641,3.4641,3.4916,3.5422,3.5416,3.4661,3.3314,3.3026,3.2102,3.0794,3.0198,2.9621,2.9171,2.9786,2.9721,2.9387,3.0338,3.0694,3.0711,3.0855,3.0801,3.0466,2.9104,2.904,2.9246,2.8175,2.7851,2.7656,2.6758,2.7344,2.8475,2.9533,2.9964,3.0649,3.259,3.3182,3.3582,3.4451,3.5194,3.5574,3.5173,3.664,3.7463,3.5993,3.5166,3.4308,3.3116,3.2124,3.1324,3.0855,3.0142,2.8971,2.7072,2.566,2.3615,2.0597,1.9501,1.7862,1.5163,1.4637,1.4337,1.4113,1.3712,1.4772,1.7218,1.9468,2.0158,1.9341,2.122,1.9663,1.508,1.442,1.2698,1.0277,0.9599,1.5935,2.6433,2.2384,2.2138,2.3187,1.317,0.6305,0.1584,-0.2823,-0.5523,-0.7843,0.0,0.0,0.0,0.0,0.0,0.0,0.0,0.0,3.5996,3.5996,0.0,0.0,0.0,0.0,0.0,3.5723,3.5713,3.5641,3.5526,3.5493,3.5493,3.5493,3.5493,3.5493,3.5493,3.4648,3.4183,3.4164,3.3287,3.2865,3.2852,3.2852,3.2878,3.2904,3.2897,3.3353,3.4064,3.3218,3.241,3.1545,2.9833,2.914,2.919,2.928,2.9368,2.9552,3.0472,3.0769,3.073,3.0869,3.0801,3.0586,2.9824,2.8418,2.7031,2.7012,2.6992,2.6816,0.0,0.0,0.0,2.8164,2.873,2.948,3.0285,3.1488,3.2357,3.2127,3.3758,3.4879,3.371,3.4163,3.4432,3.3632,3.4146,3.3893,3.1769,3.1448,3.1402,3.1387,3.0846,3.0103,2.9241,2.7034,2.4987,2.3299,2.0565,1.808,1.5911,1.4731,1.459,1.5618,1.4735,1.5428,1.7766,1.7669,1.6448,1.4148,1.1897,1.0105,0.8685,0.6845,0.5826,0.5384,0.5266,0.7125,1.0194,0.9432,0.8178,0.6471,0.3119,-0.1315,-0.6644,-1.3782,-1.8066,-2.0876,0.0,0.0,0.0,0.0,0.0,3.5996,3.5996,3.5996,3.5996,0.0,0.0,0.0,3.5996,3.5996,3.5918,3.5723,3.5713,3.5641,3.5526,3.5493,3.5493,3.5493,3.5493,3.5493,3.5493,3.4661,3.3884,3.3262,3.2435,3.203,3.203,3.203,3.2346,3.2891,3.2891,3.2718,3.2372,3.2122,3.191,3.1602,3.0487,3.0429,3.091,3.0383,3.0202,3.0312,3.0616,3.0779,3.0849,3.0878,3.0882,3.0703,2.9863,2.8848,2.7812,2.7187,2.6992,2.6816,2.5937,0.0,0.0,0.0,0.0,0.0,2.9181,2.8954,2.8941,3.1077,3.1355,3.1229,3.1351,3.1862,3.202,3.1254,3.2213,3.266,3.1561,3.1407,3.1207,3.0734,3.0154,2.9281,2.7993,2.6451,2.4563,2.2265,2.027,1.8017,1.5526,1.3036,1.196,1.2464,1.2969,1.3701,1.4572,1.3841,1.1346,0.7126,0.1693,-0.2985,-0.7091,-1.3602,-1.5387,-1.3359,-1.3699,-1.3003,-1.0955,-0.1993,0.2203,0.2323,-0.5116,-1.1421,-1.6637,-1.9736,-2.3041,-2.6458,0.0,0.0,0.0,3.5996,3.5996,3.5996,3.5996,3.5996,3.5996,0.0,0.0,0.0,3.5996,3.5996,3.5937,3.5801,3.5732,3.5661,3.5565,3.5545,3.5545,3.5493,3.5545,3.5545,3.5493,3.4289,3.3416,3.2891,3.173,3.1153,3.1153,3.1153,3.1403,3.1864,3.1852,3.1602,3.116,3.116,3.116,3.1121,3.059,3.0929,3.1698,3.1646,3.1429,3.1209,3.165,3.1624,3.1305,3.1,3.0892,3.0742,2.9863,2.9004,2.8125,2.7266,2.6724,2.6318,2.5838,2.5684,2.5879,2.6777,0.0,0.0,2.8346,2.775,2.7426,2.9807,2.9665,2.9232,2.966,3.008,3.0117,2.9505,3.0282,3.1084,3.1342,3.1389,3.1191,3.0817,3.0236,2.9406,2.8338,2.7004,2.5122,2.2383,2.0631,1.8205,1.4984,1.1558,0.996,1.0368,0.9635,0.9813,1.1083,0.8473,0.476,0.0074,-0.6668,-1.2193,-1.6599,-2.3224,-2.5242,-2.348,-2.3433,-2.3399,-2.2577,-1.4431,-0.9542,-0.7824,-1.2825,-1.7473,-2.1411,-2.3489,-2.6505,-3.0018,0.0,0.0,3.5996,3.5996,3.5996,3.5996,3.5996,3.5996,3.5996,0.0,3.5996,3.5996,3.5996,3.5996,3.5976,3.5918,3.5772,3.5663,3.5603,3.5603,3.5584,3.5493,3.5565,3.5584,3.5493,3.3789,3.2904,3.2891,3.1218,3.0398,3.0398,3.0398,3.0398,3.0398,3.0398,3.0398,3.0398,3.0398,3.0398,3.0398,3.0398,3.0987,3.1929,3.2748,3.2629,3.2168,3.298,3.2734,3.191,3.115,3.0903,3.0742,2.9863,2.9062,2.8242,2.7285,2.6416,2.5739,2.5718,2.5721,2.5957,2.6797,2.6484,0.0,2.7988,2.7542,2.7219,2.8636,2.8515,2.8255,2.8555,2.8737,2.8729,2.8444,2.8682,2.9448,3.0903,3.1169,3.116,3.1077,3.0523,2.9917,2.9315,2.798,2.6012,2.3167,2.1117,1.8085,1.3492,0.9541,0.7685,0.8286,0.5118,0.4505,0.6771,0.2007,-0.2614,-0.7053,-1.3661,-1.8599,-2.1995,-2.5923,-2.7631,-2.7564,-2.6923,-2.6973,-2.7345,-2.573,-2.3244,-2.0281,-1.9658,-2.0754,-2.3073,-2.5813,-2.8951,-3.2077,0.0,3.5996,3.5996,3.5996,3.5996,3.5996,3.5996,3.5996,3.5996,3.5996,3.5996,3.5996,3.5996,3.5996,3.5976,3.5918,3.5773,3.5663,3.5605,3.5603,3.5584,3.5493,3.5565,3.5584,3.5493,3.3795,3.2904,3.2904,3.1218,3.0398,3.0398,3.0398,3.0398,3.0398,3.0398,3.0398,3.0398,3.0398,3.0398,3.0398,3.0398,3.1371,3.2769,3.2333,3.2528,3.2968,3.2578,3.2324,3.2031,3.1181,3.0892,3.0742,2.9863,2.9473,2.9043,2.7461,2.6872,2.6571,2.5887,2.6205,2.6777,2.6953,2.7402,0.0,2.9023,2.8023,2.7312,2.883,2.7838,2.6999,2.7884,2.7912,2.8023,2.8759,2.8665,2.8733,2.937,2.9978,3.0101,2.9534,2.9413,2.9149,2.8412,2.6745,2.5154,2.3771,2.033,1.5163,0.7934,0.4092,0.2092,0.197,-0.0072,-0.109,-0.0807,-0.489,-0.9463,-1.4475,-1.9836,-2.438,-2.8129,-2.9822,-3.0432,-3.0137,-2.9217,-2.8871,-2.8917,-2.7969,-2.6354,-2.4365,-2.3435,-2.414,-2.5955,-2.8042,-3.0606,-3.3353,3.5996,3.5996,3.5996,3.5996,3.5996,3.5996,3.5996,3.5996,3.5996,3.5996,3.5996,3.5996,3.5996,3.5996,3.5996,3.5957,3.5859,3.5795,3.574,3.5757,3.5699,3.5565,3.5622,3.5603,3.5493,3.3795,3.2891,3.2904,3.1218,3.0398,3.0398,3.0398,3.0398,3.0398,3.0398,3.0398,3.0398,3.0398,3.0398,3.0398,3.0398,3.1218,3.2415,3.2028,3.248,3.3207,3.2469,3.1914,3.1543,3.1543,3.1269,3.0742,2.9863,2.9609,2.9258,2.7519,2.7285,2.7419,2.6576,2.6958,2.7612,2.7634,2.7988,0.0,0.0,2.8516,2.7998,2.9569,2.8,2.6638,2.7588,2.7382,2.7218,2.759,2.7691,2.7871,2.8375,2.9091,2.9564,2.9558,2.9265,2.8882,2.841,2.7364,2.5088,2.1224,1.7061,1.1094,0.2931,-0.0904,-0.4266,-0.7364,-0.8746,-0.9926,-1.0946,-1.3259,-1.6365,-2.0274,-2.4611,-2.8003,-3.0383,-3.1602,-3.1864,-3.1295,-3.0492,-3.0227,-3.0208,-2.9236,-2.8306,-2.7439,-2.6887,-2.71,-2.8021,-3.0208,-3.2158,-3.3948,3.5996,3.5996,3.5996,3.5996,3.5996,3.5996,3.5996,3.5996,3.5996,3.5996,3.5996,3.5937,3.5762,3.5898,3.5996,3.5996,3.5781,3.5789,3.6142,3.5828,3.5557,3.5364,3.5573,3.5488,3.5012,3.3776,3.2987,3.2673,3.1314,3.0552,3.0398,3.0398,3.0494,3.0641,3.0456,3.0494,3.0641,3.0456,3.0398,3.0417,3.0417,3.0987,3.1838,3.1898,3.251,3.3209,3.2478,3.1758,3.1269,3.1953,3.1621,3.0801,3.0273,2.998,2.9531,2.7969,2.7969,2.8281,2.7461,2.7971,2.8683,2.8587,2.8809,2.9199,0.0,0.0,0.0,2.9883,2.8163,2.6628,2.7191,2.689,2.6526,2.6392,2.664,2.706,2.7611,2.8277,2.9001,2.981,2.9244,2.8731,2.8696,2.8206,2.5342,1.9131,1.3399,0.666,-0.1548,-0.6133,-1.0692,-1.5606,-1.6699,-1.8092,-2.0006,-2.0822,-2.253,-2.5182,-2.8425,-3.0516,-3.154,-3.2697,-3.2811,-3.2109,-3.145,-3.1236,-3.1235,-3.0192,-2.9629,-2.9409,-2.9344,-2.9279,-2.9453,-3.1659,-3.3158,-3.4149,3.5996,3.5996,3.5996,3.5996,3.5996,3.5996,3.5996,3.5996,3.5996,3.5996,3.5996,3.5703,3.4922,3.5547,3.5996,3.5996,3.5234,3.5409,3.6947,3.5618,3.4661,3.4464,3.5243,3.4916,3.3231,3.3763,3.3314,3.1833,3.166,3.116,3.0398,3.0398,3.0814,3.1525,3.0737,3.0833,3.1506,3.0737,3.0417,3.0487,3.0487,3.1056,3.1908,3.1962,3.257,3.3275,3.25,3.2148,3.207,3.2168,3.1621,3.1016,3.1699,3.1367,3.0566,2.959,2.9375,2.9258,2.8398,2.9354,3.0407,2.9648,3.0605,3.1582,3.0918,0.0,2.9178,2.8513,0.0,2.6562,2.6242,0.0,0.0,2.651,2.6475,2.6515,2.6945,2.7299,2.7933,2.9065,2.8453,2.8235,2.8976,2.7877,2.5438,2.1415,1.1225,0.2069,-0.5161,-1.2372,-1.6778,-1.7747,-1.9254,-2.107,-2.3252,-2.4517,-2.6488,-2.9161,-3.1183,-3.2709,-3.3752,-3.415,-3.3977,-3.335,-3.2499,-3.1987,-3.1679,-3.1218,-3.0351,-2.9406,-2.938,-2.9569,-3.0053,-3.1532,-3.2893,-3.412,3.5996,3.5996,3.5996,3.5996,3.5996,3.5996,3.5996,3.5996,3.5996,3.5996,3.5996,3.5859,3.5488,3.5781,3.5996,3.5996,3.5644,3.5723,3.6465,3.582,3.5351,3.5234,3.553,3.5303,3.4474,3.3795,3.3103,3.2391,3.1429,3.1025,3.1141,3.0641,3.0871,3.166,3.0794,3.059,3.0929,3.0552,3.0448,3.0498,3.0549,3.0811,3.121,3.1241,3.1857,3.2715,3.2851,3.2598,3.2207,3.2207,3.1953,3.1621,3.1484,3.1855,3.209,3.0742,3.0703,3.0918,3.0059,3.0703,3.1445,3.0566,3.1289,3.1973,3.1094,3.0535,3.0067,2.9641,0.0,0.0,0.0,0.0,0.0,0.0,2.6188,2.6354,2.6967,2.6373,2.6544,2.847,2.8439,2.8403,2.8776,2.8073,2.619,2.2798,1.2305,0.3309,-0.3113,-1.2777,-1.9183,-2.1434,-2.3139,-2.4863,-2.6672,-2.8531,-3.0251,-3.1853,-3.3544,-3.4513,-3.4803,-3.487,-3.4524,-3.3855,-3.3027,-3.2453,-3.2022,-3.1055,-3.0166,-2.9406,-2.9406,-2.9664,-3.0195,-3.1725,-3.3006,-3.4087,3.5996,3.5996,3.5996,3.5996,3.5996,3.5996,3.5996,3.5996,3.5996,3.5996,3.6211,3.6172,3.5703,3.6504,3.6875,3.6406,3.6562,3.6719,3.6719,3.6269,3.5859,3.5566,3.5677,3.5493,3.4936,3.384,3.3064,3.2602,3.1371,3.1102,3.1718,3.0821,3.0987,3.1987,3.0891,3.0533,3.0737,3.0494,3.0448,3.0529,3.0824,3.1028,3.1086,3.0845,3.1364,3.2246,3.2598,3.248,3.2207,3.2207,3.2031,0.0,3.1387,3.1934,3.248,3.1269,3.1523,3.2012,3.1133,3.1699,3.2266,3.1172,3.1562,0.0,0.0,0.0,0.0,3.0325,2.8894,0.0,0.0,0.0,2.5565,2.5522,0.0,2.5788,2.6376,2.5687,2.6016,2.8435,2.8783,2.8724,2.8455,2.7919,2.6749,2.4744,1.3345,0.3577,-0.3105,-1.3809,-2.1541,-2.5456,-2.6557,-2.7963,-2.9858,-3.1317,-3.2562,-3.3552,-3.501,-3.5612,-3.546,-3.5408,-3.5026,-3.4358,-3.3586,-3.2951,-3.2353,-3.1048,-2.9929,-2.9132,-2.93,-2.9444,-2.976,-3.1654,-3.3042,-3.4083,3.5996,3.5996,3.5996,3.5996,3.5996,3.5996,3.5996,3.5996,3.5996,3.5996,3.6738,3.6621,3.4922,3.7754,3.9101,3.7402,3.8027,3.8516,3.8516,3.6934,3.5586,3.4687,3.5449,3.5032,3.321,3.3884,3.3468,3.184,3.1705,3.1705,3.1782,3.084,3.1275,3.2795,3.1141,3.0871,3.1602,3.0756,3.0448,3.0587,3.1491,3.1987,3.205,3.121,3.1445,3.209,3.1269,0.0,0.0,3.2207,3.1641,0.0,0.0,0.0,0.0,3.0918,3.1523,3.2012,0.0,0.0,0.0,3.1309,0.0,0.0,0.0,0.0,3.0392,0.0,0.0,2.7298,2.6227,2.5236,2.4481,2.4302,2.4412,0.0,0.0,2.538,2.6865,2.9284,2.9445,2.9014,2.8115,2.7128,2.6906,2.7785,1.3274,0.0667,-0.7921,-1.7631,-2.4993,-2.947,-2.8931,-2.9839,-3.2539,-3.2187,-3.269,-3.4081,-3.5181,-3.5756,-3.5877,-3.5877,-3.5616,-3.5119,-3.4376,-3.3603,-3.2787,-3.1507,-2.991,-2.8404,-2.9132,-2.8963,-2.8636,-3.1127,-3.2871,-3.4113,3.5996,3.5996,3.5996,3.5996,3.5996,3.5996,3.5996,3.6484,3.707,3.7656,3.8476,3.9023,3.9004,4.0059,4.0527,3.9922,4.0156,4.0078,3.9492,3.8379,3.7324,3.6426,3.6074,3.5561,3.4835,3.448,3.373,3.2596,3.1994,3.1718,3.1768,3.0833,3.1006,3.2064,3.091,3.0552,3.0833,3.0533,3.0448,3.0552,3.0945,3.1499,3.1973,3.1191,3.1445,3.2168,3.1875,3.1953,0.0,3.2207,3.1992,3.1816,3.2109,3.2363,3.2559,3.2559,3.2732,0.0,0.0,0.0,3.3746,3.2166,0.0,0.0,0.0,0.0,0.0,0.0,0.0,2.8093,2.7055,2.6003,2.5091,2.4502,2.4444,2.4561,0.0,2.5255,2.6107,2.7281,2.7611,2.7552,2.7069,2.6252,2.618,2.7195,1.7156,0.6935,-0.2352,-1.1086,-2.0492,-3.0687,-3.0993,-3.1486,-3.2561,-3.3029,-3.3029,-3.2596,-3.4156,-3.4953,-3.5057,-3.5493,-3.5548,-3.5203,-3.4049,-3.2794,-3.1408,-2.9225,-2.7476,-2.6107,-2.5969,-2.655,-2.7779,-3.0679,-3.2504,-3.3722,3.5996,3.5996,3.5996,3.5996,3.5996,3.5996,3.5996,3.7266,3.8437,3.8984,4.0332,4.1348,4.1601,4.2187,4.2305,4.168,4.2187,4.1933,4.0469,3.9844,3.9004,3.7812,3.6894,3.6342,3.6235,3.4999,3.3928,3.3071,3.2449,3.2006,3.1788,3.116,3.116,3.166,3.0794,3.0398,3.0398,3.0398,3.0417,3.0483,3.0607,3.1228,3.1992,3.1191,3.1445,3.2168,0.0,3.1738,3.1738,3.1738,3.1738,3.1738,3.1738,3.209,3.2557,3.2822,3.3102,3.3301,3.3323,3.3899,0.0,3.2903,3.2951,0.0,3.166,0.0,3.1059,0.0,0.0,0.0,2.8369,2.6857,2.5534,2.5013,2.463,2.4461,0.0,2.4777,2.511,2.5779,2.6137,2.628,2.613,2.5296,2.5141,2.6079,1.859,0.9743,0.0014,-0.8508,-1.8761,-3.1147,-3.186,-3.21,-3.2201,-3.2837,-3.2703,-3.1811,-3.3633,-3.4521,-3.4564,-3.4562,-3.4294,-3.3754,-3.207,-3.0472,-2.885,-2.6117,-2.4271,-2.3044,-2.2736,-2.379,-2.6021,-2.9679,-3.2283,-3.4118,3.5996,3.5996,3.5996,3.5996,3.5996,3.5996,3.5996,3.8262,3.9961,3.9961,4.2226,4.3516,4.2676,4.4062,4.4394,4.2734,4.4101,4.4023,4.1543,4.1308,4.0508,3.8809,3.7812,3.7266,3.7207,3.5474,3.4122,3.3211,3.2987,3.2506,3.1725,3.1667,3.1641,3.1602,3.0775,3.0398,3.0398,3.0398,3.0398,3.0429,3.0556,3.1234,3.2108,3.123,3.1445,3.209,3.1211,3.0898,3.0898,3.0898,3.0898,3.0918,3.0957,3.0957,3.1103,3.1849,3.2683,3.335,3.3273,3.3895,3.4365,3.357,0.0,0.0,0.0,0.0,3.196,0.0,0.0,0.0,0.0,2.7777,2.5811,2.5719,2.4875,2.4303,2.4497,2.4098,2.4118,2.5004,2.524,2.5327,2.5306,2.4281,2.393,2.4728,1.7978,0.9335,-0.0989,-0.9629,-1.9534,-3.1006,-3.169,-3.1816,-3.1711,-3.1804,-3.1831,-3.1828,-3.3617,-3.4429,-3.429,-3.3061,-3.1887,-3.0746,-2.8439,-2.6592,-2.5072,-2.2243,-2.044,-1.9448,-1.966,-2.1112,-2.373,-2.8437,-3.2311,-3.5238,3.5996,3.5996,3.5996,3.5996,3.5996,3.5996,3.5996,3.8769,4.0879,4.0879,4.3652,4.5547,4.5312,4.5703,4.5781,4.5332,4.5703,4.541,4.4101,4.2812,4.1621,4.0586,3.8457,3.7266,3.7207,3.6,3.4662,3.3211,3.2987,3.2199,3.0821,3.0775,3.0737,3.0717,3.0494,3.0398,3.0398,3.0398,3.0417,3.0479,3.0565,3.1177,3.1972,0.0,3.1445,3.209,3.1211,3.0898,3.0898,3.0898,3.0898,3.1016,3.166,3.1875,3.2001,3.2759,3.3555,3.4183,3.4164,3.47,3.5058,3.4378,3.4187,3.3988,0.0,0.0,0.0,0.0,0.0,0.0,0.0,0.0,2.7547,2.6136,2.5192,2.466,2.4725,2.4896,2.5063,2.5086,2.5488,2.5247,2.396,2.375,2.3893,2.4447,2.3388,1.5873,0.0125,-0.3734,-1.3327,-3.0482,-3.215,-3.2454,-3.1787,-3.2336,-3.2322,-3.1738,-3.3455,-3.3523,-3.2062,-3.0201,-2.827,-2.6278,-2.3169,-2.0992,-1.9379,-1.7646,-1.6898,-1.6784,-1.7168,-2.1129,-2.7166,-3.1151,-3.3698,-3.5232,3.5996,3.6309,3.6445,3.6074,3.7266,3.8144,3.7754,3.9687,4.1601,4.2715,4.4863,4.6308,4.6308,4.6308,4.6308,4.6308,4.6308,4.5937,4.5058,4.4082,4.2988,4.1777,3.9609,3.8242,3.7812,3.6113,3.4549,3.3211,3.3038,3.2083,3.0467,3.0814,3.0775,3.0398,3.0398,3.0398,3.0398,3.0398,3.0467,3.0548,3.0591,3.0959,0.0,3.1064,3.1191,3.1562,3.1074,3.0898,3.0898,3.0898,3.0898,3.1055,3.1934,3.2207,3.2418,3.3531,3.4165,3.4562,3.4883,3.5224,3.5416,3.507,3.4998,3.482,3.4056,3.3828,3.379,0.0,3.3071,3.2212,0.0,0.0,2.7695,2.5793,2.5394,2.534,2.536,2.5333,2.5323,2.5323,2.5247,2.4676,2.3345,2.3653,2.3952,2.4104,2.5263,1.9547,0.4727,-0.0326,-0.9848,-2.5297,-3.095,-3.3081,-3.1765,-3.2087,-3.2006,-3.1542,-3.2571,-3.2348,-3.0941,-2.8255,-2.5806,-2.3482,-2.0318,-1.8208,-1.6977,-1.5757,-1.5394,-1.572,-1.7851,-2.2525,-2.8473,-3.2119,-3.4301,-3.5403,3.6172,3.6777,3.7051,3.6309,3.8769,4.0781,4.0605,4.1308,4.2617,4.4726,4.5859,4.6426,4.6308,4.6308,4.6308,4.6308,4.6308,4.5976,4.5215,4.4961,4.4141,4.2637,4.0742,3.9375,3.8613,3.5957,3.4133,3.3195,3.2947,3.1999,3.0417,3.1179,3.1141,3.0398,3.0398,3.0398,3.0398,3.0398,3.0487,3.0606,3.0618,3.0734,3.0907,3.0894,3.0898,3.0898,3.0898,3.0898,3.0898,3.0898,3.0976,3.1191,3.1953,3.2344,3.2793,3.4178,3.4614,3.4783,3.5411,3.5545,3.5526,3.5584,3.5641,3.5535,3.4898,3.4705,3.4695,3.4732,3.343,3.2492,0.0,0.0,2.7431,2.5523,2.5673,2.6074,2.6206,2.5693,2.542,2.571,2.5091,0.0,2.3476,2.3857,2.4065,2.3799,2.5095,2.126,1.07,0.0,-0.8278,-1.8241,-2.891,-3.3649,-3.1888,-3.1763,-3.1742,-3.1804,-3.1802,-3.1277,-3.0159,-2.6631,-2.376,-2.1437,-1.8583,-1.6989,-1.6459,-1.5566,-1.5462,-1.6319,-2.1148,-2.5169,-2.8632,-3.2183,-3.4374,-3.5551,3.707,3.7207,3.7246,3.7109,3.8164,4.0195,4.3594,4.4844,4.5312,4.5039,4.6387,4.7109,4.6387,4.6308,4.6308,4.6308,4.6308,4.623,4.6074,4.4726,4.3789,4.3496,4.0488,3.8769,3.8594,3.5918,3.4086,3.3199,3.2345,3.1398,3.0398,3.0552,3.0552,3.0398,3.0398,3.0398,3.0398,3.0467,3.0525,3.0602,3.0659,3.078,3.0905,3.0897,3.0898,3.0898,3.0898,3.0898,3.0898,3.0898,3.1387,3.1992,3.2148,3.3144,3.4295,3.4471,3.4983,3.5493,3.5509,3.5526,3.5493,3.5526,3.5622,3.5669,3.5548,3.5574,3.5627,3.5538,3.5203,3.4728,3.4122,0.0,0.0,2.7651,2.6723,2.638,2.6788,2.661,2.6431,2.6485,2.652,2.6068,2.4947,2.4302,2.4036,2.4252,2.4838,2.1752,1.3875,0.0,-0.8001,0.0,-2.7631,-3.3839,0.0,0.0,-3.3738,-3.4423,-3.3339,-3.1182,-2.8003,-2.418,-2.0989,-1.823,-1.5386,-1.488,-1.5954,-1.5735,-1.7288,-2.0472,-2.752,-2.9908,-2.967,-3.2464,-3.4245,-3.5309,3.7969,3.834,3.8652,3.8652,4.0469,4.2773,4.5293,4.6797,4.7344,4.6465,4.6699,4.6582,4.5723,4.6035,4.6308,4.6308,4.6308,4.6308,4.6308,4.5098,4.418,4.3711,4.0859,3.9062,3.8613,3.5527,3.3685,3.3208,3.181,3.0898,3.0448,3.0448,3.0467,3.0506,3.0506,3.0506,3.0506,3.0544,0.0,3.0641,3.0679,3.0787,3.0898,3.0898,3.0898,3.0898,3.0898,3.0898,3.0976,3.1426,3.1855,3.2342,3.3179,3.4003,3.471,3.5035,3.5374,3.5626,3.5566,3.5545,3.5493,3.5493,3.5603,3.5701,3.5668,3.5775,3.5879,3.5821,3.5393,3.4465,3.2627,3.1621,0.0,0.0,0.0,0.0,2.7532,2.7305,2.7063,2.6923,2.6995,2.6535,2.5273,2.4521,2.4196,2.4399,2.5259,2.4127,2.0307,0.0,-0.5031,0.0,0.0,0.0,-3.275,0.0,-3.3185,-3.363,-3.2328,-3.0298,-2.7588,-2.4226,-2.1781,-1.9968,-1.8209,-1.8375,-2.0006,-2.0758,-2.2091,-2.4145,-2.8227,-2.9842,-3.0128,-3.2025,-3.3616,-3.4918,3.9141,3.9707,4.0234,4.0391,4.2812,4.5137,4.6387,4.7734,4.8437,4.7949,4.7129,4.623,4.5371,4.5898,4.6308,4.6308,4.6308,4.6308,4.6308,4.5312,4.4414,4.373,4.1074,3.9297,3.8613,3.5351,3.3516,0.0,0.0,0.0,3.0506,3.0698,3.0714,3.0595,3.0595,3.0595,0.0,0.0,3.0641,3.0691,3.0733,3.0812,3.0898,3.0898,3.0898,3.0918,3.1113,3.1172,3.1309,3.2168,3.232,3.2377,3.365,3.4288,3.4674,3.5175,3.5415,3.5499,3.5431,3.5407,3.5398,3.5398,3.5556,3.5656,3.5611,3.5735,3.5859,3.5862,3.527,3.4038,3.1725,3.1648,0.0,0.0,0.0,0.0,2.8305,2.7624,2.7255,2.7429,2.7176,2.6663,2.5893,2.5114,2.4682,2.4701,2.5483,2.5065,2.3033,0.0,0.0,0.0,0.0,-3.3024,-3.2781,0.0,-3.224,-3.2446,-3.1021,-2.938,-2.7641,-2.5443,-2.4109,-2.3455,-2.2768,-2.3446,-2.5139,-2.6842,-2.7486,-2.7504,-2.8439,-2.951,-3.0677,-3.1635,-3.301,-3.4499,4.0957,4.1016,4.1308,4.2031,4.3086,4.4648,4.7109,4.7617,4.7988,4.8691,4.8027,4.7148,4.6269,4.625,4.6308,4.6308,4.6308,4.6308,4.6308,4.4746,4.3789,4.3691,4.0508,3.8672,3.8594,3.5898,3.4068,0.0,0.0,3.2045,0.0,3.1302,3.1293,3.0601,0.0,0.0,0.0,3.0655,3.0679,3.0706,3.0825,3.0897,3.0898,3.0898,3.0898,3.0996,3.1797,3.207,3.2207,3.3008,3.2718,3.2064,3.2189,3.3295,3.4457,3.4159,3.4613,3.5171,3.487,3.4944,3.5138,3.5138,3.5377,3.5599,3.5592,3.5665,3.5708,3.5721,3.5593,3.5185,3.4139,3.332,3.2499,0.0,0.0,0.0,0.0,2.7416,2.6771,2.8453,2.7422,2.6984,2.8082,2.6765,2.5828,2.5746,2.4766,2.1295,0.0,0.0,0.0,-1.3907,-2.6361,-3.3166,-3.3675,-3.2452,-3.2206,-3.2902,-3.0959,-2.9083,-2.7374,-2.7317,-2.7257,-2.7099,-2.6765,-2.7561,-2.9263,-3.1763,-3.1886,-3.0616,-3.1846,-3.2059,-3.1668,-3.1927,-3.2863,-3.4167,4.2695,4.2695,4.2969,0.0,0.0,0.0,0.0,4.7598,4.7734,4.8066,4.7812,4.7266,4.6406,4.6308,4.6308,4.6308,4.6308,4.6308,4.6308,4.4668,4.3691,4.3691,4.043,3.8594,3.8594,3.6016,3.4209,0.0,0.0,0.0,0.0,0.0,0.0,0.0,0.0,3.1836,3.2246,3.1781,3.1607,3.1558,3.1088,3.0898,3.0898,3.0898,3.1211,3.1738,3.207,3.2519,3.2967,3.3252,3.3093,3.276,3.2721,3.3159,3.3582,3.3226,3.3718,3.4295,3.3999,3.449,3.5105,3.5105,3.5362,3.5592,3.5565,3.5631,3.5682,3.5639,3.5201,3.4706,3.4321,3.3117,3.2085,3.1792,0.0,0.0,0.0,2.876,2.8517,2.9155,2.86,2.8356,2.8813,2.7713,2.6993,2.7084,2.3459,1.8972,0.0,0.0,0.0,-1.4251,0.0,-3.1651,-3.2408,-3.1372,-3.1337,-3.2272,-3.1018,-2.9916,-2.9042,-2.9066,-2.9343,-2.9863,-3.0882,-3.183,-3.2776,-3.3579,-3.3643,-3.3134,-3.1981,-3.1777,-3.2051,-3.1433,-3.2228,-3.3733,4.4082,0.0,4.4355,0.0,4.5371,4.5879,4.7363,4.7383,4.7305,4.7578,4.7383,4.6973,4.6367,4.6308,4.6308,4.6308,4.6308,4.6308,4.6308,4.4668,4.3691,4.3691,4.043,0.0,3.8594,3.6289,3.4625,3.3669,3.3671,0.0,0.0,0.0,0.0,0.0,3.1816,3.2129,3.2637,3.2051,3.1816,3.1758,3.1152,3.0898,3.0898,3.0898,3.1289,3.1855,3.2109,3.2705,3.3356,3.3315,3.3436,3.3499,3.2878,3.2609,3.2497,3.2126,3.2576,3.3204,3.3177,3.3865,3.4675,3.4924,3.5277,3.5565,3.5545,3.5603,3.5551,3.5192,3.4555,3.3874,3.3359,3.1822,3.0608,3.0479,0.0,0.0,0.0,2.8951,2.8969,2.88,2.6987,2.6461,2.8242,2.6169,2.584,2.8509,2.1966,0.0,0.0,0.0,0.0,0.0,0.0,0.0,-3.1385,-3.0496,-3.0499,-3.1445,-3.0842,-3.0587,-3.0697,-3.1293,-3.183,-3.2411,-3.3751,-3.4596,-3.4998,-3.4777,-3.4725,-3.4588,-3.2355,-3.1958,-3.25,-3.1385,-3.2082,-3.3751,4.498,4.498,4.5254,4.6133,4.6289,4.6582,4.7461,4.6875,4.6621,4.748,4.6855,4.6308,4.6308,4.6308,4.6308,4.6308,4.6308,4.6308,4.6308,4.4668,4.3691,0.0,0.0,3.8594,3.8594,3.6875,3.5527,3.457,0.0,0.0,3.1977,0.0,3.0918,3.0918,3.0918,3.0918,3.0937,3.0918,3.0918,3.0918,3.0898,3.0898,3.0898,3.0898,3.0918,3.1035,3.1894,3.2661,3.3306,3.3306,3.3736,3.3961,3.2035,3.1378,3.1232,3.0768,3.1185,3.1942,3.2477,3.3011,3.3639,3.4507,3.5105,3.5526,3.5584,3.5565,3.522,3.4225,3.369,3.2916,3.1336,2.9466,2.801,2.7622,0.0,0.0,0.0,2.7243,2.7179,2.7039,2.1294,1.9848,2.6205,2.1422,2.1453,3.0027,0.0,0.0,0.0,0.0,0.0,-2.9557,-3.0897,0.0,-3.1107,-3.0105,-2.9948,-3.0611,-3.0335,-3.0769,-3.185,-3.417,-3.5059,-3.478,-3.5062,-3.5302,-3.5516,-3.5772,-3.5462,-3.4712,-3.3659,-3.3313,-3.3228,-3.2038,-3.2787,-3.4428,4.5898,4.5898,4.5976,4.625,4.6308,4.6387,4.668,4.6484,4.6406,4.668,4.6465,4.6308,4.6308,4.6308,4.6308,0.0,4.6308,4.6308,0.0,4.4668,4.3691,4.3691,4.043,3.8594,3.8594,3.6894,3.5566,3.4668,0.0,0.0,0.0,3.1909,3.1797,3.1797,3.1797,3.209,3.2578,3.2012,3.1797,3.1738,3.1133,3.0898,3.0898,3.0898,3.1269,3.1814,3.2007,3.2975,3.4082,3.3397,3.3182,3.2959,3.1569,3.1203,3.1064,2.9741,3.0139,3.0924,3.0622,3.1813,3.3224,3.3693,3.4524,3.5273,3.5498,3.5064,3.4405,3.3669,3.1863,3.0144,2.9319,2.6596,2.4483,2.4441,2.4194,0.0,2.5238,0.0,2.5558,1.9662,1.7181,1.4874,1.2015,1.3683,1.6864,2.1486,0.0,0.0,0.0,0.0,0.0,0.0,-3.0308,0.0,-3.1766,-3.0672,-3.0677,-3.1769,-3.1912,-3.2733,-3.4218,-3.5103,-3.5475,-3.5427,-3.5472,-3.5921,-3.6627,-3.6118,-3.6127,-3.6251,-3.4415,-3.4105,-3.4571,-3.3575,-3.43,-3.5882,4.6308,4.6308,4.6308,4.6308,4.6308,4.6308,4.6308,4.6308,4.6308,4.6308,4.6308,4.6308,4.6308,4.6308,0.0,4.6308,4.6308,4.6308,4.6308,4.4668,4.3691,4.3691,4.043,3.8594,3.8594,3.6894,0.0,3.5195,3.4531,3.3516,3.2187,3.1855,3.1719,3.1719,3.1719,3.1992,3.2441,3.2266,3.2207,3.2187,3.1934,3.166,3.1387,3.1387,3.1523,3.1695,3.1553,3.2403,3.3474,3.2722,3.2546,3.2428,3.1073,3.0753,3.0565,2.9081,2.9278,2.9935,2.9681,3.0968,3.2493,3.3095,3.4169,3.5078,3.5042,3.4578,3.3726,3.2221,3.013,2.7887,2.5714,2.2925,2.0623,1.9612,2.0062,2.0944,2.2099,0.0,2.1387,1.3917,1.0272,0.0,0.0,0.3987,0.9216,0.0,0.0,0.0,0.0,0.0,0.0,-2.9304,-3.0535,-3.1248,-3.1763,-3.0987,-3.1186,-3.2349,-3.3163,-3.4199,-3.5417,-3.5523,-3.56,-3.5704,-3.5655,-3.6291,-3.7314,-3.643,-3.6667,-3.7434,-3.5451,-3.5302,-3.6033,-3.5066,-3.572,-3.7117,4.6308,4.6308,4.6308,0.0,4.6308,0.0,4.6308,4.6308,4.6308,4.6308,4.6308,4.6308,4.6308,4.6308,4.6308,4.6308,0.0,0.0,0.0,4.4629,4.3672,4.3613,4.0391,3.8594,3.8594,3.6894,3.5976,3.5918,3.4219,3.3027,3.2266,3.1328,3.0957,3.1074,3.0957,3.0937,3.1035,3.1797,3.2109,3.2187,3.293,3.2773,3.2109,3.2109,3.1601,3.0875,3.074,3.1214,3.1833,3.144,3.1835,3.2205,3.0538,3.0018,2.9789,2.867,2.8602,2.9,2.9368,3.029,3.1452,3.2548,3.3903,3.4808,3.4236,3.3971,3.3014,3.0083,2.8289,2.5781,2.0955,1.8545,1.6361,1.363,1.4999,1.6811,1.7958,1.7732,1.5198,0.9117,0.0,0.0,-0.9597,-0.6917,-0.0609,0.0,0.0,0.0,0.0,0.0,-2.0138,-2.9376,-3.1327,-3.1941,-3.1415,-3.1146,-3.1553,-3.2593,-3.41,-3.5097,-3.5576,-3.5509,-3.5558,-3.5703,-3.57,-3.6406,-3.7548,-3.666,-3.7054,-3.8126,-3.6608,-3.6664,-3.7486,-3.6538,-3.7024,-3.8121,0.0,0.0,4.6308,4.6308,4.6308,4.6308,4.6308,4.6308,4.6308,4.6308,4.6308,4.6308,4.6308,4.6308,4.6308,4.6308,4.6308,4.6016,4.5351,4.4297,4.3398,4.2734,4.0078,3.8594,3.8594,3.6894,3.5664,3.5019,3.3926,3.3301,3.3086,3.1601,3.1582,3.2754,3.1465,3.1269,3.1855,3.1406,3.1211,3.1211,3.1426,3.1387,3.1211,3.1211,3.1074,3.0878,3.0695,3.1177,3.1749,3.0701,3.0801,3.1109,2.9595,2.917,2.9037,2.79,2.783,2.8105,2.7912,2.8887,3.0159,3.0854,3.2255,3.3445,3.3244,3.2084,3.0549,2.8825,2.4845,2.0656,1.7298,1.3599,1.0643,0.9364,1.1196,1.3151,1.4357,1.4184,1.0034,0.0,-0.5707,-1.1487,-1.909,-1.3942,-0.7011,0.0,0.0,-0.2402,-0.7726,-1.5826,-2.3382,-3.0087,-3.031,-3.1324,-3.3381,-3.266,-3.2921,-3.4242,-3.4775,-3.515,-3.5366,-3.5298,-3.5491,-3.5843,-3.5689,-3.6078,-3.6761,-3.6439,-3.6483,-3.6758,-3.6371,-3.6777,-3.7553,-3.7312,-3.8244,-3.9543,4.6289,4.6308,4.6308,4.6308,4.6308,4.6308,4.6308,4.6308,4.6308,4.6308,4.6308,4.6308,4.6308,4.6308,4.6133,4.5742,4.5703,4.5508,4.5039,4.3808,4.2734,4.1894,3.9766,3.8418,3.8008,3.6699,3.5566,3.4707,3.3828,3.3203,3.2812,3.1504,3.1387,3.2226,3.1309,3.1152,3.1601,3.1523,3.1484,3.1523,3.1894,3.1816,3.1484,3.1484,3.125,3.0878,3.0672,3.0892,3.1167,3.03,3.0243,3.0349,2.9166,2.8728,2.8464,2.7574,2.7577,2.7736,2.71,2.814,2.9692,3.0946,3.2068,3.2713,3.213,3.0711,2.8766,2.6202,2.1913,1.7219,1.258,0.8581,0.5549,0.4417,0.642,0.8552,0.99,0.8949,0.4188,-0.6329,-1.0227,-1.5127,-2.2945,-1.9225,-1.3104,-0.5334,-1.0361,0.0,-1.2221,-2.0621,-2.7097,-3.0713,-3.128,-3.226,-3.3771,-3.3335,-3.3527,-3.4348,-3.4762,-3.5245,-3.5751,-3.5249,-3.5449,-3.6138,-3.5799,-3.6065,-3.6716,-3.6459,-3.6575,-3.6909,-3.6779,-3.7362,-3.827,-3.8224,-3.888,-3.9733,4.6289,4.6308,4.6308,4.6308,4.6308,4.6308,4.6308,4.6308,4.6308,4.6308,4.6308,4.6308,4.6308,4.6172,4.5801,4.5058,4.4766,4.4609,4.4609,4.3223,4.1973,4.1035,3.9453,3.8184,3.7324,3.6445,3.5566,3.4707,3.3828,3.3047,3.2363,3.1367,3.1035,3.1269,3.1016,3.0976,3.1133,3.1758,3.1992,3.2051,3.2754,3.2617,3.1992,3.1992,3.1543,3.0878,3.0673,3.0626,3.0559,3.0174,3.0042,2.9897,2.9113,2.8612,2.817,2.7514,2.7575,2.7691,2.6873,2.7892,2.9646,3.152,3.2183,3.2102,3.0956,2.9439,2.7147,2.328,1.9048,1.414,0.7719,0.3774,0.1061,-0.0196,0.1716,0.4001,0.5709,0.0,-0.0435,-0.7475,-1.1963,-1.6364,-2.12,-2.1421,-1.8191,-1.0717,-1.9953,-2.3185,-1.6932,-2.5182,-3.057,-3.1616,-3.2578,-3.3153,-3.3316,-3.3538,-3.3749,-3.4012,-3.4574,-3.5297,-3.6094,-3.5255,-3.5417,-3.6348,-3.5884,-3.6116,-3.6791,-3.6455,-3.6722,-3.7358,-3.707,-3.77,-3.8775,-3.8651,-3.8832,-3.9083,4.6308,4.6308,4.6308,4.6308,4.6308,4.6308,4.6308,4.6308,4.6308,4.6308,4.6308,4.6308,4.6308,4.5644,4.5156,4.5019,4.3652,4.2793,4.2793,4.2558,4.1719,4.0176,3.9141,3.8184,3.7324,3.6445,3.5566,3.4707,3.3828,3.334,3.3184,3.1621,3.166,3.2949,3.1523,3.1309,3.1953,3.1367,3.1094,3.1113,3.123,3.1211,3.1094,3.1094,3.1016,3.0879,3.074,3.0675,3.0641,3.0355,3.0227,3.0062,2.9425,2.9005,2.8512,2.7619,2.7733,2.8049,2.7553,2.8438,2.9678,3.0349,3.0744,3.0718,2.9978,2.7652,2.4756,2.161,1.563,0.9356,0.412,-0.0187,-0.2768,-0.2209,-0.0573,0.1521,0.4009,0.0,0.0689,0.1557,-0.8051,-1.336,-0.9849,-1.6013,-2.0336,-2.0637,-2.1682,-2.4389,-2.9171,-3.0727,-3.2179,-3.3688,-3.1397,-3.1067,-3.2947,-3.3508,-3.4178,-3.498,-3.5022,-3.5156,-3.5355,-3.5149,-3.5347,-3.5818,-3.5689,-3.572,-3.5898,-3.5823,-3.5853,-3.5927,-3.5921,-3.6498,-3.7322,-3.7248,-3.7527,-3.7916,4.6171,4.625,4.6308,4.6308,4.6308,4.6308,4.6308,4.6308,4.6308,4.6308,4.6308,4.6308,4.6308,4.5527,4.4805,4.4336,4.3144,4.2226,4.1777,4.1758,4.0996,3.9277,3.8809,3.7969,3.6621,3.5742,3.4863,3.4004,3.3164,3.2519,3.2031,3.1269,3.1309,3.2012,3.125,3.1113,3.1465,3.1074,3.0858,3.0794,3.0868,3.0859,3.0781,3.0784,3.0782,3.0775,3.0632,3.062,3.0611,3.045,3.0405,3.0336,2.9934,2.954,2.9117,2.8511,2.8129,2.795,2.8305,2.9031,2.9755,3.0147,3.0163,2.9744,2.8536,2.5713,2.2334,1.8639,1.2491,0.6204,0.1149,-0.3632,-0.6252,-0.4495,-0.3383,0.0,0.0,0.4338,0.4271,0.446,0.0408,-0.2758,-0.3633,-0.8397,-1.3164,-1.7247,-2.0801,-2.5096,-3.0492,-3.1948,-3.3346,-3.4962,-3.3393,-3.3018,-3.4064,-3.4398,-3.4835,-3.5353,-3.5263,-3.5413,-3.5784,-3.5355,-3.5488,-3.6054,-3.5781,-3.5671,-3.5711,-3.5782,-3.5786,-3.5762,-3.5713,-3.6297,-3.7148,-3.6962,-3.7081,-3.7262,4.609,4.6211,4.6308,4.6308,4.6308,4.6308,4.6308,4.6308,4.6308,4.6308,4.6308,4.6308,4.6308,4.5332,4.4433,4.3769,4.2734,4.1855,4.123,4.1191,4.043,3.8672,3.8203,3.7363,3.6035,3.5332,3.457,3.3691,3.2871,3.2031,3.1191,3.0996,3.0898,3.0898,3.0898,3.0898,3.0898,3.0866,3.0788,3.0706,3.0808,3.0765,3.0689,3.0676,3.0678,3.0687,3.0792,3.0862,3.0899,3.087,3.0876,3.0828,3.0442,3.0071,2.9717,2.9446,2.879,2.8286,2.8912,2.9415,2.9832,3.0194,2.9836,2.8963,2.7434,2.4207,2.0331,1.6208,1.0248,0.4298,-0.0605,-0.5272,-0.7189,-0.3781,0.0,0.0,0.0,0.8828,0.9538,0.9384,1.0248,0.8743,0.3373,0.0055,-0.4952,-1.2706,-2.012,-2.6032,-2.9929,-3.2504,-3.4409,-3.566,-3.5191,-3.4894,-3.4885,-3.4937,-3.5156,-3.5519,-3.5424,-3.5654,-3.6132,-3.5568,-3.5674,-3.6269,-3.59,-3.5747,-3.576,-3.5864,-3.591,-3.5887,-3.5799,-3.6269,-3.6972,-3.6755,-3.6665,-3.6589,4.6102,4.6211,4.6308,4.6308,4.6308,4.6308,4.6308,4.6308,4.6308,4.6308,4.6308,4.6308,4.6308,4.4805,4.3769,4.3711,4.2226,4.1269,4.1191,4.1191,4.043,3.8672,3.7051,3.6133,3.5996,3.5937,3.5488,3.4609,3.373,3.2891,3.209,3.1289,3.0898,3.0898,3.0898,3.0898,3.0898,3.077,3.0706,3.071,3.0629,3.0615,3.0617,3.0613,3.0604,3.0717,3.1518,3.18,3.1804,3.1875,3.1855,3.1676,3.0906,3.0467,3.0232,3.0227,2.9986,2.9645,2.9218,2.9431,2.9877,3.0228,2.9484,2.8404,2.7356,2.3542,1.9169,1.5342,0.9581,0.3984,-0.0278,-0.3515,-0.3356,0.3229,0.0,0.0,1.4717,1.542,1.6841,2.1733,2.0221,1.769,1.4912,0.9012,-0.0126,-1.3386,-2.1565,-2.7717,-3.1768,-3.4241,-3.5583,-3.5702,-3.4834,-3.4334,-3.4263,-3.4276,-3.4723,-3.5592,-3.5582,-3.5636,-3.5739,-3.5699,-3.5768,-3.5923,-3.5892,-3.5895,-3.589,-3.5954,-3.597,-3.5907,-3.5955,-3.6035,-3.6093,-3.5996,-3.5827,-3.5592,4.5907,4.5982,4.6074,4.6151,4.6172,4.6191,4.6289,4.6308,4.6308,4.6308,4.6308,4.6094,4.5547,4.4414,4.3476,4.2949,4.2305,4.1738,4.123,4.168,4.1172,3.9473,3.7734,3.6816,3.6816,3.5742,3.5039,3.4707,3.3828,3.2988,3.2187,3.1855,3.1426,3.0898,3.0898,3.0852,3.0766,3.0721,3.0641,3.0583,3.0583,3.0574,3.0521,3.0406,3.0763,3.1366,3.1473,3.1979,3.2596,3.2714,3.2396,3.1914,3.1601,3.1066,3.0535,3.0457,3.0114,2.9687,2.9222,2.9075,2.9066,2.9168,2.8582,2.7624,2.6243,2.2592,1.8577,1.506,0.9526,0.468,0.2704,0.0631,0.0858,0.5966,0.0,0.8541,1.7357,1.7734,1.8589,2.2605,2.2603,2.071,1.6709,1.1769,0.3283,-0.9991,-1.9653,-2.7021,-3.1756,-3.4195,-3.5456,-3.5454,-3.5265,-3.5139,-3.5071,-3.5021,-3.5187,-3.5553,-3.5628,-3.5646,-3.5632,-3.5762,-3.5807,-3.5772,-3.5869,-3.5899,-3.5916,-3.5976,-3.5976,-3.5915,-3.5347,-3.5151,-3.5117,-3.447,-3.4527,-3.4925,4.58,4.5854,4.5929,4.6027,4.6061,4.6133,4.6211,4.6269,4.6308,4.6308,4.6055,4.5762,4.5449,4.4141,4.3164,4.2832,4.2324,4.1797,4.123,4.1719,4.1387,3.9961,3.8223,3.7305,3.7305,3.5859,3.5117,3.5117,3.4238,3.3398,3.2578,3.2324,3.1738,3.0898,3.0855,3.0782,3.0698,3.066,3.0583,3.0506,3.0525,3.0506,3.0444,3.0214,3.0763,3.164,3.1694,3.2201,3.2881,3.3121,3.266,3.1981,3.203,3.1612,3.102,3.0575,3.0037,2.9355,2.8386,2.8049,2.8035,2.8515,2.7933,2.6889,2.543,2.1734,1.7677,1.4505,0.9346,0.5367,0.5375,0.4731,0.5717,1.0267,1.0587,1.3102,2.1283,1.9377,1.7838,1.9826,1.966,1.7859,1.3884,1.102,0.3957,-0.93,-1.9959,-2.784,-3.2358,-3.4078,-3.4963,-3.5045,-3.5362,-3.5564,-3.5638,-3.556,-3.5522,-3.5507,-3.5639,-3.5677,-3.5646,-3.5839,-3.5887,-3.5797,-3.589,-3.5921,-3.5923,-3.5975,-3.584,-3.5527,-3.4873,-3.4485,-3.4219,-3.3516,-3.3845,-3.4627,4.5796,4.5853,4.5911,4.5911,4.601,4.6094,4.6094,4.6211,4.6308,4.6308,4.5547,4.5332,4.6191,4.3965,4.2754,4.3613,4.2168,4.1211,4.1211,4.1191,4.0801,3.9941,3.8242,3.7305,3.7305,3.6445,3.5996,3.5996,3.5137,3.4258,3.3398,3.2598,3.1738,3.0898,3.0765,3.0698,3.0679,3.0564,3.0506,3.0487,3.0417,3.0398,3.0367,3.0089,3.0552,3.1432,3.2298,3.2569,3.2588,3.3058,3.2645,3.1954,3.2141,3.2108,3.177,3.0639,2.9827,2.8815,2.6609,2.6244,2.6873,2.8461,2.7678,2.621,2.5114,2.0949,1.6443,1.3381,0.8858,0.5858,0.7138,0.8493,1.1328,1.7027,1.8375,2.0914,2.7384,2.0661,1.4874,1.4259,1.1406,0.8787,0.69,0.7022,0.1416,-1.2618,-2.3397,-3.0727,-3.3921,-3.409,-3.4207,-3.4494,-3.4961,-3.5364,-3.5683,-3.5626,-3.5574,-3.5507,-3.5639,-3.5703,-3.571,-3.5906,-3.5996,-3.5996,-3.5996,-3.5996,-3.5996,-3.5996,-3.5488,-3.4707,-3.4687,-3.4141,-3.3398,-3.3379,-3.3926,-3.4687,4.5643,4.568,4.5719,4.5815,4.5907,4.5988,4.609,4.6211,4.6308,4.6308,4.6074,4.5547,4.457,4.4336,4.3613,4.207,4.2558,4.2695,4.207,4.1504,4.1074,4.082,3.9141,3.793,3.7305,3.6445,3.5996,3.5996,3.5742,3.5176,3.4297,3.3437,3.2598,3.1777,3.1036,3.066,3.0621,3.0544,3.0467,3.0417,3.0398,3.0398,3.0355,2.9943,3.0898,3.2407,3.2355,3.3312,3.4649,3.4885,3.4409,3.3499,3.2264,3.1718,3.1321,2.9997,2.9068,2.8255,2.7381,2.6608,2.6156,2.6372,2.6478,2.5856,2.3363,1.9703,1.5586,1.1245,0.5789,0.2612,0.5124,0.8838,1.2438,1.5107,1.6334,1.6673,1.5867,0.9835,0.5377,0.5095,0.2792,0.027,-0.2257,-0.2998,-0.7449,-1.7388,-2.6459,-3.2265,-3.3926,-3.3536,-3.3462,-3.3923,-3.4451,-3.4911,-3.5339,-3.5515,-3.5613,-3.5629,-3.578,-3.5841,-3.5841,-3.5951,-3.5996,-3.5996,-3.5996,-3.5996,-3.5957,-3.5332,-3.4922,-3.457,-3.3294,-3.2643,-3.2348,-3.1675,-3.2407,-3.3719,4.5586,4.5586,4.5624,4.5719,4.5796,4.5902,4.6002,4.6127,4.623,4.6289,4.5996,4.5527,4.4805,4.457,4.3867,4.2324,4.2519,4.248,4.1953,4.1465,4.1055,4.0703,3.9355,3.8359,3.7832,3.6953,3.6348,3.5996,3.5644,3.5039,3.418,3.332,3.248,3.166,3.0963,3.0635,3.0583,3.0506,3.0448,3.0398,3.0398,3.0398,3.0393,3.0354,3.1337,3.2757,3.2809,3.3694,3.4851,3.5064,3.4569,3.3509,3.1713,3.1105,3.079,2.9517,2.8547,2.782,2.7415,2.6922,2.658,2.6632,2.6227,2.4863,2.1227,1.7011,1.2379,0.7109,0.1103,-0.2261,0.1081,0.5372,0.9437,1.2569,1.4706,1.317,0.5117,-0.0199,-0.4455,-0.7521,-0.9026,-1.0399,-1.1866,-1.3091,-1.6662,-2.362,-2.9603,-3.3193,-3.3813,-3.3231,-3.3055,-3.3372,-3.3697,-3.4169,-3.4762,-3.4933,-3.5215,-3.5615,-3.5759,-3.5812,-3.5799,-3.5917,-3.5927,-3.5879,-3.5948,-3.5951,-3.5893,-3.5015,-3.4469,-3.3999,-3.2524,-3.1742,-3.1426,-3.1207,-3.2036,-3.3353,4.5586,4.5586,4.5586,4.5586,4.5719,4.5831,4.589,4.6015,4.6152,4.6289,4.5605,4.5391,4.6113,4.4844,4.3867,4.3711,4.2226,4.1289,4.1191,4.1191,4.0859,4.0059,3.918,3.8672,3.8594,3.7676,3.6797,3.5996,3.5215,3.4414,3.3613,3.2715,3.1875,3.1113,3.0841,3.0676,3.0602,3.0621,3.0533,3.0398,3.0475,3.0456,3.0463,3.1045,3.179,3.261,3.3353,3.3677,3.3808,3.4006,3.3473,3.2428,3.0806,3.0344,3.0189,2.9052,2.8164,2.7409,2.6866,2.7123,2.7738,2.8426,2.6786,2.3803,1.9159,1.3816,0.8187,0.234,-0.3449,-0.6605,-0.3779,0.0559,0.5179,0.9716,1.3855,1.1283,-0.357,-0.8534,-1.3458,-2.0944,-2.1955,-2.1898,-2.1555,-2.2912,-2.5775,-3.0318,-3.2493,-3.3624,-3.3677,-3.3169,-3.2859,-3.2895,-3.2865,-3.3231,-3.4047,-3.4088,-3.4543,-3.5445,-3.5562,-3.5611,-3.5576,-3.5752,-3.5783,-3.571,-3.5836,-3.5838,-3.5701,-3.483,-3.3955,-3.3071,-3.2133,-3.13,-3.0691,-3.1475,-3.2352,-3.3308,4.5586,4.5586,4.5586,4.5586,4.5719,4.583,4.5873,4.6008,4.6152,4.6289,4.6133,4.582,4.5332,4.5547,4.5195,4.3828,4.2734,4.1875,4.123,4.1191,4.1113,4.0937,4.0078,3.9297,3.8613,3.707,3.6191,3.5996,3.5801,3.5625,3.5391,3.3867,3.3047,3.2812,3.1982,3.1241,3.0679,3.1852,3.1602,3.0456,3.1141,3.1006,3.0451,3.0842,3.1625,3.2466,3.2297,3.2768,3.3374,3.26,3.2202,3.1808,3.0607,3.0002,2.9409,2.7935,2.7203,2.6806,2.6284,2.6671,2.7542,2.9012,2.8009,2.5192,1.9547,1.4433,0.9048,0.2571,0.1732,0.0612,-0.4275,0.6018,1.3484,0.7966,1.616,1.6715,-0.1831,-0.9225,-1.536,-2.2286,-2.5726,-2.8015,-2.9147,-3.0067,-3.1405,-3.3363,-3.3612,-3.3832,-3.4213,-3.3117,-3.2642,-3.2877,-3.259,-3.2817,-3.3709,-3.3915,-3.4358,-3.5037,-3.5057,-3.5175,-3.5366,-3.5405,-3.5535,-3.5703,-3.5723,-3.5385,-3.4748,-3.3866,-3.2989,-3.2113,-3.1169,-3.0696,-3.0543,-3.0675,-3.1355,-3.2348,4.5586,4.5586,4.5586,4.5586,4.5643,4.5757,4.5873,4.5969,4.6072,4.6269,4.6308,4.6133,4.5664,4.6035,4.5762,4.4433,4.3144,4.2226,4.1797,4.1406,4.1191,4.1191,4.0371,3.9492,3.8613,3.7305,3.6426,3.5996,3.5586,3.5371,3.5351,3.4023,3.3398,3.3359,3.2357,3.1881,3.1853,3.2186,3.1814,3.1064,3.1525,3.1179,3.0463,3.1049,3.1562,3.1946,3.2107,3.2354,3.2386,3.098,3.043,3.0148,2.9188,2.8647,2.8238,2.7631,2.7256,2.7004,2.7012,2.725,2.7707,2.8504,2.8174,2.6475,2.198,1.7553,1.2956,0.7832,0.6191,0.4405,0.0022,0.1346,0.4247,0.7766,1.5187,1.5089,-0.0476,-1.0656,-1.9202,-2.6429,-3.0534,-3.3099,-3.3729,-3.3698,-3.3979,-3.4716,-3.4885,-3.4895,-3.4795,-3.416,-3.3537,-3.3002,-3.24,-3.2393,-3.3087,-3.3332,-3.3836,-3.4565,-3.4751,-3.4981,-3.5193,-3.5116,-3.513,-3.5239,-3.5394,-3.4982,-3.4158,-3.3444,-3.2633,-3.1751,-3.081,-3.0442,-3.049,-3.0876,-3.1642,-3.2674,4.5586,4.5586,4.5586,4.5586,4.5586,4.568,4.5873,4.5893,4.5995,4.6268,4.6308,4.6308,4.6308,4.6308,4.5957,4.5078,4.3535,4.2558,4.2402,4.1641,4.1191,4.1191,4.0371,3.9492,3.8613,3.7754,3.6875,3.5996,3.5273,3.4922,3.4902,3.3887,3.3396,3.3346,3.2504,3.2423,3.2922,3.2519,3.2102,3.1718,3.1852,3.1295,3.0494,3.1315,3.1479,3.1386,3.2029,3.177,3.0884,2.921,2.852,2.82,2.7373,2.7078,2.7082,2.7572,2.7677,2.7716,2.7861,2.7201,2.5989,2.4132,2.4746,2.533,2.3533,2.0025,1.6093,1.2397,0.9923,0.796,0.6564,-0.1341,-0.3837,0.7674,1.2448,1.0826,-0.0317,-1.199,-2.2396,-3.0441,-3.4508,-3.6623,-3.6565,-3.5446,-3.4928,-3.5418,-3.5908,-3.5903,-3.529,-3.5224,-3.4622,-3.3315,-3.2577,-3.2368,-3.2677,-3.3033,-3.3588,-3.436,-3.4604,-3.4773,-3.4906,-3.4698,-3.4547,-3.4496,-3.484,-3.45,-3.3657,-3.3299,-3.2568,-3.1632,-3.0809,-3.0433,-3.0419,-3.1167,-3.2064,-3.3091,4.5586,4.5586,4.5586,4.5586,4.5586,4.568,4.5873,4.5893,4.5995,4.6268,4.6308,4.6308,4.6308,4.6308,4.5957,4.5078,4.4101,4.3203,4.2441,4.1641,4.1191,4.1191,4.0371,3.9492,3.8613,3.7754,3.6875,3.5996,3.5879,3.582,3.5781,3.416,3.3376,3.3316,3.3111,3.2637,3.2116,3.4128,3.3718,3.1756,3.2468,3.1795,3.0463,3.1097,3.1329,3.1251,3.096,3.0013,2.8637,2.7296,2.6836,2.6706,2.6167,2.6286,2.6602,2.6822,2.801,2.8966,2.7476,2.3673,1.8076,0.9538,1.1972,1.712,1.9377,1.6886,1.2734,0.7912,1.1987,1.5688,1.3279,1.6234,1.5786,0.5749,0.897,0.8408,-0.3749,-1.2184,-2.0624,-3.0189,-3.435,-3.6962,-3.8319,-3.622,-3.526,-3.6416,-3.5954,-3.5593,-3.5555,-3.5118,-3.4581,-3.3972,-3.3972,-3.3797,-3.3451,-3.4174,-3.4699,-3.4962,-3.4515,-3.4222,-3.4128,-3.3889,-3.3659,-3.3529,-3.3985,-3.3668,-3.2882,-3.3223,-3.2568,-3.1321,-3.0964,-3.0503,-3.0089,-3.0323,-3.1079,-3.2025,4.5586,4.5586,4.5586,4.5586,4.5586,4.568,4.5873,4.5893,4.5995,4.6268,4.6308,4.6308,4.6308,4.6308,4.6152,4.5762,4.4473,4.3535,4.3144,4.1914,4.1191,4.1191,4.082,4.0215,3.9355,3.8476,3.7598,3.6738,3.623,3.5996,3.5976,3.4707,3.4086,3.3971,3.2947,3.2491,3.2564,3.3141,3.2737,3.1737,3.2128,3.1552,3.0494,3.0791,3.0841,3.0643,2.992,2.9223,2.846,2.7457,2.7131,2.7112,2.7135,2.7599,2.8213,2.8741,2.969,3.0371,2.9303,2.0208,0.92,0.1641,0.2405,0.5614,0.8327,0.7995,0.9097,1.6281,1.9033,1.9383,1.6759,1.9645,1.8745,0.7484,0.4109,-0.0293,-0.931,-1.5996,-2.3613,-3.3378,-3.543,-3.6305,-3.6848,-3.6332,-3.6163,-3.662,-3.6908,-3.691,-3.6505,-3.6526,-3.614,-3.5254,-3.5038,-3.4801,-3.4596,-3.4587,-3.476,-3.5105,-3.4832,-3.428,-3.3487,-3.3073,-3.2678,-3.2384,-3.2726,-3.2347,-3.1547,-3.2571,-3.2102,-3.0809,-3.1337,-3.1146,-3.0511,-3.062,-3.0634,-3.077]},{"header":{"parameterUnit":"m.s-1","parameterCategory":1,"la1":30.6,"la2":28.766,"lo1":-90.7593,"lo2":-88.6598,"dy":0.0162,"dx":0.0183,"nx":116,"ny":114,"refTime":"2023-10-05T06:00:00:Z","depth":0,"parameterNumber":3,"parameterNumberName":"V-component_of_WINDS"},"data":[0.0,0.0,0.0,0.0,0.0,0.0,0.0,0.0,0.0,0.0,0.0,0.0,0.0,0.0,0.0,0.0,0.0,0.0,0.0,0.0,0.0,0.0,0.0,0.0,0.0,0.0,0.0,0.0,0.0,0.0,0.0,0.0,0.0,0.0,0.0,0.0,0.0,0.0,0.0,0.0,0.0,0.0,0.0,0.0,0.0,0.0,0.0,0.0,0.0,0.0,0.0,0.0,0.0,0.0,0.0,0.0,0.0,0.0,0.0,0.0,0.0,0.0,0.0,0.0,0.0,0.0,0.0,0.0,0.0,0.0,0.0,0.0,0.0,0.0,0.0,0.0,0.0,0.0,0.0,0.0,0.0,0.0,0.0,0.0,0.0,0.0,0.0,0.0,0.0,0.0,0.0,0.0,0.0,0.0,0.0,0.0,0.0,0.0,0.0,0.0,0.0,0.0,0.0,0.0,0.0,0.0,0.0,0.0,0.0,0.0,0.0,0.0,0.0,0.0,0.0,0.0,0.0,0.0,0.0,0.0,0.0,0.0,0.0,0.0,0.0,0.0,0.0,0.0,0.0,0.0,0.0,0.0,0.0,0.0,0.0,0.0,0.0,0.0,0.0,0.0,0.0,0.0,0.0,0.0,0.0,0.0,0.0,0.0,0.0,0.0,0.0,0.0,0.0,0.0,0.0,0.0,0.0,0.0,0.0,0.0,0.0,0.0,0.0,0.0,0.0,0.0,0.0,0.0,0.0,0.0,0.0,0.0,0.0,0.0,0.0,0.0,0.0,0.0,0.0,0.0,0.0,0.0,0.0,0.0,0.0,0.0,0.0,0.0,0.0,0.0,0.0,0.0,0.0,0.0,0.0,0.0,0.0,0.0,0.0,0.0,0.0,0.0,0.0,0.0,0.0,0.0,0.0,0.0,0.0,0.0,0.0,0.0,0.0,0.0,0.0,0.0,0.0,0.0,0.0,0.0,0.0,0.0,0.0,0.0,0.0,0.0,0.0,0.0,0.0,0.0,0.0,0.0,0.0,0.0,0.0,0.0,0.0,0.0,0.0,0.0,0.0,0.0,0.0,0.0,0.0,0.0,0.0,0.0,0.0,0.0,0.0,0.0,0.0,0.0,0.0,0.0,0.0,0.0,0.0,0.0,0.0,0.0,0.0,0.0,0.0,0.0,0.0,0.0,0.0,0.0,0.0,0.0,0.0,0.0,0.0,0.0,0.0,0.0,0.0,0.0,0.0,0.0,0.0,0.0,0.0,0.0,0.0,0.0,0.0,0.0,0.0,0.0,0.0,0.0,0.0,0.0,0.0,0.0,0.0,0.0,0.0,0.0,0.0,0.0,0.0,0.0,0.0,0.0,0.0,0.0,0.0,0.0,0.0,0.0,0.0,0.0,0.0,0.0,0.0,0.0,0.0,0.0,0.0,0.0,0.0,0.0,0.0,0.0,0.0,0.0,0.0,0.0,0.0,0.0,0.0,0.0,0.0,0.0,0.0,0.0,0.0,0.0,0.0,0.0,0.0,0.0,0.0,0.0,0.0,0.0,0.0,0.0,0.0,0.0,0.0,0.0,0.0,0.0,0.0,0.0,0.0,0.0,0.0,0.0,0.0,0.0,0.0,0.0,0.0,0.0,0.0,0.0,0.0,0.0,0.0,0.0,0.0,0.0,0.0,0.0,0.0,0.0,0.0,0.0,0.0,0.0,0.0,0.0,0.0,0.0,0.0,0.0,0.0,0.0,0.0,0.0,0.0,0.0,0.0,0.0,0.0,0.0,0.0,0.0,0.0,0.0,0.0,0.0,0.0,0.0,0.0,0.0,0.0,0.0,0.0,0.0,0.0,0.0,0.0,0.0,0.0,0.0,0.0,0.0,0.0,0.0,0.0,0.0,0.0,0.0,0.0,0.0,0.0,0.0,0.0,0.0,0.0,0.0,0.0,0.0,0.0,0.0,0.0,0.0,0.0,0.0,0.0,0.0,0.0,0.0,0.0,0.0,0.0,0.0,0.0,0.0,0.0,0.0,0.0,0.0,0.0,0.0,0.0,0.0,0.0,0.0,0.0,0.0,0.0,0.0,0.0,0.0,0.0,0.0,0.0,0.0,0.0,0.0,0.0,0.0,0.0,0.0,0.0,0.0,0.0,0.0,0.0,0.0,0.0,0.0,0.0,0.0,0.0,0.0,0.0,0.0,0.0,0.0,0.0,0.0,0.0,0.0,0.0,0.0,0.0,0.0,0.0,0.0,0.0,0.0,0.0,0.0,0.0,0.0,0.0,0.0,0.0,0.0,0.0,0.0,0.0,0.0,0.0,0.0,0.0,0.0,0.0,0.0,0.0,0.0,0.0,0.0,0.0,0.0,0.0,0.0,0.0,0.0,0.0,0.0,0.0,0.0,0.0,0.0,0.0,0.0,0.0,0.0,0.0,0.0,0.0,0.0,0.0,0.0,0.0,0.0,0.0,0.0,0.0,0.0,0.0,0.0,0.0,0.0,0.0,0.0,0.0,0.0,0.0,0.0,0.0,0.0,0.0,0.0,0.0,0.0,0.0,0.0,0.0,0.0,0.0,0.0,0.0,0.0,0.0,0.0,0.0,0.0,0.0,0.0,0.0,0.0,0.0,0.0,0.0,0.0,0.0,0.0,0.0,0.0,0.0,0.0,0.0,0.0,0.0,0.0,0.0,0.0,0.0,0.0,0.0,0.0,0.0,0.0,0.0,0.0,0.0,0.0,0.0,0.0,0.0,0.0,0.0,0.0,0.0,0.0,0.0,0.0,0.0,0.0,0.0,0.0,0.0,0.0,0.0,0.0,0.0,0.0,0.0,0.0,0.0,0.0,0.0,0.0,0.0,0.0,0.0,0.0,0.0,0.0,0.0,0.0,0.0,0.0,0.0,0.0,0.0,0.0,0.0,0.0,0.0,0.0,0.0,0.0,0.0,0.0,0.0,0.0,0.0,0.0,0.0,0.0,0.0,0.0,0.0,0.0,0.0,0.0,0.0,0.0,0.0,0.0,0.0,0.0,0.0,0.0,0.0,0.0,0.0,0.0,0.0,0.0,0.0,0.0,0.0,0.0,0.0,0.0,0.0,0.0,0.0,0.0,0.0,0.0,0.0,0.0,0.0,0.0,0.0,0.0,0.0,0.0,0.0,0.0,0.0,0.0,0.0,0.0,0.0,0.0,0.0,0.0,0.0,0.0,0.0,0.0,0.0,0.0,0.0,0.0,0.0,0.0,0.0,0.0,0.0,0.0,0.0,0.0,0.0,0.0,0.0,0.0,0.0,0.0,0.0,0.0,0.0,0.0,0.0,0.0,0.0,0.0,0.0,0.0,0.0,0.0,0.0,0.0,0.0,0.0,0.0,0.0,0.0,0.0,0.0,0.0,0.0,0.0,0.0,0.0,0.0,0.0,0.0,0.0,0.0,0.0,0.0,0.0,0.0,0.0,0.0,0.0,0.0,0.0,0.0,0.0,0.0,0.0,0.0,0.0,0.0,0.0,0.0,0.0,0.0,0.0,0.0,0.0,0.0,0.0,0.0,0.0,0.0,0.0,0.0,0.0,0.0,0.0,0.0,0.0,0.0,0.0,0.0,0.0,0.0,0.0,0.0,0.0,0.0,0.0,0.0,0.0,0.0,0.0,0.0,0.0,0.0,0.0,0.0,0.0,0.0,0.0,0.0,0.0,0.0,0.0,0.0,0.0,0.0,0.0,0.0,0.0,0.0,0.0,0.0,0.0,0.0,0.0,0.0,0.0,0.0,0.0,0.0,0.0,0.0,0.0,0.0,0.0,0.0,0.0,0.0,0.0,0.0,0.0,0.0,0.0,0.0,0.0,0.0,0.0,0.0,0.0,0.0,0.0,0.0,0.0,0.0,0.0,0.0,0.0,0.0,0.0,0.0,0.0,0.0,0.0,0.0,0.0,0.0,0.0,0.0,0.0,0.0,0.0,0.0,0.0,0.0,0.0,0.0,0.0,0.0,0.0,0.0,0.0,0.0,0.0,0.0,0.0,0.0,0.0,0.0,0.0,0.0,0.0,0.0,0.0,0.0,0.0,0.0,0.0,0.0,0.0,0.0,0.0,0.0,0.0,0.0,0.0,0.0,0.0,0.0,0.0,0.0,0.0,0.0,0.0,0.0,0.0,0.0,0.0,0.0,0.0,0.0,0.0,0.0,0.0,0.0,0.0,0.0,0.0,0.0,0.0,0.0,0.0,0.0,0.0,0.0,0.0,0.0,0.0,0.0,0.0,0.0,0.0,0.0,0.0,0.0,0.0,0.0,0.0,0.0,0.0,0.0,0.0,0.0,0.0,0.0,0.0,0.0,0.0,0.0,0.0,0.0,0.0,0.0,0.0,0.0,0.0,0.0,0.0,0.0,0.0,0.0,0.0,0.0,0.0,0.0,0.0,0.0,0.0,0.0,0.0,0.0,0.0,0.0,0.0,0.0,0.0,0.0,0.0,0.0,0.0,0.0,0.0,0.0,0.0,0.0,0.0,0.0,0.0,0.0,0.0,0.0,0.0,0.0,0.0,0.0,0.0,0.0,0.0,0.0,0.0,0.0,0.0,0.0,0.0,0.0,0.0,0.0,0.0,0.0,0.0,0.0,0.0,0.0,0.0,0.0,0.0,0.0,0.0,0.0,0.0,0.0,0.0,0.0,0.0,0.0,0.0,0.0,0.0,0.0,0.0,0.0,0.0,0.0,0.0,0.0,0.0,0.0,0.0,0.0,0.0,0.0,0.0,0.0,0.0,0.0,0.0,0.0,0.0,0.0,0.0,0.0,0.0,0.0,0.0,0.0,0.0,0.0,0.0,0.0,0.0,0.0,0.0,0.0,0.0,0.0,0.0,0.0,0.0,0.0,0.0,0.0,0.0,0.0,0.0,0.0,0.0,0.0,0.0,0.0,0.0,0.0,0.0,0.0,0.0,0.0,0.0,0.0,0.0,0.0,0.0,0.0,0.0,0.0,0.0,0.0,0.0,0.0,0.0,0.0,0.0,0.0,0.0,0.0,0.0,0.0,0.0,0.0,0.0,0.0,0.0,0.0,0.0,0.0,0.0,0.0,0.0,0.0,0.0,0.0,0.0,0.0,0.0,0.0,0.0,0.0,0.0,0.0,0.0,0.0,0.0,0.0,0.0,0.0,0.0,0.0,0.0,0.0,0.0,0.0,0.0,0.0,0.0,0.0,0.0,0.0,0.0,0.0,0.0,0.0,0.0,0.0,0.0,0.0,0.0,0.0,0.0,0.0,0.0,0.0,0.0,0.0,0.0,0.0,0.0,0.0,0.0,0.0,0.0,0.0,0.0,0.0,0.0,0.0,0.0,0.0,0.0,0.0,0.0,0.0,0.0,0.0,0.0,0.0,0.0,0.0,0.0,0.0,0.0,0.0,0.0,0.0,0.0,0.0,0.0,0.0,0.0,0.0,0.0,0.0,0.0,0.0,0.0,0.0,0.0,0.0,0.0,0.0,0.0,0.0,0.0,0.0,0.0,0.0,0.0,0.0,0.0,0.0,0.0,0.0,0.0,0.0,0.0,0.0,0.0,0.0,0.0,0.0,0.0,0.0,0.0,0.0,0.0,0.0,0.0,0.0,0.0,0.0,0.0,0.0,0.0,0.0,0.0,0.0,0.0,0.0,0.0,0.0,0.0,0.0,0.0,0.0,0.0,0.0,0.0,0.0,0.0,0.0,0.0,0.0,0.0,0.0,0.0,0.0,0.0,0.0,0.0,0.0,0.0,0.0,0.0,0.0,0.0,0.0,0.0,0.0,0.0,0.0,0.0,0.0,0.0,0.0,0.0,0.0,0.0,0.0,0.0,0.0,0.0,0.0,0.0,0.0,0.0,0.0,0.0,0.0,0.0,0.0,0.0,0.0,0.0,0.0,0.0,0.0,0.0,0.0,0.0,0.0,0.0,0.0,0.0,0.0,0.0,0.0,0.0,0.0,0.0,0.0,0.0,0.0,0.0,0.0,0.0,0.0,0.0,0.0,0.0,0.0,0.0,0.0,0.0,0.0,0.0,0.0,0.0,0.0,0.0,0.0,0.0,0.0,0.0,0.0,0.0,0.0,0.0,0.0,0.0,0.0,0.0,0.4508,0.4519,0.0,0.0,0.0,0.0,0.0,0.0,0.0,0.0,0.0,0.0,0.0,0.0,0.0,0.0,0.0,0.0,0.0,0.0,0.0,0.0,0.0,0.0,0.0,0.0,0.0,0.0,0.0,0.0,0.0,0.0,0.0,0.0,0.0,0.0,0.0,0.0,0.0,0.0,0.0,0.0,0.0,0.0,0.0,0.0,0.0,0.0,0.0,0.0,0.0,0.0,0.0,0.0,0.0,0.0,0.0,0.0,0.0,0.0,0.0,0.0,0.0,0.0,0.0,0.0,0.0,0.0,0.0,0.0,0.0,0.0,0.0,0.0,0.0,0.0,0.0,0.0,0.0,0.0,0.0,0.0,0.0,0.0,0.0,0.0,0.0,0.0,0.0,0.0,0.0,0.0,0.0,0.0,0.0,0.0,0.0,0.0,0.0,0.0,0.0,0.0,0.0,0.0,0.0,0.0,0.0,0.0,0.0,0.0,0.0,0.0,0.0,0.0,0.0,0.0,0.0,0.4512,0.0,0.0,0.0,0.0,0.0,0.0,0.0,0.0,0.0,0.0,0.0,0.0,0.0,0.0,0.0,0.0,0.0,0.0,0.0,0.0,0.0,0.0,0.0,0.0,0.0,0.0,0.0,0.0,0.0,0.0,0.0,0.0,0.0,0.0,0.0,0.0,0.0,0.0,0.0,0.0,0.0,0.0,0.0,0.0,0.0,0.0,0.0,0.0,0.0,0.0,0.0,0.0,0.0,0.0,0.0,0.0,0.0,0.0,0.0,0.0,0.0,0.0,0.0,0.0,0.0,0.0,0.0,0.0,0.0,0.0,0.0,0.0,0.0,0.0,0.0,0.0,0.0,0.0,0.0,0.0,0.0,0.0,0.0,0.0,0.0,0.0,0.0,0.0,0.0,0.0,0.0,0.0,0.0,0.0,0.0,0.0,0.0,0.0,0.0,0.0,0.0,0.0,0.0,0.0,0.0,0.0,0.0,0.0,0.0,0.0,0.0068,0.2586,0.4097,0.4784,0.4835,0.4743,0.4703,0.5097,0.0,0.0,0.0,0.0,0.0,0.0,0.0,0.0,0.0,0.0,0.0,0.0,0.0,0.0,0.0,0.0,0.0,0.0,0.0,0.0,0.0,0.0,0.0,0.0,0.0,0.0,0.0,0.0,0.0,0.0,0.0,0.0,0.0,0.0,0.0,0.0,0.0,0.0,0.0,0.0,0.0,0.0,0.0,0.0,0.0,0.0,0.0,0.0,0.0,0.0,0.0,0.0,0.0,0.0,0.0,0.0,0.0,0.0,0.0,0.0,0.0,0.0,0.0,0.0,0.0,0.0,0.0,0.0,0.0,0.0,0.0,0.0,0.0,0.0,0.0,0.0,0.0,0.0,0.0,0.0,0.0,0.0,0.0,0.0,0.0,0.0,0.0,0.0,0.0,0.0,0.0,0.0,0.0,0.0,0.0,0.0,0.0,0.0,0.0,0.0,0.0,0.0,0.0,0.0,0.0,0.0,0.0,0.0,0.0,0.0432,0.2622,0.6064,0.6068,0.0,0.545,0.7395,0.0,0.0,0.0,0.0,0.0,0.0,0.0,0.0,0.0,0.0,0.0,0.0,0.0,0.0,0.0,0.0,0.0,0.0,0.0,0.0,0.0,0.0,0.0,0.0,0.0,0.0,0.0,0.0,0.0,0.0,0.0,0.0,0.0,0.0,0.0,0.0,0.0,0.0,0.0,0.0,0.0,0.0,0.0,0.0,0.0,0.0,0.0,0.0,0.0,0.0,0.0,0.0,0.0,0.0,0.0,0.0,0.0,0.0,0.0,0.0,0.0,0.0,0.0,0.0,0.0,0.0,0.0,0.0,0.0,0.0,0.0,0.0,0.0,0.0,0.0,0.0,0.0,0.0,0.0,0.0,0.0,0.0,0.0,0.0,0.0,0.0,0.0,0.0,0.0,0.0,0.0,0.0,0.0,0.0,0.0,0.0,0.0,0.0,0.0,0.007,0.0,0.0,0.0,0.0,0.0,0.0,0.0,0.0,0.0,0.0,0.2302,0.6294,0.661,0.6626,0.6382,0.6736,0.6448,0.5837,0.0,0.0,0.0,0.0,0.8244,1.0494,0.0,0.0,0.0,0.0,0.0,0.0,0.0,0.0,0.0,0.0,0.0,0.0,0.0,0.0,0.0,0.0,0.0,0.0,0.0,0.0,0.0,0.0,0.0,0.0,0.0,0.0,0.0,0.0,0.0,0.0,0.0,0.0,0.0,0.0,0.0,0.0,0.0,0.0,0.1524,0.4151,0.0,0.0,0.0,0.0,0.0,0.0,0.0,0.0,0.0,0.0,0.0,0.0,0.0,0.0,0.0,0.0,0.0,0.0,0.0,0.0,0.0,0.0,0.0,0.0,0.0,0.0,0.0,0.0,0.0,0.0,0.0,0.0,0.0,0.0,0.0,0.0,0.0,0.0,0.0,0.0,0.0,0.0,0.0,0.0,0.0,0.0,0.0,0.0,0.4988,0.2983,0.1853,0.184,0.0637,0.0,0.0,0.0,0.0,0.0,0.0,0.0,0.0,0.1284,0.2908,0.482,0.6471,0.7179,0.7083,0.6342,0.5863,0.5602,0.6747,0.7432,0.7897,0.8322,1.1388,1.5178,0.0,0.0,0.0,0.0,0.0,0.0,0.0,0.0,0.0,0.0,0.0,0.0,0.0,0.0,0.0,0.0,0.0,0.0,0.0,0.0,0.0,0.0,0.0,0.0,0.0,0.0,0.0,0.0,0.0,0.0,0.0,0.0,0.0,0.0,0.0,0.0,0.0,0.0,0.0078,0.0642,0.467,0.0,0.0,0.0,0.0,0.0,0.0,0.0,0.0,0.0,0.0,0.0,0.0,0.0,0.0,0.0,0.0,0.0,0.0,0.0,0.0,0.0,0.0,0.0,0.0,0.0,0.0,0.0,0.0,0.0,0.0,0.0,0.0,0.0,0.0,0.0,0.0,0.0,0.0,0.0,0.0,0.0,0.0,0.0,0.0,0.4255,0.5536,0.6191,0.6182,0.658,0.6719,0.6753,0.2396,0.0,0.0,0.0,0.0,0.0,0.0,0.0,0.0184,0.4703,0.4426,0.0549,0.5507,0.7356,0.7168,0.768,0.7045,0.6002,0.7946,0.8699,0.912,1.2522,1.6486,2.0126,0.0,0.0,0.0,0.0,0.0,0.0,0.0,0.0,0.0,0.0,0.0,0.0,0.0,0.0,0.0,0.0,0.0,0.0,0.0,0.0,0.0,0.0,0.0,0.0,0.0,0.0,0.0,0.0,0.0,0.0,0.0,0.0,0.0,0.0,0.0,0.0,0.0,0.0,0.0,0.0158,0.1618,0.3743,0.0,0.0,0.0,0.0,0.0,0.0,0.0,0.0,0.0,0.0,0.0,0.0,0.0,0.0,0.0,0.0,0.0,0.0,0.0,0.0,0.0,0.0,0.0,0.0,0.0,0.0,0.0,0.0,0.0,0.0,0.0,0.0,0.0,0.0,0.0,0.0,0.0,0.0,0.0,0.0,0.0,0.0,0.1743,0.5873,0.6968,0.7398,0.7396,0.7562,0.7699,0.7653,0.6045,0.3536,0.0,0.0,0.0,0.0,0.0,0.177,0.5202,0.6879,0.6682,0.4973,0.6777,0.7629,0.7684,0.7517,0.6885,0.6239,0.7308,1.002,1.3366,1.3888,1.6211,1.8882,0.0,0.0,0.0,0.0,0.0,0.0,0.0,0.0,0.0,0.0,0.0,0.0,0.0,0.0,0.0,0.0,0.0,0.0,0.0,0.0,0.0,0.0,0.0,0.0,0.0,0.0,0.0,0.0,0.0,0.0,0.0,0.0,0.0,0.0,0.0,0.0,0.0,0.0,0.0,0.0,0.0,0.227,0.5695,0.0,0.0,0.0,0.0,0.0,0.0,0.0,0.0,0.0,0.0,0.0,0.0,0.0,0.0,0.0,0.0,0.0,0.0,0.0,0.0,0.0,0.0,0.0,0.0,0.0,0.0,0.0,0.0,0.0,0.0,0.0,0.0,0.0,0.0,0.0,0.0,0.0,0.0,0.0,0.0,0.0,0.2087,0.7069,0.7816,0.7968,0.7966,0.7991,0.8044,0.7955,0.7986,0.6342,0.276,0.1778,0.1384,0.1384,0.134,0.3229,0.6666,0.749,0.7868,0.7695,0.7685,0.7804,0.7945,0.7607,0.7189,0.6901,0.7278,1.0865,1.5675,1.4986,1.602,1.7899,0.0,0.0,0.0,0.0,0.0,0.0,0.0,0.0,0.0,0.0,0.0,0.0,0.0,0.0,0.0,0.0,0.0,0.0,0.0,0.0,0.0,0.0,0.0,0.0,0.0,0.0,0.0,0.0,0.0,0.0,0.0,0.0,0.0,0.0,0.0,0.0,0.0,0.0,0.0,0.0,0.0165,0.23,0.5515,0.0,0.0,0.0,0.0,0.0,0.0,0.0,0.0,0.0,0.0,0.0,0.0,0.0,0.0,0.0,0.0,0.0,0.0,0.0,0.0,0.0,0.0,0.0,0.0,0.0,0.0,0.0,0.0,0.0,0.0,0.0,0.0,0.0,0.0,0.0,0.0,0.0,0.0,0.0,0.0,0.0,0.2232,0.7553,0.7959,0.7986,0.8031,0.7962,0.7962,0.7736,0.7872,0.7985,0.7972,0.5429,0.4117,0.4116,0.4143,0.4109,0.4206,0.6628,0.7804,0.7952,0.7828,0.7801,0.8038,0.8038,0.8038,0.8001,0.798,1.1104,1.5654,1.5812,1.6482,1.7612,0.0,0.0,0.0,0.0,0.0,0.0,0.0,0.0,0.0,0.0,0.0,0.0,0.0,0.0,0.0,0.0,0.0,0.0,0.0,0.0,0.0,0.0,0.0,0.0,0.0,0.0,0.0,0.0,0.0,0.0,0.0,0.0,0.0,0.0,0.0,0.0,0.0,0.0,0.0,0.0386,0.4228,0.6094,0.6691,0.0,0.0,0.0,0.0,0.0,0.0,0.0,0.0,0.0,0.0,0.0,0.0,0.0,0.0,0.0,0.0,0.0,0.0,0.0,0.0,0.0,0.0,0.0,0.0,0.0,0.0,0.0,0.0,0.0,0.0,0.0,0.0,0.0,0.0,0.0,0.0,0.0,0.0,0.0,0.0,0.0,0.2181,0.7631,0.8017,0.7997,0.8038,0.7962,0.6229,0.2297,0.5934,0.7989,0.7985,0.7269,0.6859,0.6859,0.6938,0.6923,0.6898,0.7654,0.7959,0.7987,0.798,0.7902,0.8038,0.8038,0.8038,0.8014,0.7955,1.0066,1.316,1.5134,1.6267,1.7129,0.0,0.0,0.0,0.0,0.0,0.0,0.0,0.0,0.0,0.0,0.0,0.0,0.0,0.0,0.0,0.0,0.0,0.0,0.0,0.0,0.0,0.0,0.0,0.0,0.0,0.0,0.0,0.0,0.0,0.0,0.0,0.0,0.0,0.0,0.0,0.0,0.0,0.0,0.0,0.0313,0.3387,0.5826,0.7493,0.744,0.7148,0.6599,0.6462,0.6613,0.6743,0.6409,0.0,0.0,0.0,0.0,0.0,0.0,0.0,0.0,0.0,0.0,0.0,0.0,0.0,0.0,0.0,0.0,0.0,0.0,0.0,0.0,0.0,0.0,0.0,0.0,0.0,0.0,0.0,0.0,0.0,0.0,0.0,0.0,0.0,0.0,0.2175,0.7566,0.8014,0.8041,0.8041,0.7998,0.6619,0.3445,0.5244,0.6851,0.7969,0.7969,0.7969,0.7969,0.7987,0.7987,0.7955,0.797,0.797,0.8038,0.8038,0.8038,0.8038,0.8038,0.8038,0.0,0.0,0.0,0.0,0.0,1.6225,1.6966,0.0,0.0,0.0,0.0,0.0,0.0,0.0,0.0,0.0,0.0,-0.0483,-0.0603,-0.0091,0.0,0.0,0.0,0.0,0.0,0.0,0.0,0.0,0.0,0.0,0.0,0.0,0.0,0.0,0.0,0.0,0.0,0.0,0.0,0.0,0.0,0.0,0.0,0.0,0.0,0.0,0.011,0.0769,0.3685,0.768,0.7901,0.7678,0.7172,0.7324,0.725,0.7152,0.679,0.0,0.0,0.0,0.0,0.0,0.0,0.0,0.0,0.0,0.0,0.0,0.0,0.0,0.0,0.0,0.0,0.0,0.0,0.0,0.0,0.0,0.0,0.0,0.0,0.0,0.0,0.0,0.0,0.0,0.0,0.0,0.0,0.0,0.0,0.2024,0.6738,0.7152,0.7355,0.8111,0.8082,0.0,0.0,0.0,0.5615,0.7942,0.8041,0.8038,0.8038,0.8038,0.8038,0.8038,0.8038,0.8038,0.8038,0.8038,0.8038,0.8038,0.8038,0.8038,0.8038,0.8333,1.0006,1.2657,1.4962,1.6292,1.7039,0.0,0.0,0.0,0.0,0.0,0.0,0.0,0.0,0.0,0.0,-0.3313,-0.4302,-0.0448,0.0,0.0,0.0,0.0,0.0,0.0,0.0,0.0,0.0,0.0,0.0,0.0,0.0,0.0,0.0,0.0,0.0,0.0,0.0,0.0,0.0,0.0,0.0,0.0,0.0,0.0,0.0456,0.5816,0.679,0.5401,0.7252,0.7767,0.7449,0.7122,0.7187,0.7411,0.7017,0.7007,0.7085,0.6661,0.6448,0.0,0.0,0.0,0.0,0.0,0.0,0.0,0.0,0.0,0.0,0.0,0.0,0.0,0.0,0.0,0.0,0.0,0.0,0.0,0.0,0.0,0.0,0.0,0.0,0.0,0.0,0.0,0.0,0.0,0.0,0.0432,0.1489,0.1591,0.3601,0.8418,0.8287,0.7994,0.7975,0.7529,0.7456,0.7965,0.8048,0.8038,0.8038,0.0,0.0,0.8038,0.8038,0.8038,0.8038,0.8038,0.8038,0.8038,0.8038,0.8038,0.8237,1.0288,1.2715,1.5111,1.5606,1.6532,1.7587,0.0,0.0,0.0,0.0,0.0,0.0,-0.0268,0.0,0.0,0.0,-0.4124,-0.5266,-0.0525,0.0,0.0,0.0,-0.25,-0.3889,-0.3607,-0.1343,0.0,0.0,0.0,0.0,0.0,0.0,0.0,0.0,0.0,0.0,0.0,0.0,0.0,0.0,0.0,0.0,0.025,0.387,0.5302,0.5427,0.6817,0.7324,0.7235,0.8148,0.8343,0.8116,0.7814,0.7753,0.7773,0.7472,0.737,0.7305,0.6843,0.6629,0.6438,0.0,0.0,0.0,0.0,0.0,0.0,0.0,0.0,0.0,0.0,0.0,0.0,0.0,0.0,0.0,0.0,0.0,0.0,0.0,0.0,0.0,0.0,0.0,0.0,0.0,0.0,0.0,0.0,0.0,0.0,0.0,0.274,0.5787,0.8771,0.8441,0.82,0.8186,0.8073,0.7955,0.7955,0.8045,0.8038,0.8038,0.8038,0.8038,0.8038,0.8038,0.8038,0.8038,0.8038,0.8038,0.8038,0.8038,0.8038,0.8131,0.9433,1.2365,1.5758,1.5818,1.6161,1.6829,0.0,0.0,0.0,0.0,0.0,0.0,0.0,0.0,0.0,0.0,-0.3308,-0.4254,-0.0425,0.0,0.0,0.0,-0.4662,-0.7148,-0.5831,-0.2177,0.0,0.0,0.0,0.0,0.0,0.0,0.0,0.0,0.0,0.0,0.0,0.0,0.0,0.0,0.0,0.0,0.0389,0.6229,0.9422,1.0444,0.7222,0.7482,0.9796,0.924,0.8849,0.8726,0.8516,0.8371,0.8021,0.7899,0.7678,0.7414,0.6996,0.6883,0.6751,0.5981,0.5651,0.0,0.0,0.0,0.0,0.0,0.0,0.0,0.0,0.0,0.0,0.0,0.0,0.0,0.0,0.0,0.0,0.0,0.0,0.0,0.0,0.0,0.0,0.0,0.0,0.0,0.0,0.0,0.0,0.0,0.5556,0.89,0.8866,0.8575,0.8394,0.8256,0.8086,0.8038,0.8038,0.8038,0.8038,0.8038,0.8038,0.8038,0.8038,0.8038,0.8038,0.8038,0.8038,0.7969,0.8019,0.8048,0.8038,0.8048,0.8004,1.1191,1.5809,1.5806,1.6144,1.675,0.0,0.0,0.0,0.0,0.0,0.0,0.0,0.0,0.0,0.0,-0.0448,-0.062,-0.0081,0.0,0.0,0.0,-0.3942,-0.4875,-0.1086,-0.0309,0.0,0.0,0.0,0.0,0.0,0.0,0.0,0.0,0.0,0.0,0.0,0.0,0.0,0.0,0.0,0.0,0.0,0.092,0.4827,1.0611,0.991,0.9942,1.0125,0.9646,0.9148,0.8859,0.8553,0.8498,0.8347,0.8124,0.8004,0.7955,0.7822,0.7823,0.7696,0.7129,0.6572,0.6423,0.7455,0.391,0.0,0.0,0.0,0.0,0.0,0.0,0.0,0.0,0.0,0.0,0.0,0.0,0.0,0.0,0.0,0.0,0.0,0.0,0.0,0.0,0.0,0.0,0.0,0.0,0.0,0.0,0.5556,0.885,0.859,0.8401,0.834,0.8303,0.813,0.8038,0.8038,0.8038,0.8038,0.8038,0.8038,0.8038,0.8038,0.8038,0.8038,0.8038,0.8038,0.7981,0.7978,0.7989,0.8035,0.8022,0.7969,1.1192,1.5787,1.5772,1.722,1.9131,0.0,0.0,0.0,0.0,0.0,0.0,0.0,0.0,0.0,0.0,0.0,0.0,0.0,0.0,-0.1014,-0.343,-0.531,-0.5791,-0.4714,-0.5284,-0.4049,-0.0119,0.0,0.0,0.0,0.0,0.0,0.0,0.0,0.0,0.0,0.0,0.0,0.0,0.0,0.0,0.0,0.0,0.1724,0.4866,0.8895,1.0482,1.052,0.9926,0.9529,0.9347,0.8853,0.8603,0.0,0.8111,0.8037,0.7999,0.7983,0.7967,0.7908,0.7698,0.7022,0.6459,0.7289,0.5572,0.3036,0.0621,0.0,0.0,0.0,0.0,0.0,0.0,0.0,0.0,0.0,0.0,0.0,0.0,0.0,0.0,0.0,0.0,0.0,0.0,0.0,0.0,0.0,0.0,0.0,0.0,0.398,0.7019,0.8675,0.8491,0.8425,0.8381,0.8119,0.8038,0.8038,0.8038,0.8038,0.8038,0.8038,0.7985,0.7968,0.7968,0.8008,0.7981,0.8402,0.8296,0.8074,0.8348,1.0112,1.2548,1.2575,1.3876,1.577,1.5799,1.8272,2.1591,0.0,0.0,0.0,0.0,0.0,0.0,0.0,0.0,0.0,0.0,0.0,-0.035,-0.1361,-0.1516,-0.2709,-0.5803,-0.6202,-0.6747,-0.7934,-0.9133,-0.6922,-0.0238,0.0,0.0,0.0,0.0,0.0,0.0,0.0,0.0,0.0,0.0,0.0,0.0,0.0,0.0,0.0,0.0,0.0,0.0667,0.7806,1.0675,1.0656,1.0026,0.9561,0.9269,0.8838,0.8343,0.7858,0.7574,0.7604,0.7813,0.7923,0.8005,0.7897,0.7616,0.6949,0.6456,0.6933,0.6972,0.5908,0.2241,0.0682,0.0,0.0,0.0,0.0,0.0,0.0,0.0,0.0,0.0,0.0,0.0,0.0,0.0,0.0,0.0,0.0,0.0,0.0,0.0,0.0,0.0,0.0,0.0,0.2037,0.496,0.8726,0.8639,0.8464,0.8319,0.8099,0.8038,0.8038,0.8038,0.8038,0.8038,0.8038,0.7995,0.7998,0.8126,0.8247,0.8322,0.8696,0.863,0.834,1.0095,1.2746,1.5793,1.5843,1.4936,1.3688,1.366,1.685,2.1112,0.0,0.0,0.0,0.0,0.0,0.0,0.0,0.0,0.0,0.0,0.0,0.0,0.0,-0.5244,-0.5295,-0.542,-0.5996,-0.6807,-0.7944,-0.9131,-0.6901,-0.0233,0.0,0.0,0.0,0.0,0.0,0.0,0.0,0.0,0.0,0.0,0.0,0.0,0.0,0.0,0.0,0.0,0.0,0.0667,0.7819,1.0753,1.0631,0.9982,0.9019,0.8041,0.8041,0.7344,0.6406,0.6331,0.6685,0.7218,0.7846,0.8039,0.7768,0.6711,0.6314,0.6379,0.6978,0.7501,0.7406,0.5333,0.2368,0.0,0.0,0.0,0.0,0.0,0.0,0.0,0.0,0.0,0.0,0.0,0.0,0.0,0.0,0.0,0.0,0.0,0.0,0.0,0.0,0.0,0.0,0.0,0.0111,0.27,0.8567,0.8595,0.8313,0.8052,0.8041,0.8038,0.8038,0.8038,0.8038,0.8038,0.8038,0.8041,0.8048,0.865,0.8898,0.8911,0.8905,0.8874,0.9226,1.3696,1.5642,1.5799,1.5757,1.2721,0.8258,0.821,1.1576,1.6021,0.0,0.0,0.0,0.0,0.0,0.0,0.0,0.0,0.0,0.0,0.0,0.0,0.0,0.0,0.0,0.0,-0.5953,-0.6493,-0.6851,-0.7923,-0.8008,-0.6574,-0.6528,-0.4406,-0.0122,0.0,0.0,0.0,0.0,0.0,0.0,0.0,0.0,0.0,0.0,0.0,0.0,0.0,0.0,0.0659,0.7764,1.0514,1.0072,0.9482,0.8484,0.7313,0.0,0.6592,0.6315,0.6299,0.6131,0.6068,0.6691,0.6892,0.6841,0.6877,0.6814,0.6939,0.7521,0.7808,0.7895,0.7469,0.6936,0.5412,0.1041,0.0,0.0,0.0,0.0,0.0,0.0,0.0,0.0,0.0,0.0,0.0,0.0,0.0,0.0,0.0,0.0,0.0,0.0,0.0,0.0,0.0,0.1638,0.4355,0.8086,0.8319,0.8302,0.8045,0.8038,0.7985,0.7985,0.7989,0.7989,0.7985,0.8039,0.8014,0.7988,0.8619,1.1037,1.4412,1.0531,0.8917,0.9304,1.474,1.6555,1.5493,1.2453,0.987,0.7952,0.8016,0.9126,1.112,0.0,0.0,0.0,0.0,0.0,0.0,0.0,0.0,0.0,0.0,0.0,0.0,0.0,0.0,0.0,0.0,0.0,-0.6067,-0.6325,-0.7018,-0.7974,-0.9396,-0.9475,-0.6458,-0.0116,0.0,0.0,0.0,0.0,0.0,0.0,0.0,0.0,0.0,0.0,0.0,0.0,0.0,0.0,0.0377,0.5056,0.784,0.9123,0.9017,0.8125,0.0,0.6463,0.6198,0.5964,0.6009,0.5838,0.5774,0.6154,0.6391,0.6692,0.7038,0.727,0.7538,0.7942,0.8201,0.8342,0.8841,0.9296,0.8602,0.4433,0.1692,0.0,0.0,0.0,0.0,0.0,0.0,0.0,0.0,0.0,0.0,0.0,0.0,0.0,0.0,0.0,0.0,0.0,0.0,0.0,0.0,0.3574,0.6396,0.7878,0.8107,0.8119,0.8022,0.7965,0.7985,0.7978,0.8192,0.8192,0.7978,0.8223,0.9191,1.0822,1.1599,1.4079,1.7404,1.368,1.1959,1.2321,1.6019,1.7181,1.5953,1.0897,0.8557,0.8011,0.8258,0.9404,1.1268,0.0,0.0,0.0,0.0,0.0,0.0,0.0,0.0,0.0,0.0,0.0,0.0,0.0,0.0,0.0,0.0,0.0,0.0,-0.621,-0.6239,-0.7021,-0.8715,-0.8564,-0.5779,-0.0108,0.0,0.0,0.0,0.0,0.0,0.0,0.0,0.0,0.0,0.0,0.0,0.0,0.0,0.0,0.0,0.0,0.3044,0.7694,0.8505,0.8016,0.6963,0.6503,0.5927,0.5455,0.5425,0.5827,0.636,0.6357,0.6681,0.7121,0.7146,0.7576,0.8115,0.8343,0.855,0.892,0.95,0.955,0.9402,0.9535,0.4852,0.0366,0.0118,0.0,0.0,0.0,0.0,0.0,0.0,0.0,0.0,0.0,0.0,0.0,0.0,0.0,0.0,0.0,0.0,0.0,0.0,0.5198,0.837,0.8014,0.805,0.7955,0.7955,0.8016,0.8041,0.7952,0.8567,0.8567,0.8048,0.8594,1.1244,1.589,1.7014,1.7639,1.762,1.7615,1.7556,1.7623,1.764,1.7531,1.6971,1.1151,0.8549,0.8037,0.8656,1.1786,1.5776,0.0,0.0,0.0,0.0,0.0,0.0,0.0,0.0,0.0,0.0,0.0,0.0,0.0,0.0,0.0,0.0,0.0,0.0,-0.5609,-0.5627,-0.6036,-0.6943,-0.3933,-0.1524,-0.0,0.0,0.0,0.0,0.0,0.0,0.0,0.0,0.0,0.0,0.0,0.0,0.0,0.0,0.0,0.0,0.0,0.0797,0.2438,0.5721,0.6757,0.6459,0.6364,0.6183,0.5972,0.5538,0.6363,0.7465,0.708,0.7109,0.7429,0.787,0.8133,0.8532,0.8954,0.9395,0.9774,1.0042,1.0046,0.9214,0.6683,0.6805,0.592,0.1029,0.0,0.0,0.0,0.0,0.0,0.0,0.0,0.0,0.0,0.0,0.0,0.0,0.0,0.0,0.0,0.0,0.0,0.0,0.1396,0.4156,0.8444,0.8263,0.7955,0.7955,0.8016,0.7992,0.8001,0.8109,0.8109,0.7998,0.8195,1.0907,1.5823,1.7089,1.7565,1.7576,1.7643,1.7616,1.7615,1.7596,1.7081,1.5719,1.0327,0.8133,0.8067,0.8157,1.1458,1.5776,0.0,0.0,0.0,0.0,0.0,0.0,0.0,0.0,0.0,0.0,0.0,0.0,0.0,0.0,0.0,0.0,0.0,0.0,0.0,-0.5384,-0.5646,-0.6268,-0.2217,0.0,0.0,0.0,0.0,0.0,0.0,0.0,0.0,0.0,0.0,0.0,0.0,0.0,0.0,0.0,0.0,0.0,0.0,0.0,0.0266,0.262,0.4651,0.6299,0.6304,0.6277,0.6321,0.6676,0.7375,0.813,0.7642,0.7649,0.8004,0.8404,0.8735,0.9079,0.9547,0.9907,1.0188,1.0354,1.0249,0.9666,0.7858,0.6444,0.4472,0.0752,0.0,0.0,0.0,0.0,0.0,0.0,0.0,0.0,0.0,0.0,0.0,0.0,0.0,0.0,0.0,0.0,0.0,0.0,0.1207,0.4002,0.8655,0.8577,0.8257,0.8043,0.8008,0.7975,0.7955,0.7994,0.7951,0.8026,0.8048,1.0695,1.58,1.7042,1.7571,1.7613,0.0,1.6137,1.3986,1.6555,1.6863,1.5555,1.2547,1.0016,0.8247,1.0558,1.3325,1.6255,0.0,0.0,0.0,0.0,0.0,0.0,0.0,0.0,0.0,0.0,-0.5428,0.0,0.0,0.0,0.0,0.0,0.0,0.0,0.0,0.0,-0.5448,-0.5426,-0.1918,0.0,0.0,0.0,0.0,0.0,0.0,0.0,0.0,0.0,0.0,0.0,0.0,0.0,0.0,0.0,0.0,0.0,0.0,0.0,0.0,0.0,0.2271,0.5503,0.5439,0.5843,0.6663,0.8066,0.8544,0.8477,0.8167,0.8352,0.8635,0.896,0.9347,0.9734,1.0029,1.0222,1.0375,1.0377,1.0448,1.0404,1.0594,0.5127,0.0,0.0,0.0,0.0,0.0,0.0,0.0,0.0,0.0,0.0,0.0,0.0,0.0,0.0,0.0,0.0,0.0,0.0,0.0355,0.1267,0.3616,0.6234,0.8712,0.8849,0.8611,0.8027,0.8123,0.8054,0.8028,0.8006,0.8011,0.8052,0.8702,1.138,1.5795,1.686,1.7286,1.7023,1.6617,1.3805,0.9939,1.5137,1.6767,1.5795,1.583,1.2586,0.8597,1.3077,1.5217,1.6871,0.0,0.0,0.0,0.0,0.0,0.0,0.0,0.0,0.0,0.0,-0.5428,-0.5428,0.0,0.0,0.0,0.0,0.0,0.0,0.0,0.0,0.0,-0.1238,-0.0371,0.0,0.0,0.0,0.0,0.0,0.0,0.0,0.0,0.0,0.0,0.0,0.0,0.0,0.0,0.0,0.0,0.0,0.0,0.0,0.0,0.0,0.0,0.0,0.1121,0.3582,0.7152,0.84,0.8837,0.8776,0.8789,0.8859,0.912,0.9544,0.9812,1.0036,1.0334,1.0541,1.0649,1.0685,1.0644,1.0619,1.0642,0.5154,0.0,0.0,0.0,0.0,0.0,0.0,0.0,0.0,0.0,0.0,0.0,0.0,0.0,0.0,0.0,0.0,0.0,0.0,0.2198,0.7645,0.8085,0.8326,0.8873,0.8934,0.8608,0.8024,0.8522,0.8544,0.7979,0.7952,0.8011,0.8055,1.2412,1.4887,1.5795,1.6063,1.5352,1.392,1.1514,0.0,1.2684,1.508,1.6011,1.5831,1.5778,1.2634,0.8092,0.9021,1.2097,1.7075,0.0,0.0,0.0,0.0,0.0,0.0,0.0,-0.308,-0.5391,-0.5369,-0.5375,-0.5391,-0.5386,-0.5376,-0.5406,0.0,0.0,0.0,0.0,0.0,0.0,-0.0142,0.0,0.0,0.0,0.0,0.0,0.0,0.0,0.0,0.0,0.0,0.0,0.0,0.0,0.0,0.0,0.0,0.0,0.0,0.0,0.0,0.0,0.0,0.0,0.0,0.0,0.3066,0.719,0.7801,0.8632,0.9373,0.9238,0.932,0.9574,0.9951,1.0114,1.0236,1.0544,1.069,1.0724,1.0737,1.0651,0.9664,0.5934,0.2429,0.0,0.0,0.0,0.0,0.0,0.0,0.0,0.0,0.0,0.0,0.0,0.0,0.0,0.0,0.0,0.0,0.0,0.3042,0.4997,0.473,0.4486,0.5597,0.8693,0.5955,0.4105,0.382,0.6796,0.8299,0.7975,0.8019,0.8011,0.8055,1.3263,1.5973,1.6236,1.5921,1.4891,1.3331,1.3378,1.322,1.3164,1.6695,1.7251,1.5963,1.721,1.5391,1.2374,1.4956,1.7417,2.0569,0.0,0.0,0.0,0.0,0.0,0.0,0.0,-0.3211,-0.5594,-0.5565,-0.5581,-0.556,-0.5595,-0.4806,-0.425,0.0,0.0,0.0,0.0,0.0,0.0,0.0,0.0,0.0,0.0,0.0,0.0,0.0,0.0,0.0,0.0,0.0,0.0,0.0,0.0,0.0,0.0,0.0,0.0,0.0,0.0,0.0,0.0,0.0,0.0,0.0,0.0,0.2424,0.5724,0.6762,0.7711,0.8496,0.8457,0.9108,0.9846,1.0246,1.0373,1.0489,1.0643,1.0744,1.0741,1.0737,0.9557,0.6975,0.1331,0.0,0.0,0.0,0.0,0.0,0.0,0.0,0.0346,0.1391,0.0709,0.0,0.0,0.0,0.0,0.0,0.0,0.0,0.0,0.4668,0.5573,0.0343,0.0,0.2071,0.6789,0.2543,0.0,0.0,0.4118,0.6802,0.804,0.7981,0.8018,0.8062,1.252,1.5174,1.5928,1.6095,1.5167,1.345,1.5059,1.4577,1.2955,1.7007,1.8037,1.7044,1.8226,1.7873,1.7152,2.1516,2.3672,2.5039,0.0,0.0,0.0,0.0,0.0,0.0,0.0,-0.3563,-0.6246,-0.623,-0.6244,-0.6193,-0.619,-0.2775,-0.0479,0.0,0.0,0.0,0.0,0.0,0.0,0.0,0.0,0.0,0.0,0.0,0.0,0.0,0.0,0.0,0.0,0.0,0.0,0.0,0.0,0.0,0.0,0.0,0.0,0.0,0.0,0.0,0.0,0.0,0.0,0.0,0.0,0.0259,0.1355,0.5686,0.5806,0.4272,0.5047,0.7376,0.9851,1.0257,1.051,1.0645,1.0685,1.0714,1.0765,1.0746,0.5824,0.0814,0.0109,0.0,0.0,0.0,0.0,0.0,0.0,0.0,0.1445,0.5742,0.2835,0.0,0.0,0.0,0.0,0.0,0.0,0.0,0.0,0.0563,0.0675,0.0,0.0,0.0226,0.0802,0.0339,0.0,0.0,0.0428,0.305,0.7917,0.7955,0.8041,0.7984,1.004,1.191,1.3596,1.6246,1.598,1.3303,1.0826,1.1038,0.0,1.3188,1.6197,2.0432,1.7342,1.7386,1.9478,2.214,2.5655,2.9234,0.0,0.0,0.0,0.0,0.0,0.0,0.0,-0.3565,-0.6283,-0.6291,-0.6316,-0.6273,-0.6294,-0.2499,0.0,0.0,0.0,0.0,0.0,0.0,0.0,0.0,0.0,0.0,0.0,0.0,0.0,0.0,0.0,0.0,0.0,0.0,0.0,0.0,0.0,0.0,0.0,0.0,0.0,0.0,0.0,0.0,0.0,0.0,0.0,0.0,0.0,0.0,0.026,0.2223,0.3217,0.3786,0.4645,0.5783,0.6856,0.7062,0.7099,0.7707,1.0104,1.0721,0.9679,0.5335,0.2083,0.0,0.0,0.0,0.0,0.0,0.0,0.0,0.0,0.0,0.1547,0.6295,0.5479,0.3272,0.0378,0.0,0.0,0.0,0.0,0.0,0.0,0.0,-0.1457,-0.5077,-0.7901,-0.8097,-0.4942,-0.1792,0.0,0.0,0.0,0.179,0.5588,0.6259,0.7503,0.9193,1.0766,1.2253,1.3636,1.5622,1.6149,1.5385,1.3754,1.2926,0.0,1.5946,1.7545,1.8119,1.9583,2.2487,2.5484,2.3773,2.5945,2.9788,0.0,0.0,0.0,0.0,0.0,0.0,0.0,-0.3424,-0.5997,-0.6009,-0.6191,-0.6313,-0.6313,-0.2522,0.0,0.0,0.0,0.0,0.0,0.0,0.0,0.0,0.0,0.0,0.0,0.0,0.0,0.0,0.0,0.0,0.0,0.0,0.0,0.0,0.0,0.0,0.0,0.0,0.0,0.0,0.0,0.0,0.0,0.0,0.0,0.0,0.0,0.0,0.0,0.0,0.0,0.2602,0.3227,0.3485,0.3494,0.3506,0.3486,0.4012,0.6746,0.7471,0.6351,0.1284,0.0,0.0,0.0,0.0,0.0,0.0,0.0,0.0411,0.1671,0.1853,0.2928,0.6302,0.6975,0.5658,0.1626,0.046,0.0,0.0,0.0,0.0,0.0,-0.1559,-0.4377,-0.8594,-1.3197,-1.3856,-0.9374,-0.483,-0.1639,-0.0,0.0,0.1686,0.5178,0.5962,0.7623,1.0216,1.1514,1.2888,1.4418,1.6327,1.7397,1.7618,1.8537,1.7653,0.0,1.9622,2.0743,2.0251,2.3701,2.6214,2.7638,2.5766,2.7081,2.9801,0.0,0.0,0.0,0.0,0.0,0.0,0.0,-0.3072,-0.538,-0.5418,-0.595,-0.6266,-0.6299,-0.2551,0.0,0.0,0.0,0.0,0.0,0.0,0.0,0.0,0.0,0.0,0.0,0.0,0.0,0.0,0.0,0.0,0.0,0.0,0.0,0.0,0.0,0.0,0.0,0.0,0.0,0.0,0.0,0.0,0.0,0.0,0.0,0.0,0.0,0.0,0.0,0.0,0.0,0.0,0.0,0.0087,0.0091,0.0099,0.0,0.0116,0.012,0.0125,0.0128,0.0,0.0,0.0,0.0,0.0,0.0,0.0,0.0,0.1256,0.5468,0.6254,0.626,0.6321,0.673,0.6248,0.3916,0.1508,0.0,0.0,0.0,0.0,0.0,-0.5298,-0.8795,-0.8882,-1.3227,-1.4606,-1.1954,-0.9391,-0.5497,-0.0212,0.0,0.2538,0.7933,0.7975,0.8881,1.0564,1.1487,1.3273,1.5826,1.9098,2.0222,1.9712,2.4386,2.5093,0.0,2.3063,2.5703,2.9639,2.9751,2.7069,2.3674,2.8096,2.9764,2.9838,0.0,0.0,0.0,0.0,0.0,0.0,0.0,-0.3057,-0.5378,-0.5374,-0.5601,-0.5681,-0.5705,-0.2317,0.0,0.0,0.0,0.0,0.0,0.0,0.0,0.0,0.0,0.0,0.0,0.0,0.0,0.0,0.0,0.0,0.0,0.0,0.0,0.0,0.0,0.0,0.0,0.0,0.0,0.0,0.0,0.0,0.0,0.0,0.0,0.0,0.0,0.0,0.0,0.0,0.0,0.0,0.0,0.0,0.0,0.0,0.0,0.0,0.0,0.0,0.0,0.0,0.0,0.0,0.0,0.0,0.0,0.0,0.2631,0.5112,0.6097,0.6268,0.6294,0.6286,0.646,0.6458,0.6008,0.2553,0.0,0.0,-0.3183,-0.5649,-0.6033,-0.7782,-1.0895,-1.5736,-1.6627,-1.5648,-1.2408,-1.1498,-0.8598,-0.323,-0.1045,0.0834,0.2484,0.7932,1.0668,1.0671,1.2558,1.4852,1.7505,1.9745,2.1174,2.2148,2.5215,2.6929,2.764,2.7694,2.85,2.9763,2.9791,2.8907,2.7885,2.9295,2.7889,2.5245,0.0,0.0,0.0,0.0,0.0,0.0,0.0,-0.1942,-0.3852,-0.5245,-0.4201,-0.387,-0.5275,-0.2148,0.0,0.0,0.0,0.0,0.0,0.0,0.0,0.0,0.0,0.0,0.0,0.0,0.0,0.0,0.0,0.0,0.0,0.0,0.0,0.0,0.0,0.0,0.0,0.0,0.0,0.0,0.0,0.0,-0.0157,0.0,0.0,0.0,0.0,0.0,0.0,0.0,0.0,0.0,0.0,0.0,0.0,0.0,0.0,0.0,0.0,0.0,0.0,0.0,0.0,0.0,0.0,0.0,0.0,0.0,0.2337,0.4315,0.3972,0.526,0.5789,0.4144,0.5301,0.643,0.6757,0.2916,0.0,0.0,-0.4941,-0.8459,-0.8881,-0.9069,-1.1895,-1.8273,-1.7976,-1.6337,-1.332,-1.2416,-1.0132,-0.6077,-0.208,0.0,0.0,0.6007,0.9599,1.0659,1.2463,1.4746,1.742,1.9347,2.1275,2.3183,2.5198,2.7499,0.0,2.9792,2.9788,2.9843,2.9766,2.9799,2.9597,2.7924,2.5128,2.2128,0.0,0.0,0.0,0.0,0.0,0.0,0.0,0.0,-0.1205,-0.4579,-0.2074,-0.1283,-0.4616,-0.2045,0.0,0.0,0.0,0.0,0.0,0.0,0.0,0.0,0.0,0.0,0.0,0.0,0.0,0.0,0.0,0.0,0.0,0.0,0.0,0.0,0.0,0.0,0.0,0.0,0.0,0.0,0.0,0.0,0.0,0.0,0.0,0.0,0.0,0.0,0.0,0.0,0.0,0.0,0.0,0.0,0.0,0.0,0.0,0.0,0.0,0.0,0.0,0.0,0.0,0.0,0.0,0.0,0.0,0.0,0.0,0.0,0.0,0.3176,0.4553,0.0628,0.3272,0.5887,0.5852,0.2147,-0.0603,-0.0537,-0.5469,-0.9008,-0.9227,-0.9894,-1.2372,-1.7264,-1.7609,-1.6714,-1.4509,-1.2506,-1.0557,-0.8558,-0.3354,-0.053,-0.0318,0.2911,0.6382,1.0201,1.1463,1.3285,1.5624,1.8072,2.0508,0.0,2.4481,2.6752,2.9378,2.9658,2.9764,2.9727,2.9444,2.9326,2.8762,2.42,2.1482,2.018,0.0,0.0,0.0,0.0,0.0,0.0,0.0,0.0,0.0,0.0,-0.0537,-0.0336,-0.1154,-0.0541,0.0,0.0,0.0,0.0,0.0,0.0,0.0,0.0,0.0,0.0,0.0,0.0,0.0,0.0,0.0,0.0,0.0,0.0,0.0,0.0,0.0,0.0,0.0,0.0,0.0,0.0,0.0,0.0,0.0,0.0,0.0,0.0,-0.5711,-0.5266,0.0,0.0,0.0,0.0,0.0,0.0,0.0,0.0,-0.2256,-0.4114,-0.0906,0.0,0.0,0.0,0.0,0.0,0.0,0.0,0.0,0.0,0.0,0.0,0.0,0.0796,0.1117,0.0168,0.0865,0.1509,0.1451,-0.3309,-0.6657,-0.617,-0.8032,-1.012,-1.2092,-1.4856,-1.679,-1.7534,-1.7577,-1.6782,-1.4752,-1.415,-1.3032,-1.1074,-0.7973,-0.5341,-0.3117,0.162,0.4841,0.6535,0.9557,1.2124,1.4266,1.5893,1.7617,1.9422,2.2221,2.3972,2.4902,2.836,2.9774,2.9468,2.5991,2.4686,2.4016,1.8279,1.5973,1.5668,0.0,0.0,0.0,0.0,0.0,0.0,0.0,0.0,0.0,0.0,0.0,0.0,0.0,0.0,0.0,0.0,0.0,0.0,0.0,0.0,0.0,0.0,0.0,0.0,0.0,0.0,0.0,0.0,0.0,0.0,0.0,0.0,0.0,0.0,0.0,0.0,0.0,0.0,0.0,0.0,-0.178,0.0,0.0,0.0,0.0,0.0,-0.5764,-0.6194,0.0,-0.3663,-0.2267,-0.1407,0.0,0.0,0.0,0.0,-0.2981,-0.4542,-0.3265,-0.1504,0.0,0.0,0.0,0.0,0.0,0.0,0.0,0.0,0.0,-0.062,-0.2515,-0.2912,-0.3045,-0.3562,-0.3658,-0.3694,-0.3716,-0.8556,-1.22,-1.2365,-1.2028,-1.2358,-1.3593,-1.5735,-1.7258,-1.7877,-1.7919,-1.7547,-1.697,-1.6312,-1.581,-1.5228,-1.2565,-1.0046,-0.7691,-0.1836,0.101,0.1118,0.4916,0.7442,0.8735,1.04,1.2398,1.4759,1.9355,2.1996,2.3463,2.7973,2.9824,2.9568,2.715,2.444,2.1326,1.6057,1.4085,1.3788,0.0,0.0,0.0,0.0,0.0,0.0,0.0,0.0,0.0,0.0,0.0,0.0,0.0,0.0,0.0,0.0,0.0,0.0,0.0,0.0,0.0,0.0,0.0,0.0,0.0,0.0,0.0,-0.0,-0.0618,-0.0641,0.0,0.0,0.0,0.0,0.0,0.0,0.0,0.0,0.0,0.0,-0.428,0.0,0.0,0.0,0.0,0.0,0.0,0.0,0.0,-0.6276,-0.506,-0.3571,-0.3482,0.0,0.0,0.0,0.0,0.0,-0.5825,-0.3773,-0.0972,-0.0566,-0.0485,-0.0404,-0.0081,0.0,0.0,0.0,-0.0532,-0.2059,-0.5631,-0.6041,-0.6301,-0.7651,-0.7903,-0.8307,-0.9351,-1.2876,-1.5786,-1.6952,-1.5532,-1.4374,-1.4333,-1.4948,-1.6133,-1.7987,-1.8333,-1.8688,-1.9472,-1.8572,-1.8497,-1.9468,-1.662,-1.4416,-1.285,-0.6733,-0.3875,-0.4166,-0.0605,0.1299,0.1771,0.4137,0.6498,0.9127,0.0,0.0,2.3504,2.8599,3.0688,3.0581,2.9656,2.5769,2.0116,1.5885,1.4401,1.3844,0.0,0.0,0.0,0.0,0.0,0.0,0.0,0.0,0.0,0.0,0.0,0.0,0.0,0.0,0.0,0.0,0.0,0.0,0.0,0.0,0.0,0.0,0.0,0.0,0.0,0.0,0.0,-0.0,-0.3547,-0.3499,0.0,0.0,0.0,0.0,0.0,0.0,0.0,0.0,0.0,0.0,-0.5964,0.0,0.0,0.0,0.0,0.0,0.0,0.0,0.0,-0.6071,-0.5852,-0.5526,-0.5427,0.0,0.0,0.0,0.0,0.0,-0.6357,-0.6222,-0.5253,-0.3159,-0.2594,-0.2188,-0.0383,0.0,0.0,0.0,-0.2851,-0.5532,-0.6218,-0.5012,-0.4702,-0.688,-0.7709,-0.9857,-1.5358,-1.4504,-1.3672,-1.4807,-1.4078,-1.3885,-1.4947,-1.5204,-1.6071,-1.7603,-1.8709,-1.9265,-1.9137,-1.9992,-2.0408,-2.0265,-1.8482,-1.7387,-1.7134,-1.1915,-0.8124,-0.5669,-0.4674,-0.3646,-0.271,0.1313,0.2593,0.2132,0.0,1.8922,2.3674,3.1428,3.4648,3.4101,2.9007,2.4359,2.016,1.679,1.5531,1.5797,0.0,0.0,0.0,0.0,0.0,0.0,0.0,0.0,0.0,0.0,0.0,0.0,0.0,0.0,0.0,0.0,0.0,0.0,0.0,0.0,0.0,0.0,-0.219,-0.2329,-0.0071,0.0,-0.1116,-0.3392,-0.532,-0.4153,0.0,0.0,-0.1244,-0.3415,-0.3401,-0.3437,-0.3437,-0.3433,-0.4535,-0.6271,0.0,0.0,0.0,0.0,0.0,0.0,0.0,0.0,0.0,0.0,-0.5915,-0.5901,-0.5844,0.0,0.0,0.0,0.0,0.0,-0.6047,-0.6231,-0.6096,-0.5079,-0.4864,-0.4598,-0.3661,-0.1616,-0.0692,-0.3324,-0.5404,-0.6727,-0.6709,-0.6857,-0.6949,-0.7063,-0.8829,-1.1885,-1.685,-1.6343,-1.5628,-1.602,-1.5864,-1.5867,-1.6655,-1.6908,-1.7652,-1.8872,-1.9484,-2.0292,-2.1147,-2.1739,-2.25,-2.3485,-2.2831,-2.1953,-2.1072,-1.7188,-1.3435,-0.9892,-0.9221,-0.8601,-0.8136,-0.5568,-0.4389,-0.4016,0.0,1.2298,2.7806,2.9792,3.095,3.1144,2.7817,2.4072,2.0438,1.8914,1.8364,1.8873,0.0,0.0,0.0,0.0,0.0,0.0,0.0,0.0,0.0,0.0,0.0,0.0,0.0,0.0,0.0,0.0,0.0,0.0,0.0,0.0,-0.0424,-0.1447,-0.4543,-0.4778,-0.1534,-0.1489,-0.3093,-0.6335,-0.6268,-0.4152,0.0,0.0,-0.2271,-0.629,-0.6284,-0.6288,-0.6288,-0.6278,-0.6274,-0.6338,0.0,0.0,0.0,0.0,0.0,0.0,0.0,0.0,0.0,0.0,0.0,0.0,0.0,0.0,0.0,-0.5569,-0.5613,-0.5691,-0.565,-0.5857,-0.6105,-0.6186,-0.6235,-0.6222,-0.6364,-0.3679,-0.209,-0.5621,-0.6837,-0.7174,-0.7111,-0.8516,-0.9456,-0.8475,-1.0414,-1.3404,-1.7114,-1.7551,-1.7606,-1.7617,-1.7627,-1.7781,-1.8331,-1.8564,-1.9118,-2.0076,-2.0891,-2.1717,-2.2654,-2.3946,-2.5401,-2.6833,-2.7227,-2.6583,-2.4794,-2.2814,-1.9448,-1.4558,-1.3412,-1.3199,-1.3791,-1.2476,-1.1675,-1.1085,-0.248,1.2296,3.0156,2.7977,2.7042,2.6799,2.5588,2.3547,2.1281,2.1819,2.2454,2.3615,0.0,0.0,0.0,0.0,0.0,0.0,0.0,0.0,0.0,0.0,0.0,0.0,0.0,0.0,0.0,0.0,0.0,0.0,0.0,0.0,-0.1766,-0.5696,-0.6124,-0.6186,-0.5881,-0.5813,-0.5964,-0.6264,-0.6331,-0.4166,0.0,0.0,-0.2258,-0.6337,-0.6335,-0.6264,-0.6264,-0.6264,-0.6264,-0.6325,-0.6324,0.0,0.0,0.0,0.0,0.0,0.0,0.0,0.0,0.0,0.0,0.0,0.0,0.0,-0.5459,-0.5449,-0.5452,-0.545,-0.5715,-0.601,-0.6213,-0.6078,-0.5989,-0.619,-0.6678,-0.5577,-0.4403,-0.4259,-0.5866,-0.7348,-0.7135,-0.8605,-1.0259,-1.1737,-1.239,-1.3855,-1.7161,-1.7603,-1.7654,-1.7569,-1.7575,-1.8101,-1.9354,-1.948,-1.9731,-2.0265,-2.3314,-2.4094,-2.1914,-2.6836,-2.9626,-2.9258,-3.0495,-3.0162,-2.8262,-2.9235,-2.6066,-1.8757,-1.6484,-1.6953,-1.9618,-1.6769,-1.7828,-2.0087,1.3886,2.7999,2.6968,2.8248,2.6884,2.3616,2.1732,2.1808,2.3158,2.5274,2.8075,3.078,0.0,0.0,0.0,0.0,0.0,0.0,0.0,0.0,0.0,0.0,0.0,0.0,0.0,0.0,0.0,0.0,0.0,0.0,0.0,0.0,-0.1718,-0.5545,-0.6136,-0.6291,-0.6271,-0.6287,-0.6287,-0.6268,-0.6276,-0.5454,-0.3934,-0.3955,-0.476,-0.6334,-0.6332,-0.6338,-0.6338,-0.6338,-0.6046,-0.5809,-0.6156,-0.5973,0.0,0.0,0.0,0.0,0.0,0.0,0.0,0.0,-0.5447,-0.5437,-0.5446,-0.5428,-0.5428,-0.5428,-0.5428,-0.5452,-0.5498,-0.5817,-0.6101,-0.6044,-0.6101,-0.6247,-0.6606,-0.6602,-0.6492,-0.6156,-0.7008,-0.8199,-0.967,-1.0797,-1.2299,-1.4825,-1.5549,-1.6219,-1.7402,-1.7627,-1.7582,-1.7582,-1.8297,-1.894,-1.9249,-2.0023,-2.0783,-2.1434,-2.3456,-2.5554,-2.7602,-2.9786,-3.0809,-3.0445,-3.2609,-3.2806,-3.0788,-3.2146,-3.095,-2.7261,-2.562,-2.3414,-2.0692,-1.8334,-0.9483,0.5059,2.3559,2.9554,2.6339,2.7026,2.6074,2.4085,2.2146,2.3806,2.7868,3.3054,3.4587,3.4048,0.0,0.0,0.0,0.0,0.0,0.0,0.0,0.0,0.0,0.0,0.0,0.0,0.0,0.0,0.0,0.0,0.0,0.0,-0.1603,-0.1697,-0.2865,-0.5535,-0.5861,-0.6088,-0.6264,-0.6291,-0.629,-0.6338,-0.6314,-0.6364,-0.6513,-0.637,-0.628,-0.6337,-0.6338,-0.6266,-0.6263,-0.6294,-0.5976,-0.5439,-0.597,-0.5872,0.0,0.0,0.0,0.0,0.0,0.0,0.0,0.0,-0.5428,-0.5428,-0.5428,-0.5428,-0.5428,-0.5428,-0.5428,-0.5418,-0.5301,-0.5583,-0.5878,-0.583,-0.6074,-0.6383,-0.6675,-0.7095,-0.7559,-0.7643,-0.8077,-0.9143,-1.1392,-1.2452,-1.3562,-1.5607,-1.6932,-1.759,-1.7555,-1.7502,-1.7435,-1.7435,-1.8473,-1.9419,-1.9956,-2.0834,-2.1917,-2.3398,-2.4866,-2.7522,-3.1518,-3.2227,-3.2444,-3.245,-3.4923,-3.5374,-3.358,-3.5298,-3.5606,-3.4574,-3.4416,-3.1529,-2.6423,-2.5765,-1.4049,0.6541,2.1543,2.6911,2.5122,2.5612,2.5477,2.4888,2.3522,2.6034,3.0934,3.614,3.7069,3.5578,0.0,0.0,0.0,0.0,0.0,0.0,0.0,0.0,0.0,0.0,0.0,0.0,0.0,0.0,0.0,0.0,0.0,0.0,-0.519,-0.5401,-0.5674,-0.6259,-0.5734,-0.5653,-0.6257,-0.6264,-0.6266,-0.6338,-0.6264,-0.6581,-0.7061,-0.6581,-0.6264,-0.6331,-0.6335,-0.6264,-0.6325,-0.6317,-0.595,-0.544,-0.5664,-0.5627,-0.5461,0.0,0.0,0.0,0.0,0.0,0.0,0.0,-0.5428,-0.5428,-0.5428,-0.5428,-0.5428,-0.5428,-0.5428,-0.5328,-0.5176,-0.5355,-0.5555,-0.5473,-0.5928,-0.6556,-0.6865,-0.7044,-0.736,-0.8116,-0.8913,-0.997,-1.1619,-1.3119,-1.4043,-1.3886,-1.5994,-1.7575,-1.7582,-1.7211,-1.7018,-1.7018,-1.796,-1.9482,-2.1972,-2.2215,-2.3348,-2.6019,-2.8205,-3.0331,-3.2513,-3.3937,-3.4939,-3.5464,-3.7636,-3.8099,-3.6694,-3.9289,-4.0292,-3.9713,-4.1782,-4.112,-3.8129,-4.0185,-3.5791,-2.4787,0.6708,2.1229,2.2797,2.4208,2.5125,2.5552,2.5535,2.7938,3.1623,3.301,3.4477,3.5501,0.0,0.0,0.0,0.0,0.0,0.0,0.0,0.0,0.0,0.0,0.0,0.0,0.0,0.0,0.0,0.0,0.0,0.0,-0.5306,-0.5823,-0.6129,-0.6323,-0.5706,-0.5475,-0.5647,-0.6059,-0.6294,-0.6338,-0.628,-0.6356,-0.6504,-0.6363,-0.6274,-0.6335,-0.629,-0.6053,-0.5644,-0.5677,-0.5545,-0.5377,-0.5512,-0.5547,-0.5585,0.0,0.0,0.0,0.0,0.0,0.0,0.0,0.0,0.0,-0.5428,-0.5437,-0.5501,-0.5459,-0.5428,-0.5418,-0.5304,-0.5437,-0.5654,-0.5925,-0.6315,-0.6766,-0.7285,-0.7512,-0.8048,-0.9619,-0.9875,-1.0694,-1.3435,-1.4074,-1.4708,-1.596,-1.6662,-1.7041,-1.7248,-1.7021,-1.7123,-1.791,-1.9184,-2.0819,-2.2812,-2.3929,-2.558,-2.8281,-2.909,-3.0996,-3.4423,-3.4356,-3.485,-3.6246,-3.6943,-3.7391,-3.7465,-3.9216,-3.9358,-3.7894,-3.9934,-4.1249,-4.1726,-3.7604,-3.2753,-2.6493,-0.63,0.6441,1.3455,2.0355,2.2889,2.2741,2.5367,2.7645,2.9424,2.9241,2.9115,2.8675,0.0,0.0,0.0,0.0,0.0,0.0,0.0,0.0,0.0,0.0,0.0,0.0,0.0,0.0,0.0,0.0,0.0,0.0,0.0,-0.5974,-0.627,-0.627,-0.5914,-0.5736,-0.5725,-0.6103,-0.6338,-0.6338,-0.6267,-0.6264,-0.6342,-0.6486,-0.6479,-0.6338,-0.6338,-0.6063,-0.5708,-0.5504,-0.5425,-0.5372,-0.537,-0.5503,-0.5586,0.0,0.0,0.0,0.0,0.0,0.0,0.0,0.0,0.0,-0.5428,-0.5423,-0.5481,-0.5456,-0.5428,-0.5415,-0.5287,-0.5467,-0.5752,-0.6084,-0.6525,-0.7034,-0.7638,-0.7929,-0.8732,-1.0884,-1.1057,-1.1633,-1.4604,-1.5097,-1.5474,-1.664,-1.6847,-1.6901,-1.6967,-1.672,-1.7014,-1.8177,-1.9138,-2.0824,-2.3584,-2.5743,-2.7883,-3.0022,-3.1823,-3.355,-3.5268,-3.5633,-3.6073,-3.6617,-3.6958,-3.708,-3.6946,-3.8579,-3.8919,-3.7893,-3.9382,-4.0198,-4.0165,-3.4302,-2.9238,-2.4534,-1.4018,-0.3579,0.651,1.2649,1.7489,2.1273,2.4672,2.67,2.7519,2.6321,2.5518,2.4389,0.0,0.0,0.0,0.0,0.0,0.0,0.0,0.0,0.0,0.0,0.0,0.0,0.0,0.0,0.0,0.0,0.0,0.0,0.0,-0.5969,-0.6271,-0.6282,-0.6286,-0.6286,-0.6286,-0.6266,-0.6338,-0.6338,-0.6338,-0.6338,-0.6342,-0.6799,-0.6792,-0.6338,-0.6338,-0.6245,-0.6237,-0.5664,-0.5372,-0.5372,-0.5372,-0.5416,-0.5442,-0.5515,0.0,0.0,0.0,0.0,0.0,0.0,0.0,0.0,-0.5428,-0.5435,-0.5446,-0.5432,-0.5418,-0.5315,-0.5203,-0.546,-0.5817,-0.6054,-0.6671,-0.7366,-0.7913,-0.8357,-0.9346,-1.1711,-1.2069,-1.2715,-1.5364,-1.6112,-1.6279,-1.6306,-1.674,-1.6974,-1.67,-1.6511,-1.6884,-1.8168,-1.8443,-2.0174,-2.4378,-2.7625,-3.0022,-3.1456,-3.5421,-3.7105,-3.5574,-3.7512,-3.8206,-3.7093,-3.756,-3.7199,-3.5894,-3.7624,-3.8658,-3.8934,-3.9439,-3.8331,-3.5682,-3.1307,-2.6436,-2.1371,-1.8317,-1.0532,0.0156,0.1911,0.9601,2.0519,2.2585,2.4325,2.5495,2.4118,2.3327,2.1881,0.0,0.0,0.0,0.0,0.0,0.0,0.0,0.0,0.0,0.0,0.0,0.0,0.0,0.0,0.0,0.0,0.0,0.0,0.0,-0.6252,-0.6317,-0.6283,-0.629,-0.629,-0.629,-0.6321,-0.6338,-0.6338,-0.6338,-0.6338,-0.6338,-0.645,-0.645,-0.6338,-0.6338,-0.6091,-0.58,-0.5548,-0.5388,-0.5432,-0.5396,-0.5389,-0.5432,-0.5466,-0.5456,0.0,0.0,0.0,0.0,0.0,0.0,0.0,-0.5428,-0.5443,-0.5518,-0.5463,-0.5277,-0.5226,-0.5433,-0.5474,-0.5664,-0.6522,-0.7295,-0.7882,-0.8011,-0.897,-1.0315,-1.1983,-1.2274,-1.3009,-1.5978,-1.6386,-1.6346,-1.6573,-1.6526,-1.644,-1.6373,-1.6964,-1.8033,-1.9669,-2.0051,-2.1777,-2.5733,-2.8839,-3.1653,-3.4061,-3.6152,-3.7482,-3.7866,-3.8772,-3.9463,-3.9754,-3.8755,-3.8163,-3.8019,-3.734,-3.719,-3.7693,-3.6975,-3.6969,-3.7426,-3.3409,-3.0577,-2.8632,-2.6437,-2.0972,-1.3446,-1.0636,0.1401,1.7622,1.3333,1.537,2.0918,2.2482,2.1821,1.8735,0.0,0.0,0.0,0.0,0.0,0.0,0.0,0.0,0.0,0.0,0.0,0.0,0.0,0.0,0.0,0.0,0.0,0.0,0.0,0.0,-0.6332,-0.6335,-0.6338,-0.6338,-0.6338,-0.6266,-0.6308,-0.6308,-0.6308,-0.6266,-0.6264,-0.6329,-0.6325,-0.6264,-0.6332,-0.6152,-0.5803,-0.5653,-0.5487,-0.5428,-0.5428,-0.5428,-0.5428,-0.5428,-0.5428,-0.5428,-0.5428,0.0,0.0,0.0,0.0,0.0,0.0,0.0,-0.5464,-0.5452,-0.5304,-0.5277,-0.5437,-0.5633,-0.6027,-0.7007,-0.759,-0.795,-0.8021,-0.9084,-1.0531,-1.192,-1.2694,-1.3964,-1.6648,-1.6662,-1.6655,-1.789,-1.7036,-1.6697,-1.7662,-1.798,-1.897,-2.1457,-2.2209,-2.4018,-2.7799,-3.0813,-3.3077,-3.4516,-3.6678,-3.7975,-3.8069,-3.9293,-3.9839,-3.9485,-3.8716,-3.8091,-3.7619,-3.6889,-3.6573,-3.6684,-3.5716,-3.5285,-3.5243,-3.2985,-3.2244,-3.2622,-3.0661,-2.5448,-1.8093,-1.5878,-0.7168,0.4819,0.488,0.8121,1.2927,1.4058,1.6583,1.7187,0.0,0.0,0.0,0.0,0.0,0.0,0.0,0.0,0.0,0.0,0.0,0.0,0.0,0.0,0.0,0.0,0.0,0.0,0.0,0.0,0.0,-0.6338,-0.6338,-0.6338,-0.6338,-0.6266,-0.6275,-0.6146,-0.6122,-0.6187,-0.6264,-0.6297,-0.6291,-0.6345,-0.6383,-0.6276,-0.595,-0.583,-0.5584,-0.5428,-0.5456,-0.5452,-0.5428,-0.5428,-0.5428,-0.5428,-0.5428,-0.5432,-0.5432,-0.5432,0.0,0.0,0.0,0.0,-0.5418,-0.537,-0.5356,-0.536,-0.5387,-0.5878,-0.6579,-0.7316,-0.7648,-0.7821,-0.7997,-0.917,-1.0502,-1.1638,-1.3073,-1.4814,-1.7261,-1.707,-1.7149,-1.918,-1.7988,-1.7487,-1.934,-1.9326,-2.0264,-2.3366,-2.4644,-2.6574,-2.9907,-3.2797,-3.4524,-3.4638,-3.7235,-3.8576,-3.787,-3.9648,-4.0121,-3.8821,-3.8567,-3.7866,-3.6748,-3.6496,-3.6156,-3.5749,-3.4644,-3.3291,-3.174,-3.1326,-3.2401,-3.4523,-3.2547,-2.7457,-2.0422,-1.889,-1.5526,-1.0785,-0.5381,-0.0874,0.2605,0.3173,0.902,1.3856,0.0,0.0,0.0,0.0,0.0,0.0,0.0,0.0,0.0,0.0,0.0,0.0,0.0,0.0,0.0,0.0,0.0,0.0,-0.6281,0.0,0.0,-0.6338,-0.6338,-0.6338,-0.6338,-0.6266,-0.6019,-0.5517,-0.5551,-0.5799,-0.6338,-0.6281,-0.6278,-0.6338,-0.6281,-0.6108,-0.581,-0.5942,-0.5752,-0.5442,-0.5576,-0.5549,-0.5428,-0.5428,-0.5428,-0.5428,-0.5372,-0.5376,-0.5376,-0.5376,-0.5376,0.0,0.0,0.0,-0.538,-0.5196,-0.5123,-0.5154,-0.5353,-0.6036,-0.6831,-0.7078,-0.7417,-0.7699,-0.7977,-0.9652,-1.1293,-1.1773,-1.2937,-1.4682,-1.7217,-1.7636,-1.7916,-1.9322,-1.9263,-1.9323,-2.0044,-2.0979,-2.2449,-2.4573,-2.6793,-2.8906,-3.0821,-3.3826,-3.5905,-3.6635,-3.8394,-3.9359,-3.9253,-4.0384,-4.093,-4.0711,-3.9604,-3.8724,-3.8121,-3.6339,-3.5232,-3.4787,-3.2424,-3.0758,-2.9604,-2.9372,-3.1263,-3.457,-3.2504,-3.022,-2.7743,-2.4738,-2.2678,-2.159,-2.2421,-1.7852,-1.023,-0.5951,-0.0523,0.2897,0.0,0.0,0.0,0.0,0.0,0.0,0.0,0.0,0.0,0.0,0.0,0.0,0.0,0.0,0.0,0.0,-0.3849,-0.6305,-0.6281,-0.6268,-0.6338,-0.6338,-0.6338,-0.6338,-0.6338,-0.6266,-0.5986,-0.543,-0.5754,-0.6187,-0.6743,-0.6585,-0.6417,-0.6264,-0.6342,-0.6162,-0.5806,-0.5874,-0.5691,-0.5432,-0.5504,-0.5435,-0.524,-0.5328,-0.5308,-0.5243,-0.5342,-0.5379,-0.5243,-0.4225,-0.4561,-0.5352,-0.5189,0.0,0.0,0.0,-0.4488,-0.3821,-0.4265,-0.517,-0.616,-0.6763,-0.7061,-0.7302,-0.7597,-0.9575,-1.1338,-1.1536,-1.3818,-1.6401,-1.8364,-1.8141,-1.8503,-2.1132,-2.0633,-2.0483,-2.2138,-2.2788,-2.383,-2.5853,-2.7734,-2.9666,-3.1596,-3.348,-3.5165,-3.6605,-3.8046,-3.8815,-3.8634,-3.9774,-4.023,-3.9772,-3.8771,-3.807,-3.7724,-3.5946,-3.4029,-3.2004,-2.9927,-2.7884,-2.5936,-2.5303,-2.7073,-3.0688,-2.9392,-2.7931,-2.6383,-2.4669,-2.3729,-2.3612,-2.4363,-2.3694,-2.1649,-1.5514,-1.2849,-1.3189,0.0,0.0,0.0,0.0,0.0,0.0,0.0,0.0,0.0,0.0,0.0,0.0,0.0,0.0,0.0,0.0,-0.2904,-0.5185,-0.6197,-0.6268,-0.6338,-0.6338,-0.6338,-0.6338,-0.6338,-0.6266,-0.6051,-0.5623,-0.6051,-0.65,-0.6906,-0.6731,-0.6558,-0.6268,-0.641,-0.6244,-0.5861,-0.5861,-0.5688,-0.5416,-0.5446,-0.527,-0.5138,-0.5216,-0.5203,-0.5152,-0.5349,-0.5422,-0.5046,-0.2746,-0.3553,-0.5355,-0.5226,-0.5203,0.0,0.0,0.0,-0.2091,-0.2578,-0.4023,-0.5586,-0.6195,-0.6565,-0.6895,-0.719,-0.9217,-1.115,-1.1263,-1.4044,-1.7109,-1.8881,-1.8926,-1.9645,-2.2795,-2.2169,-2.2013,-2.4115,-2.4327,-2.4943,-2.6892,-2.8053,-2.9529,-3.1845,-3.2776,-3.4006,-3.5812,-3.7271,-3.7893,-3.7416,-3.8587,-3.8909,-3.812,-3.7429,-3.7027,-3.6872,-3.5328,-3.3097,-3.0205,-2.813,-2.5338,-2.2112,-2.1422,-2.2395,-2.4566,-2.4888,-2.4723,-2.4294,-2.4141,-2.4103,-2.4174,-2.5165,-2.7274,-2.9175,-2.3867,-2.298,-2.4887,0.0,0.0,0.0,0.0,0.0,0.0,0.0,0.0,0.0,0.0,0.0,0.0,0.0,0.0,0.0,0.0,-0.0234,-0.2024,-0.6022,-0.6338,-0.6338,-0.6338,-0.6338,0.0,-0.6338,-0.6266,-0.6259,-0.6247,-0.6259,-0.6342,-0.6342,-0.6486,-0.6479,-0.6268,-0.641,-0.6302,-0.6017,-0.6017,-0.5847,-0.5566,-0.542,-0.527,-0.5114,-0.4989,-0.5026,-0.5152,-0.5314,-0.5422,-0.4861,-0.134,-0.2482,-0.5425,-0.5384,-0.5192,-0.4898,0.0,0.0,0.0,-0.0178,-0.2715,-0.5396,-0.546,-0.6033,-0.6675,-0.6885,-0.8726,-1.0529,-1.105,-1.3021,-1.5416,-1.7975,-1.9912,-2.1697,-2.3657,-2.3909,-2.4217,-2.5384,-2.5495,-2.6057,-2.7496,-2.7749,-2.8693,-3.1127,-3.1971,-3.2977,-3.4559,-3.6305,-3.6889,-3.6038,-3.7043,-3.7239,-3.645,-3.6141,-3.5987,-3.5948,-3.4439,-3.2751,-3.0932,-2.7688,-2.3525,-1.8611,-1.8971,-1.8005,-1.6218,-1.9362,-2.2093,-2.434,-2.5283,-2.5647,-2.6127,-3.0298,-3.1418,-3.0619,-2.9836,-2.8391,-2.6979,0.0,0.0,0.0,0.0,0.0,0.0,0.0,0.0,0.0,0.0,0.0,0.0,0.0,0.0,0.0,0.0,-0.2504,-0.4693,-0.6193,-0.6264,-0.6338,-0.6338,-0.6338,-0.6338,-0.6338,-0.6283,-0.608,-0.5724,-0.5748,-0.5954,-0.6342,-0.639,-0.6438,-0.6479,-0.6531,-0.6254,-0.5884,-0.5884,-0.5715,-0.544,-0.5452,-0.527,-0.5135,-0.5186,-0.5179,-0.4967,-0.4009,-0.4408,-0.4864,-0.121,-0.0873,-0.2326,-0.4675,-0.5329,-0.4724,-0.2318,-0.0842,0.0,0.0,-0.0923,-0.222,-0.3411,-0.4655,-0.5729,-0.6193,-0.759,-0.9008,-1.0004,-1.2255,-1.4674,-1.7041,-1.8566,-2.03,-2.3104,-2.3902,-2.4437,-2.5444,-2.5924,-2.6226,-2.634,-2.6857,-2.7781,-2.9173,-3.0023,-3.1381,-3.3606,-3.4336,-3.499,-3.5679,-3.6077,-3.6286,-3.6303,-3.6206,-3.6065,-3.5915,-3.4824,-3.3809,-3.2985,-3.097,-2.8158,-2.4699,-2.421,-2.3225,-2.1985,-2.2908,-2.3122,-2.3039,-2.6207,-2.7561,-2.8085,-3.2079,-3.371,-3.3836,-3.3917,-3.3224,-3.2203,0.0,0.0,0.0,0.0,0.0,0.0,0.0,0.0,0.0,0.0,0.0,0.0,0.0,0.0,0.0,0.0,-0.3841,-0.6288,-0.6274,-0.6264,-0.6338,-0.6338,-0.6338,-0.6338,-0.6338,-0.613,-0.5819,-0.5417,-0.5448,-0.5699,-0.6108,-0.6108,-0.6235,-0.6405,-0.6325,-0.6112,-0.5874,-0.5823,-0.5661,-0.543,-0.5325,-0.5223,-0.5078,-0.5185,-0.5107,-0.4852,-0.3725,-0.4177,-0.4864,-0.1212,0.0,-0.0399,-0.2802,-0.3566,-0.3138,-0.0676,0.0,0.0,0.0,0.0,-0.0311,-0.1483,-0.2621,-0.3763,-0.5235,-0.6375,-0.7522,-0.907,-1.1266,-1.3656,-1.6122,-1.7183,-1.8883,-2.271,-2.3831,-2.4585,-2.5757,-2.5783,-2.5592,-2.5209,-2.5517,-2.6086,-2.6955,-2.825,-2.9955,-3.2175,-3.2942,-3.377,-3.4873,-3.5119,-3.5263,-3.5374,-3.549,-3.5443,-3.5302,-3.4585,-3.4051,-3.3668,-3.1908,-2.9567,-2.679,-2.5749,-2.4788,-2.3921,-2.4369,-2.4421,-2.4434,-2.8015,-2.9782,-3.0631,-3.4087,-3.5757,-3.6274,-3.6904,-3.5886,-3.397,0.0,0.0,0.0,0.0,0.0,0.0,0.0,0.0,0.0,0.0,0.0,0.0,0.0,0.0,0.0,0.0,-0.3832,-0.6285,-0.6264,-0.6338,-0.6338,-0.6338,-0.6338,-0.6338,-0.6338,-0.572,-0.5414,-0.5411,-0.557,-0.5721,-0.5793,-0.5793,-0.5871,-0.595,-0.5875,-0.5881,-0.6006,-0.5857,-0.5715,-0.5562,-0.526,-0.5138,-0.5081,-0.49,-0.4849,-0.4813,-0.4622,-0.4873,-0.4867,-0.1348,-0.0067,0.0,0.0,0.0,0.0,0.0,0.0,0.0,0.0,0.0,0.0,0.0,0.0,-0.0836,-0.3987,-0.5199,-0.6216,-0.8308,-1.016,-1.2266,-1.5185,-1.5931,-1.7734,-2.2578,-2.3798,-2.4625,-2.6188,-2.5127,-2.4205,-2.4193,-2.3776,-2.3838,-2.4645,-2.6799,-2.8744,-3.0227,-3.2126,-3.3299,-3.3547,-3.4082,-3.4163,-3.3684,-3.3888,-3.4051,-3.4129,-3.3761,-3.3352,-3.2929,-3.0202,-2.7207,-2.4025,-2.3109,-2.1935,-2.0819,-2.3039,-2.569,-2.8588,-3.0611,-3.22,-3.3681,-3.6566,-3.7653,-3.768,-3.8651,-3.6038,-3.1691,0.0,0.0,0.0,0.0,0.0,0.0,0.0,0.0,0.0,0.0,0.0,0.0,0.0,0.0,0.0,0.0,-0.3832,-0.6285,-0.6264,-0.6338,-0.6338,-0.6338,-0.6338,-0.6338,-0.6338,-0.5878,-0.567,-0.5716,-0.5573,-0.5504,-0.5504,-0.5504,-0.5631,-0.58,-0.58,-0.5769,-0.5708,-0.5664,-0.5627,-0.5572,-0.5376,-0.5365,-0.545,-0.5289,-0.4446,-0.3454,-0.4712,-0.5289,-0.5231,-0.4271,-0.2159,0.0,0.0,0.0,0.0,0.0,0.0,0.0,0.0,0.0,0.0,0.0,0.0,0.0,-0.281,-0.4069,-0.5364,-0.7175,-0.8401,-1.0071,-1.3066,-1.4437,-1.6315,-2.0007,-2.122,-2.2133,-2.3248,-2.3029,-2.2673,-2.2227,-2.262,-2.3083,-2.3489,-2.5101,-2.6924,-2.8755,-3.0194,-3.1523,-3.2735,-3.3741,-3.4489,-3.4954,-3.4686,-3.4782,-3.5399,-3.4915,-3.4408,-3.3888,-3.2299,-3.0303,-2.7922,-2.7133,-2.6253,-2.5391,-2.6316,-2.7727,-2.9496,-3.146,-3.2523,-3.322,-3.64,-3.7356,-3.6719,-3.5061,-3.1568,-2.7041,0.0,0.0,0.0,0.0,0.0,0.0,0.0,0.0,0.0,0.0,0.0,0.0,0.0,0.0,0.0,0.0,-0.3834,-0.6288,-0.6271,-0.6268,-0.6268,-0.6338,-0.6268,-0.6268,-0.6338,-0.5969,-0.5742,-0.58,-0.5523,-0.5423,-0.5423,-0.5423,-0.5467,-0.5547,-0.5616,-0.5572,-0.5494,-0.5494,-0.5494,-0.5488,-0.5463,-0.5454,-0.5589,-0.5438,-0.4277,-0.273,-0.3048,-0.3115,-0.3359,-0.491,-0.2975,0.0,0.0,0.0,0.0,0.0,0.0875,0.161,0.0338,0.0,0.0,0.0,0.0,0.0,-0.1362,-0.3162,-0.4959,-0.5929,-0.7122,-0.8798,-1.146,-1.3157,-1.5016,-1.7293,-1.8466,-1.9802,-2.1946,-2.1674,-2.1237,-2.0884,-2.1073,-2.1463,-2.1942,-2.3475,-2.5342,-2.764,-2.8923,-3.0599,-3.2879,-3.4049,-3.4733,-3.5001,-3.4743,-3.4795,-3.515,-3.4301,-3.3866,-3.3769,-3.1369,-2.962,-2.8463,-2.6834,-2.5799,-2.54,-2.6025,-2.6447,-2.7025,-2.9425,-3.1211,-3.259,-3.4531,-3.5046,-3.4432,-3.1455,-2.7567,-2.293,0.0,0.0,0.0,0.0,0.0,0.0,0.0,0.0,0.0,0.0,0.0,0.0,0.0,0.0,0.0,0.0,-0.3444,-0.5808,-0.6278,-0.6278,-0.6274,-0.6338,-0.6271,-0.6274,-0.6338,-0.5882,-0.5728,-0.58,-0.5504,-0.5428,-0.5428,-0.5428,-0.5428,-0.5428,-0.5428,-0.5428,-0.5428,-0.5428,-0.5428,-0.5428,-0.5428,-0.5464,-0.563,-0.548,-0.4441,-0.2744,-0.072,0.0,-0.0487,-0.3687,-0.2636,0.0,0.0,0.0,0.0,0.0,0.1905,0.3503,0.1123,0.0281,0.0,0.0,0.0,0.0,0.0,-0.2289,-0.4433,-0.4728,-0.6191,-0.8035,-1.0112,-1.1977,-1.3626,-1.4728,-1.5817,-1.7694,-2.114,-2.0533,-1.9755,-1.9703,-1.9446,-1.9521,-2.0242,-2.1861,-2.394,-2.6651,-2.8279,-3.0398,-3.3393,-3.4405,-3.4666,-3.4186,-3.4248,-3.4216,-3.404,-3.281,-3.2316,-3.2485,-2.8323,-2.6317,-2.6213,-2.3341,-2.2176,-2.2321,-2.3301,-2.3242,-2.2742,-2.5618,-2.8576,-3.138,-3.1613,-3.1655,-3.1181,-2.7924,-2.3865,-1.9274,0.0,0.0,0.0,0.0,0.0,0.0,0.0,0.0,0.0,0.0,0.0,0.0,0.0,0.0,0.0,0.0,-0.0781,-0.265,-0.6038,-0.6278,-0.6274,-0.6338,-0.6271,-0.6274,-0.6338,-0.5959,-0.5728,-0.5728,-0.5504,-0.5428,-0.5428,-0.5428,-0.5428,-0.5428,-0.5428,-0.5428,-0.5428,-0.5428,-0.5428,-0.5428,-0.5428,-0.5532,-0.5704,-0.5701,-0.537,-0.4413,-0.1138,0.0,-0.014,-0.0816,-0.0607,0.0,0.0,0.0,0.0,0.0,0.041,0.1276,0.3121,0.1832,0.0,0.0,0.0,0.0,0.0,-0.0489,-0.167,-0.4244,-0.5097,-0.6171,-0.8859,-1.0228,-1.1608,-1.3564,-1.4684,-1.5845,-1.756,-1.7835,-1.782,-1.7397,-1.8202,-1.8659,-1.8539,-2.0522,-2.2648,-2.4723,-2.837,-3.1089,-3.2422,-3.2733,-3.302,-3.3399,-3.3223,-3.3283,-3.3604,-3.2722,-3.1194,-2.9033,-2.4826,-2.2048,-2.0531,-1.8544,-1.8105,-1.8923,-2.0553,-2.1169,-2.1106,-2.2348,-2.4576,-2.7418,-2.92,-2.9155,-2.7712,-2.4809,-2.0742,-1.5909,0.0,0.0,0.0,0.0,0.0,0.0,0.0,0.0,0.0,0.0,0.0,0.0,0.0,0.0,0.0,0.0,0.0,-0.1798,-0.6061,-0.6305,-0.6295,-0.6271,-0.6281,-0.6278,-0.6338,-0.5959,-0.58,-0.5728,-0.5504,-0.5428,-0.5428,-0.5428,-0.5428,-0.5428,-0.5428,-0.5428,-0.5428,-0.5428,-0.5428,-0.5428,-0.5428,-0.5504,-0.557,-0.4644,-0.4927,-0.5334,-0.1418,0.0,0.0,0.0,0.0,0.0,0.0,0.0,0.0,0.0,0.0,0.0359,0.1858,0.224,0.187,0.0362,0.0,0.0,0.0,0.0,-0.0733,-0.3238,-0.4247,-0.5238,-0.7135,-0.8568,-0.9907,-1.1428,-1.2474,-1.3518,-1.4692,-1.6126,-1.6641,-1.5633,-1.6811,-1.7612,-1.741,-1.8806,-2.1239,-2.4741,-2.8394,-3.0901,-3.1897,-3.1882,-3.1864,-3.1895,-3.1808,-3.148,-3.0912,-2.9094,-2.7102,-2.4925,-2.0287,-1.784,-1.7453,-1.5756,-1.58,-1.7347,-1.8685,-1.9257,-1.9431,-2.0662,-2.2015,-2.3539,-2.5293,-2.5494,-2.4359,-2.125,-1.7642,-1.363,0.0,0.0,0.0,0.0,0.0,0.0,0.0,0.0,0.0,0.0,0.0,0.0,0.0,0.0,0.0,0.0,0.0,-0.1484,-0.4838,-0.5115,-0.5076,-0.5049,-0.5873,-0.6257,-0.6252,-0.5956,-0.5817,-0.5688,-0.5521,-0.5456,-0.5428,-0.5428,-0.5446,-0.5403,-0.5439,-0.5446,-0.5403,-0.5439,-0.5428,-0.5432,-0.5432,-0.5464,-0.5471,-0.3846,-0.3992,-0.4667,-0.1205,0.0,0.0,0.0,0.0,0.0,0.0,0.0,0.0,0.0,0.0,0.0,0.0,0.1772,0.3078,0.0624,0.0,0.0,0.0,0.0,0.0,-0.2417,-0.3645,-0.4875,-0.6028,-0.7331,-0.8555,-0.9606,-1.0494,-1.1278,-1.2077,-1.4021,-1.5097,-1.4219,-1.5223,-1.609,-1.6153,-1.7032,-1.9622,-2.4487,-2.7321,-2.9432,-3.082,-3.0483,-2.9987,-2.9351,-2.9217,-2.8399,-2.6792,-2.3953,-2.1852,-2.0483,-1.5756,-1.3907,-1.4624,-1.3128,-1.3675,-1.5834,-1.6899,-1.7493,-1.7852,-1.942,-2.0268,-2.0688,-2.1713,-2.1963,-2.1399,-1.8094,-1.4937,-1.1926,0.0,0.0,0.0,0.0,0.0,0.0,0.0,0.0,0.0,0.0,0.0,0.0,0.0,0.0,0.0,0.0,0.0,-0.0232,-0.0645,-0.0699,-0.0681,-0.0752,-0.4327,-0.6235,-0.6009,-0.6029,-0.5874,-0.5613,-0.5583,-0.5494,-0.5428,-0.5428,-0.5433,-0.5559,-0.542,-0.5437,-0.5555,-0.542,-0.5432,-0.5376,-0.5376,-0.5406,-0.5411,-0.5205,-0.328,-0.0653,-0.0142,0.0,0.0,0.0,0.0,0.0,0.0,0.0,0.0,0.0,0.0,0.0,0.0,0.0256,0.0398,0.0065,0.0,0.0,0.0,0.0,-0.4296,-0.262,0.0,-0.5223,-0.6726,0.0,0.0,-0.9453,-0.9833,-0.9782,-0.9212,-1.0139,-1.157,-1.3322,-1.3571,-1.3619,-1.3743,-1.5294,-1.7812,-2.1509,-2.3534,-2.558,-2.7846,-2.6836,-2.5713,-2.4766,-2.3991,-2.2893,-2.14,-1.8643,-1.6875,-1.6081,-1.2283,-1.0313,-0.9838,-0.8752,-0.9903,-1.2802,-1.464,-1.5948,-1.6844,-1.7842,-1.9243,-2.059,-2.0764,-2.0322,-1.9238,-1.624,-1.3373,-1.0513,0.0,0.0,0.0,0.0,0.0,0.0,0.0,0.0,0.0,0.0,0.0,0.0,0.0,0.0,0.0,0.0,0.0,0.0,0.0,0.0,0.0,0.0,-0.3891,-0.6066,-0.6156,-0.5959,-0.5837,-0.5711,-0.5542,-0.5471,-0.5491,-0.5403,-0.5443,-0.5583,-0.543,-0.5463,-0.5454,-0.5456,-0.5369,-0.5309,-0.4225,-0.4467,-0.5433,-0.5368,-0.3138,0.0,0.0,0.0,0.0,0.0,0.0,0.0,0.0,0.0,0.0,0.0,0.0,0.0,0.0,0.0,0.0,0.0,0.0,0.0,0.0,-0.2806,-0.5166,-0.4232,0.0,0.0,0.0,0.0,0.0,0.0,-0.8132,-0.8057,-0.7988,-0.8063,-0.8625,-0.9942,-1.0988,-1.1188,-1.019,-0.865,-1.0251,-1.6337,-1.8157,-2.0892,-2.5356,-2.4285,-2.2862,-2.1434,-2.0653,-1.9251,-1.7238,-1.4773,-1.2608,-1.0735,-0.7513,-0.6163,-0.6529,-0.6699,-0.8129,-1.0512,-1.3093,-1.479,-1.5878,-1.793,-1.9497,-2.059,-2.059,-2.0009,-1.8868,-1.6078,-1.3251,-1.0421,0.0,0.0,0.0,0.0,0.0,0.0,0.0,0.0,0.0,0.0,0.0,0.0,0.0,0.0,0.0,0.0,0.0,0.0,0.0,0.0,0.0,0.0,-0.273,-0.483,-0.6239,-0.6043,-0.583,-0.5749,-0.5532,-0.5484,-0.5593,-0.5504,-0.5464,-0.564,-0.5447,-0.5452,-0.542,-0.5446,-0.5369,-0.5246,-0.3444,-0.3193,-0.3886,-0.3924,-0.2262,0.0,0.0,0.0,0.0,0.0,0.0,0.0,0.0,0.0,0.0,0.0,0.0,0.0,0.0,0.0,0.0,0.0,0.0,0.0,0.0,0.0,0.0,-0.5279,-0.5813,0.0,0.0,0.0,-0.721,-0.75,0.0,-0.7212,-0.7501,-0.7063,-0.6971,-0.7752,-0.8458,-0.8169,-0.6373,-0.2873,-0.3462,-0.9872,-1.2609,-1.5971,-2.0469,-2.0863,-2.0,-1.7991,-1.6838,-1.5421,-1.3607,-1.109,-0.8725,-0.6522,-0.3603,-0.2803,-0.3805,-0.4583,-0.6176,-0.8487,-1.1156,-1.323,-1.4915,-1.7746,-1.9716,-2.0876,-2.0707,-2.0331,-1.9511,-1.6303,-1.3266,-1.0502,0.0,0.0,0.0,0.0,0.0,0.0,0.0,0.0,0.0,0.0,0.0,0.0,0.0,0.0,0.0,0.0,0.0,0.0,0.0,0.0,0.0,0.0,-0.0155,-0.2143,-0.623,-0.6127,-0.5901,-0.5686,-0.5662,-0.5662,-0.5676,-0.5507,-0.5515,-0.5783,-0.5491,-0.5443,-0.5572,-0.5423,-0.5369,-0.5256,-0.3449,-0.1676,-0.014,-0.0204,-0.0069,0.0,0.0,0.0,0.0,0.0,0.0,0.0,0.0,0.0,0.0,0.0,0.0,0.0,0.0,0.0,0.0,0.0,0.0,0.0,0.0,0.0,-0.3261,0.0,0.0,-0.6177,-0.6783,-0.7296,-0.7895,-0.8606,-0.8168,0.0,0.0,-0.7218,-0.7198,-0.8052,-0.6326,-0.4336,-0.246,0.0178,0.0646,-0.2187,-0.7396,-1.0898,-1.1855,-1.5737,-1.67,-1.3978,-1.1762,-1.064,-1.0651,-0.7136,-0.5104,-0.4487,-0.1536,-0.0624,-0.1723,-0.1723,-0.3429,-0.643,-0.8412,-1.0918,-1.3833,-1.6752,-1.9424,-2.1599,-2.0876,-2.1043,-2.1093,-1.6551,-1.3114,-1.0267,0.0,0.0,0.0,0.0,0.0,0.0,0.0,0.0,0.0,0.0,0.0,0.0,0.0,0.0,0.0,0.0,0.0,0.0,0.0,0.0,0.0,0.0,0.0,-0.132,-0.4123,-0.5538,-0.6099,-0.5894,-0.5713,-0.5593,-0.553,-0.5437,-0.5467,-0.5654,-0.545,-0.5456,-0.5437,-0.5452,-0.5369,-0.5113,-0.2096,-0.055,0.0,0.0,0.0,0.0,0.0,0.0,0.0,0.0,0.0,0.0,0.0,0.0,0.0,0.0,0.2002,0.0,0.0,0.0,0.1695,0.0351,0.0,0.0,0.0,0.0,0.0,0.0,0.0,-0.6292,-0.6934,-0.7456,-0.7911,-0.802,-0.7883,-0.7509,0.0,-0.7301,-0.7302,-0.6676,-0.3942,-0.1203,0.1064,0.6363,0.9271,0.8314,0.2107,-0.2645,-0.4959,-1.1232,-1.3628,-1.1169,-0.9846,-0.8954,-0.8421,-0.5453,-0.3399,-0.2279,0.0522,0.1373,0.0306,-0.1007,-0.2876,-0.534,-0.9363,-1.267,-1.5489,-1.9435,-2.2151,-2.3923,-2.4216,-2.3489,-2.1801,-1.7446,-1.4049,-1.112,0.0,0.0,0.0,0.0,0.0,0.0,0.0,0.0,0.0,0.0,0.0,0.0,0.0,0.0,0.0,0.0,0.0,0.0,0.0,0.0,0.0,0.0,0.0,-0.0634,-0.1978,-0.4841,-0.6212,-0.5906,-0.5722,-0.5644,-0.5534,-0.5494,-0.5494,-0.5583,-0.543,-0.5428,-0.5428,-0.5428,-0.5432,-0.5169,-0.288,-0.1159,0.0,0.0,0.0,0.0,0.0,0.0,0.0,0.0,0.0,0.0,0.0,0.0,0.0284,0.1792,0.4138,0.5722,0.2989,0.2668,0.0,0.2373,0.1079,0.0,0.0,0.0,-0.3264,0.0,0.0,0.0,-0.6745,-0.7448,-0.7868,-0.7767,-0.7943,-0.783,0.0,-0.7931,-0.7917,-0.607,-0.2632,0.0688,0.3672,0.9584,1.358,1.4308,0.7891,0.3002,0.0781,-0.593,-0.9252,-0.8273,-0.7429,-0.6896,-0.6698,-0.3887,-0.2143,-0.125,0.1616,0.2187,0.0679,-0.1811,-0.4363,-0.7098,-1.199,-1.561,-1.8291,-2.211,-2.459,-2.6161,-2.6738,-2.5512,-2.2819,-1.8366,-1.387,-0.9622,0.0,0.0,0.0,0.0,0.0,0.0,0.0,0.0,0.0,0.0,0.0,0.0,0.0,0.0,0.0,0.0,0.0,0.0,0.0,0.0,0.0,0.0,0.0,0.0,0.0,-0.4042,-0.6017,-0.5781,-0.5817,-0.5732,-0.5665,-0.5655,-0.5579,-0.5572,-0.5426,-0.5428,-0.5428,-0.5428,-0.5428,-0.5365,-0.5319,-0.3283,-0.028,-0.0068,0.0,0.0,0.0,0.0,0.0,0.0,0.0,0.0,0.0,0.0,0.0814,0.5044,0.6279,0.6332,0.6317,0.4839,0.3764,0.5768,0.0,0.0,0.0,0.0,-0.3289,0.0,0.0,0.0,0.0,-0.7184,-0.783,-0.7863,-0.8323,-0.8427,-0.7783,-0.8771,-0.8659,-0.6119,-0.2375,0.1494,0.5321,0.9872,1.347,1.5602,1.0068,0.6208,0.5339,-0.0021,-0.3709,-0.5119,-0.4383,-0.4471,-0.552,-0.2643,-0.1251,-0.132,0.1541,0.1729,-0.0673,-0.3986,-0.7655,-1.1572,-1.609,-1.9587,-2.2182,-2.4704,-2.6758,-2.8297,-2.834,-2.678,-2.3834,-1.8822,-1.2403,-0.6213,0.0,0.0,0.0,0.0,0.0,0.0,0.0,0.0,0.0,0.0,0.0,0.0,0.0,0.0,0.0,0.0,0.0,0.0,0.0,0.0,0.0,0.0,0.0,0.0,0.0,-0.2596,-0.4563,-0.5781,-0.5817,-0.5677,-0.5504,-0.5426,-0.542,-0.5416,-0.5446,-0.5428,-0.5428,-0.5428,-0.5432,-0.5306,-0.3956,-0.3621,-0.3713,0.0,0.0,0.0,0.0,0.0,0.0,0.0,0.0,0.0,0.0,0.0,0.0838,0.5042,0.6295,0.6336,0.6332,0.5885,0.5631,0.6139,0.4273,0.193,0.0,0.0,0.0,0.0,0.0,0.0,0.0,0.0,-0.6741,-0.7125,-0.7164,-0.7246,-0.7441,-0.6846,-0.5959,-0.4933,-0.0111,0.3773,0.5531,0.9777,1.2973,1.4257,1.3708,1.1745,0.8183,0.3969,0.0932,-0.0599,-0.2954,-0.4273,-0.4538,-0.3256,-0.2544,-0.2498,-0.0365,-0.1464,-0.5437,-0.7951,-1.1927,-1.6984,-2.0679,-2.3727,-2.6309,-2.8103,-2.9867,-3.1401,-3.0813,-2.6092,-1.9022,-1.4114,-0.9742,-0.6133,0.0,0.0,0.0,0.0,0.0,0.0,0.0,0.0,0.0,0.0,0.0,0.0,0.0,0.0,0.0,0.0,0.0,0.0,0.0,0.0,0.0,0.0,0.0,0.0,0.0,-0.1182,-0.3099,-0.5781,-0.5751,-0.5657,-0.5372,-0.5433,-0.5426,-0.5428,-0.5428,-0.5428,-0.5428,-0.5428,-0.5372,-0.5249,-0.3418,-0.3801,0.0,-0.1356,0.0,0.0,0.0,0.0,0.0,0.0,0.0,0.0,0.0,0.0,0.0495,0.286,0.4878,0.6328,0.6308,0.629,0.6325,0.6263,0.5387,0.3737,0.0669,-0.1625,-0.3626,0.0,-0.5906,-0.5825,0.0,0.0,-0.6013,-0.6972,-0.6332,-0.5444,-0.4643,-0.3448,-0.2104,-0.0663,0.3044,0.6382,0.8612,1.1473,1.3551,1.434,1.5481,1.453,1.0936,0.7473,0.4436,0.1935,-0.169,-0.3989,-0.4818,-0.4367,-0.393,-0.3524,-0.285,-0.4618,-0.8581,-1.2212,-1.6599,-2.1612,-2.5316,-2.7905,-2.9553,-3.0595,-3.1563,-3.223,-2.9856,-2.4367,-1.7193,-1.241,-0.8473,-0.5449,0.0,0.0,0.0,0.0,0.0,0.0,0.0,0.0,0.0,0.0,0.0,0.0,0.0,0.0,0.0,0.0,0.0,0.0,0.0,0.0,0.0,0.0,0.0,0.0,0.0,0.0,-0.1789,-0.5406,-0.5587,-0.557,-0.5432,-0.5498,-0.5491,-0.5428,-0.5428,-0.5428,-0.5428,-0.5428,-0.5376,-0.5259,-0.3692,-0.3706,-0.4344,-0.1214,0.0,0.0,0.0,0.0,0.0,0.0,0.0,0.0,0.0,0.0,0.0072,0.0298,0.3028,0.5977,0.6244,0.6268,0.6264,0.6274,0.6285,0.5231,0.1295,-0.1212,-0.3417,-0.5812,-0.5895,-0.5583,0.0,0.0,-0.5456,-0.6541,-0.5282,-0.3201,-0.0515,0.0729,0.2336,0.4998,0.6723,0.0,1.2091,1.3361,1.4175,1.4655,1.5529,1.5095,1.2922,0.0,0.6409,0.3175,-0.0946,-0.3834,-0.5408,-0.5672,-0.5454,-0.4824,-0.5894,-0.8162,-1.1577,-1.6722,-2.1394,-2.5661,-2.9452,-3.1291,-3.1617,-3.1914,-3.1878,-3.1183,-2.6826,-2.2073,-1.7119,-1.2354,-0.8173,-0.4838,0.0,0.0,0.0,0.0,0.0,0.0,0.0,0.0,0.0,0.0,0.0,0.0,0.0,0.0,0.0,0.0,0.0,0.0,0.0,0.0,0.0,0.0,0.0,0.0,0.0,0.0,-0.1041,-0.327,-0.4906,-0.5607,-0.5428,-0.5456,-0.5456,-0.5428,-0.5428,-0.5428,-0.5428,-0.5372,-0.5382,-0.5396,-0.5062,-0.3303,-0.0877,-0.027,0.0,0.0,0.0,0.0,0.0,0.0,0.0,0.0,0.0,0.0,0.0374,0.2033,0.3061,0.4044,0.5783,0.6264,0.6338,0.6264,0.6281,0.5649,0.311,0.0932,-0.1633,-0.547,-0.534,-0.4803,-0.5787,0.0,0.0,-0.3334,-0.2456,-0.0576,0.3467,0.4752,0.6285,0.8926,1.0047,1.04,0.989,1.1657,1.2579,1.2026,1.3068,1.3135,1.1903,0.0,0.4619,0.0,-0.1569,-0.438,0.0,0.0,-0.7171,-0.7238,-0.9717,-1.3316,-1.784,-2.1393,-2.5348,-2.9603,-3.1372,-3.155,-3.0647,-3.0716,-2.9644,-2.7541,-2.3504,-1.989,-1.6531,-1.2219,-0.8618,-0.5671,0.0,0.0,0.0,0.0,0.0,0.0,0.0,0.0,0.0,0.0,0.0,0.0,0.0,0.0,0.0,0.0,0.0,0.0,0.0,0.0,0.0,0.0,0.0,0.0,0.0,0.0,-0.1323,-0.4077,-0.5038,-0.5518,-0.5369,-0.5369,-0.5372,-0.5379,-0.5379,-0.5379,-0.5379,-0.5386,0.0,-0.5403,-0.541,-0.3236,0.0,0.0,0.0,0.0,0.0,0.0,0.0,0.0,0.0,0.0353,0.2611,0.3274,0.3266,0.3142,0.3874,0.5007,0.6032,0.6268,0.6338,0.6338,0.6278,0.5814,0.4064,0.1797,-0.1175,-0.5433,-0.5764,-0.5382,-0.5606,-0.5576,0.0,0.0,0.0,0.0,0.712,0.8153,0.8924,1.047,1.0975,1.0654,0.9198,1.0662,1.1606,1.1313,1.3149,1.407,1.3762,0.0,0.5187,0.0,0.0,0.0,-0.5922,0.0,-0.8737,-1.0042,-1.2734,-1.628,-2.0507,-2.3498,-2.6189,-2.865,-2.957,-2.8843,-2.6914,-2.6214,-2.5412,-2.4357,-2.2053,-1.9565,-1.6873,-1.3925,-1.0358,-0.6551,0.0,0.0,0.0,0.0,0.0,0.0,0.0,0.0,0.0,0.0,0.0,0.0,0.0,0.0,0.0,0.0,0.0,0.0,0.0,0.0,0.0,0.0,0.0,0.0,0.0,0.0,-0.161,0.0,0.0,0.0,-0.5379,-0.5413,-0.5209,-0.4846,-0.4846,-0.4846,0.0,0.0,-0.5403,-0.5343,-0.4593,-0.256,0.0,0.0,0.0,0.0,0.0,0.0,0.0,0.0,0.0494,0.1697,0.5029,0.62,0.6036,0.4553,0.5372,0.674,0.6887,0.6802,0.6641,0.6641,0.643,0.5967,0.453,0.2734,0.0156,-0.4086,-0.5665,-0.6155,-0.5665,-0.5652,0.0,0.0,0.0,0.0,0.9334,1.0328,1.0531,1.0943,1.1049,1.0436,0.8789,0.9893,1.0925,1.1453,1.3478,1.4398,1.3771,0.0,0.0,0.0,0.0,-0.4715,-0.7343,0.0,-1.0243,-1.2212,-1.5214,-1.8181,-2.0924,-2.3519,-2.4857,-2.5263,-2.5962,-2.4924,-2.2635,-2.1066,-2.0806,-2.1296,-2.0568,-1.9072,-1.7092,-1.5515,-1.2096,-0.7806,0.0,0.0,0.0,0.0,0.0,0.0,0.0,0.0,0.0,0.0,0.0,0.0,0.0,0.0,0.0,0.0,0.0,0.0,0.0,0.0,0.0,0.0,0.0,0.0,0.0,0.0,-0.0966,0.0,0.0,-0.565,0.0,-0.559,-0.4677,-0.2947,0.0,0.0,0.0,-0.4718,-0.541,-0.5138,-0.1818,-0.027,0.0,0.0,0.0,0.0,0.0,0.0,0.0,0.0,0.2216,0.4935,0.5387,0.5871,0.6464,0.7261,0.7832,0.8282,0.8856,0.8389,0.7629,0.7629,0.6957,0.5957,0.4528,0.5012,0.4543,0.0312,-0.3663,-0.6283,-0.625,-0.595,-0.493,0.0,0.0,0.0,0.0,1.0047,1.0748,1.0567,1.0802,1.0089,0.7854,0.8891,1.037,1.1937,1.2483,1.1204,0.0,0.0,0.0,-0.2766,-0.4589,-0.6147,-0.7465,-1.0154,-1.1961,-1.2877,-1.6985,-1.8977,-1.9168,-2.0867,-2.1009,-2.0052,-2.11,-2.0674,-1.9094,-1.6978,-1.6954,-1.8215,-1.7562,-1.7046,-1.6573,-1.5314,-1.3028,-0.9878,0.0,0.0,0.0,0.0,0.0,0.0,0.0,0.0,0.0,0.0,0.0,0.0,0.0,0.0,0.0,0.0,0.0,0.0,0.0,0.0,0.0,0.0,0.0,0.0,0.0,0.0,-0.1419,0.0,0.0,0.0,0.0,0.0,0.0,0.0,0.0,-0.1112,-0.1126,-0.1874,-0.2141,-0.1999,-0.061,0.0,0.0,0.0,0.0,0.0,0.0,0.0,0.036,0.2909,0.4504,0.5409,0.5402,0.5623,0.6148,0.7138,0.763,0.7996,0.8793,0.844,0.7783,0.7783,0.7034,0.6116,0.5553,0.5883,0.5811,0.4139,0.0999,-0.1667,-0.225,-0.2388,-0.1681,0.0555,0.0,0.0,0.0,0.9068,0.906,0.7472,0.5689,0.4111,0.2965,0.3772,0.5553,0.841,1.287,1.3223,0.0,0.0,0.0,-0.3389,0.0,-0.6656,-0.914,-1.1341,-1.3302,-1.5134,-1.7282,-1.8243,-1.8059,-1.8607,-1.7981,-1.6384,-1.523,-1.4927,-1.5023,-1.3396,-1.4367,-1.6883,-1.7274,-1.7524,-1.7675,-1.689,-1.4433,-1.096,0.0,0.0,0.0,0.0,0.0,0.0,0.0,0.0,0.0,0.0,0.0,0.0,0.0,0.0,0.0,0.0,0.0,0.0,0.0,0.0,0.0,0.0,0.0,0.0,0.0,0.0,-0.1285,-0.3836,-0.4882,0.0,0.0,0.0,0.0,0.0,0.0,0.0,0.0,0.0,0.0,0.0,0.0,0.0,0.0,0.0,0.0,0.0,0.0,0.0785,0.2332,0.5277,0.5971,0.5606,0.5871,0.6044,0.6317,0.7491,0.8047,0.8433,0.9435,0.8916,0.8085,0.8223,0.7257,0.6271,0.6268,0.6278,0.6349,0.6681,0.4626,0.274,0.2552,0.2155,0.2409,0.4013,0.0,0.0,0.0,0.8851,0.7089,0.469,0.053,-0.2315,-0.2782,-0.206,0.0113,0.4007,1.2301,0.0,0.0,0.0,0.0,0.0,0.0,0.0,-1.0654,-1.2321,-1.4222,-1.6282,-1.6833,-1.6607,-1.5557,-1.4179,-1.3185,-1.236,-1.0319,-1.0494,-1.2222,-1.1721,-1.3417,-1.6313,-1.7567,-1.8358,-1.8669,-1.7666,-1.5217,-1.1704,0.0,0.0,0.0,0.0,0.0,0.0,0.0,0.0,0.0,0.0,0.0,0.0,0.0,0.0,0.0,0.0,0.0,0.0,0.0,0.0,0.0,0.0,0.0,0.0,0.0,0.0,-0.0,-0.0075,0.0,0.0,-0.5351,0.0,-0.0067,0.0,0.0,0.0,0.0,0.0,0.0,0.0,0.0,0.0,0.0,0.0,0.0,0.0,0.0,0.2714,0.6248,0.6248,0.6177,0.6141,0.7102,0.7172,0.7282,0.9114,0.9758,1.0148,1.1501,1.0329,0.8856,0.9165,0.7783,0.6264,0.6274,0.6271,0.6528,0.7509,0.632,0.5656,0.7523,0.7278,0.6984,0.7466,0.0,0.0,0.0,0.9781,0.5221,0.2842,-0.3516,-0.807,-0.9023,-0.7956,-0.5349,-0.0852,0.0,0.0,0.0,0.0,0.0,-0.2326,-0.4686,0.0,-1.1553,-1.3247,-1.4607,-1.5597,-1.5707,-1.4104,-1.1045,-0.6719,-0.5867,-0.7711,-0.6736,-0.815,-1.1283,-1.2668,-1.4418,-1.6371,-1.8276,-1.9136,-1.9088,-1.7125,-1.4856,-1.2192,0.0,0.0,0.0,0.0,0.0,0.0,0.0,0.0,0.0,0.0,0.0,0.0,0.0,0.0,0.0,0.0,0.0,0.0,0.0,0.0,0.0,0.0,0.0,0.0,0.0,0.0,0.0,-0.0,0.0,0.0,0.0,-0.0557,0.0,0.0,0.0,0.0,0.0,0.0,0.0,0.0,0.0,0.0,0.0,0.0,0.0,0.0347,0.28,0.4781,0.624,0.5964,0.6375,0.7081,0.7725,0.7491,0.7315,0.9592,1.0011,1.0123,1.1678,1.1032,0.9763,0.9107,0.8129,0.7176,0.6419,0.6183,0.6532,0.7928,0.8389,0.9288,1.1475,1.2472,1.3155,1.3758,1.411,0.0,1.4134,0.0,0.5725,0.1332,-0.7605,-1.2987,-1.2015,-1.5197,-1.384,-0.5457,0.0,0.0,0.0,0.0,0.0,0.0,-0.4394,0.0,-1.1798,-1.4221,-1.5379,-1.5238,-1.3793,-1.0873,-0.6574,-0.3844,-0.326,-0.4585,-0.4985,-0.682,-0.9472,-1.0442,-1.3239,-1.7,-1.7725,-1.823,-1.8478,-1.7478,-1.4914,-1.1486,0.0,0.0,0.0,0.0,0.0,0.0,0.0,0.0,0.0,0.0,0.0,0.0,0.0,0.0,0.0,0.0,0.0,0.0,0.0,0.0,0.0,0.0,0.0,0.0,0.0,0.0,0.0,0.0,0.0,0.0,0.0,0.0,0.0,0.0,0.0,0.0,0.0,0.0,0.0,0.0,0.0,0.0,0.0,0.0,0.0,0.0484,0.4084,0.5641,0.5978,0.6286,0.6769,0.7487,0.8763,0.8746,0.8692,1.0441,1.1092,1.1341,1.1992,1.1425,1.0479,0.9646,0.8599,0.7536,0.6416,0.6565,0.7323,0.8936,1.0522,1.2562,1.5604,1.7511,1.898,2.0132,1.9544,1.8448,1.7111,0.0,0.8587,0.2391,-0.645,0.0,0.0,-1.896,-1.9213,0.0,0.0,0.0,0.0,0.0,0.0,0.1728,-0.2806,-0.7214,-1.1639,-1.3715,-1.4459,-1.3815,-0.9902,-0.603,-0.2244,-0.0543,-0.0621,-0.2027,-0.3433,-0.5586,-0.8102,-0.9761,-1.2715,-1.618,-1.6909,-1.7218,-1.7187,-1.6166,-1.3712,-1.0643,0.0,0.0,0.0,0.0,0.0,0.0,0.0,0.0,0.0,0.0,0.0,0.0,0.0,0.0,0.0,0.0,0.0,0.0,0.0,0.0,0.0,0.0,0.0,0.0,0.0,0.0,0.0,0.0,0.0,0.0,0.0,0.0,0.0,0.0,0.0,0.0,0.0,0.0,0.0,0.0,0.0,0.0,0.0,0.0,0.0,0.0472,0.3979,0.5294,0.5613,0.6898,0.7277,0.7583,0.9922,1.0778,1.1064,1.1729,1.2734,1.3369,1.2542,1.1779,1.106,1.0497,0.9005,0.7399,0.6268,0.7298,0.8923,1.0358,1.2669,1.5644,1.9712,2.2199,2.4256,2.6044,2.5211,2.3898,2.2576,1.8849,1.3329,0.5532,0.0,0.0,-1.6876,-1.9534,-2.1476,0.0,0.0,0.0,0.0,0.0,1.3905,0.2829,-0.0205,-0.4702,-1.1047,-1.2112,-1.2033,-1.0985,-0.4338,-0.0153,0.1864,0.2873,0.2175,0.0,-0.2105,-0.447,-0.7044,-1.0253,-1.2488,-1.3971,-1.5728,-1.5942,-1.5145,-1.348,-1.1762,-0.9859,0.0,0.0,0.0,0.0,0.0,0.0,0.0,0.0,0.0,0.0,0.0,0.0,0.0,0.0,0.0,0.0,0.0,0.0,0.0,0.0,0.0,0.0,0.0,0.0,0.0,0.0,0.0,0.0,0.0,0.0,0.0,0.0,0.0,0.0,0.0,0.0,0.0,0.0,0.0,0.0,0.0,0.0,0.0,0.0,0.0,0.0269,0.2551,0.4243,0.5527,0.6526,0.7324,0.8263,0.9974,1.1638,1.3004,1.3458,1.3424,1.3255,1.3613,1.2861,1.1577,1.0025,0.8042,0.635,0.5937,0.7999,1.0444,1.1866,1.5525,1.9431,2.2645,2.5441,2.7547,2.8398,2.7538,2.6376,2.5246,2.3606,1.8577,0.0,0.2021,-0.5265,-1.5807,-1.8007,-1.9936,0.0,0.0,-0.6878,-0.4065,0.4613,0.8453,0.6121,0.1588,-0.3707,-0.9572,-1.0533,-0.8667,-0.3977,0.0835,0.3385,0.3951,0.4961,0.3887,0.1095,-0.1012,-0.3315,-0.574,-0.8078,-1.0375,-1.2388,-1.279,-1.2933,-1.2839,-1.2394,-1.0966,-0.9311,0.0,0.0,0.0,0.0,0.0,0.0,0.0,0.0,0.0,0.0,0.0,0.0,0.0,0.0,0.0,0.0,0.0,0.0,0.0,0.0,0.0,0.0,0.0,0.0,0.0,0.0,0.0,0.0,0.0,0.0,0.0,0.0,0.0,0.0,0.0,0.0,0.0,0.0,0.0,0.0,0.0,0.0,0.0,0.0,0.0,0.0269,0.2078,0.3862,0.5566,0.644,0.7052,0.7849,0.9901,1.1534,1.2897,1.3899,1.4279,1.4439,1.4638,1.3725,1.2223,1.0055,0.8144,0.673,0.6464,0.917,1.2359,1.4449,1.8064,2.1842,2.4958,2.7009,2.8548,2.9555,2.8665,2.7755,2.7386,2.6746,2.2325,1.1476,0.5267,-0.2498,-1.3651,-1.8975,-2.2135,-2.3103,-1.7766,0.0,-0.7343,-0.099,0.3027,0.418,0.0751,-0.3604,-0.8891,-0.901,-0.6441,-0.135,0.266,0.5189,0.6224,0.6692,0.5535,0.3082,0.0312,-0.2206,-0.4508,-0.6593,-0.8276,-0.9631,-1.0113,-0.975,-0.9011,-0.953,-0.862,-0.7364,0.0,0.0,0.0,0.0,0.0,0.0,0.0,0.0,0.0,0.0,0.0,0.0,0.0,0.0,0.0,0.0,0.0,0.0,0.0,0.0,0.0,0.0,0.0,0.0,0.0,0.0,0.0,0.0,0.0,0.0,0.0,0.0,0.0,0.0,0.0,0.0,0.0,0.0,0.0,0.0,0.0,0.0,0.0,0.0,0.0,0.0202,0.1742,0.3625,0.5526,0.6276,0.6523,0.6902,0.9249,1.0698,1.1813,1.3494,1.4662,1.5349,1.505,1.3831,1.2129,0.9863,0.8323,0.7338,0.7432,1.0715,1.451,1.7069,2.0426,2.3768,2.6699,2.7733,2.8594,2.9902,2.909,2.847,2.9034,0.0,2.4938,1.5672,0.8145,-0.0858,-1.2613,-2.1142,-2.5386,-2.407,-2.1585,-1.6768,-0.905,-0.4952,-0.2138,-0.0552,-0.1138,-0.3704,-0.8307,-0.7358,-0.4893,-0.0891,0.2797,0.5748,0.7919,0.7735,0.6644,0.4624,0.1567,-0.1103,-0.3462,-0.5286,-0.6227,-0.6671,-0.7458,-0.6647,-0.5191,-0.6295,-0.615,-0.5667,0.0,0.0,0.0,0.0,0.0,0.0,0.0,0.0,0.0,0.0,0.0,0.0,0.0,0.0,0.0,0.0,0.0,0.0,0.0,0.0,0.0,0.0,0.0,0.0,0.0,0.0,0.0,0.0,0.0,0.0,0.0,0.0,0.0,0.0,0.0,0.0,0.0,0.0,0.0,0.0,0.0,0.0,0.0,0.0,0.0,0.0067,0.0335,0.2549,0.5403,0.5557,0.5602,0.5844,0.72,0.9006,1.1016,1.2587,1.2712,1.2488,1.3142,1.1418,0.9144,0.7849,0.6605,0.625,0.8032,1.2748,1.7014,1.8213,2.2531,2.642,2.7565,2.8632,2.9421,2.9723,2.9174,2.9023,2.9948,0.0,2.6319,1.9783,0.9511,-0.2809,-1.7586,-2.2764,-2.5452,-2.6061,-2.2748,-1.8715,-1.4149,-0.9321,-0.6109,-0.5035,-0.2058,-0.2309,-0.6255,-0.5307,-0.3291,-0.0153,0.3064,0.5254,0.6553,0.7391,0.6153,0.337,0.1948,-0.039,-0.3141,-0.3528,-0.4164,-0.4969,-0.4252,-0.3836,-0.384,-0.4821,-0.5776,-0.6771,0.0302,0.0,0.0,0.0,0.0,0.0,0.0,0.0,0.0,0.0,0.0,0.0,0.0,0.0,0.0,0.0,0.0,0.0,0.0,0.0,0.0,0.0,0.0,0.0,0.0,0.0,0.0,0.0,0.0,0.0,0.0,0.0,0.0,0.0,0.0,0.0,0.0,0.0,-0.1145,-0.2762,-0.0808,0.0,-0.0201,-0.2153,-0.2896,-0.276,-0.1404,0.0534,0.2611,0.3268,0.3666,0.4196,0.5683,0.6888,0.8143,1.0236,1.2158,1.3033,1.0232,0.9503,0.9026,0.6683,0.6137,0.721,1.0954,1.4995,1.8657,2.1348,2.533,2.8572,2.9235,2.9582,3.006,3.1004,2.9691,0.0,0.0,2.9467,2.5187,1.5301,0.6922,-0.3644,-1.7857,-2.3548,-2.5976,-2.5094,-2.2503,-1.8655,-1.3337,-0.9463,-0.6557,-0.4525,-0.4322,-0.5156,-0.6853,-0.5911,-0.4123,-0.1621,0.1463,0.3878,0.5668,0.6553,0.6257,0.4907,0.313,0.0934,-0.1481,-0.2032,-0.2581,-0.2893,-0.1872,-0.1505,-0.1703,-0.2828,-0.3897,-0.5154,0.0603,0.0,0.0,0.0,0.0,0.0,0.0,0.0,0.0,0.0,0.0,0.0,0.0,0.0,0.0,0.0,0.0,0.0,0.0,0.0,0.0,0.0,0.0,0.0,0.0,0.0,0.0,0.0,0.0,0.0,0.0,0.0,0.0,0.0,0.0,0.0,-0.0067,-0.0876,-0.2829,-0.5138,-0.2357,-0.1007,-0.0938,-0.3699,-0.5065,-0.5135,-0.3372,-0.2158,-0.1079,0.0741,0.1618,0.2359,0.4686,0.537,0.5776,0.7752,0.9913,1.0787,0.6476,0.6185,0.675,0.512,0.5127,0.7356,1.413,1.695,1.9462,2.4029,2.7592,3.0105,3.0834,3.0683,3.0833,3.1945,0.0,0.0,0.0,2.4928,1.9664,0.8866,0.2039,-0.6892,-1.9892,-2.543,-2.705,-2.4278,-2.167,-1.7394,-1.0967,-0.7504,-0.4683,-0.2415,-0.5416,-0.7179,-0.7415,-0.6554,-0.5254,-0.342,-0.0618,0.1869,0.3957,0.4999,0.5491,0.534,0.3536,0.1561,-0.039,-0.1017,-0.1411,-0.1488,-0.0391,0.0,-0.0161,-0.1284,-0.2323,-0.3523,0.1006,0.0,0.0,0.0,0.0,0.0,0.0,0.0,0.0,0.0,0.0,0.0,0.0,0.0,0.0,0.0,0.0,0.0,0.0,0.0,0.0,0.0,0.0,0.0,0.0,0.0,0.0,0.0,0.0,0.0,0.0,0.0,0.0,0.0,0.0,0.0,-0.0202,-0.3574,-0.5138,-0.5346,-0.5125,-0.403,-0.2544,-0.2813,-0.3961,-0.5416,-0.5487,-0.5464,-0.4824,-0.1113,-0.0,0.0484,0.4206,0.5372,0.5467,0.5602,0.3549,0.1165,0.1531,-0.0385,-0.1631,0.1981,0.2256,0.469,1.6437,1.831,1.9169,2.4913,2.8429,3.0778,3.1874,3.2093,3.1933,3.1377,0.0,0.0,1.6131,1.1306,0.6804,0.3491,-0.5042,-1.5582,-2.8194,-2.9943,-2.8867,-2.5443,-2.0375,-1.4893,-0.896,-0.3448,-0.0466,-0.0234,-0.3201,-0.5208,-0.6119,-0.6044,-0.55,-0.4528,-0.241,-0.0778,0.0468,0.2418,0.2815,0.1961,0.1803,0.047,-0.141,-0.0471,-0.0706,-0.1489,-0.0392,0.0,-0.0157,-0.1178,-0.227,-0.327,0.3915,0.2913,0.1911,0.0302,0.0,0.0,0.0,0.0,0.0,0.0,0.0,0.0,0.0,0.0,0.0,0.0,0.0,0.0,0.0,0.0,0.0,0.0,0.0,0.0,0.0,0.0,0.0,0.0,0.0,0.0,0.0,0.0,0.0,0.0,0.0,-0.128,-0.3437,-0.4797,-0.5403,-0.5393,-0.5393,-0.4979,-0.4425,-0.5156,-0.5494,-0.5672,-0.626,-0.6216,-0.5674,-0.4089,-0.2052,0.0139,0.1587,0.2036,0.2068,0.2063,-0.046,-0.3579,-0.489,-0.7927,-0.9585,-0.462,-0.0811,0.4252,1.388,1.797,2.109,2.6217,2.9537,3.1786,3.2544,3.2142,3.0242,2.5844,0.0,1.387,0.9083,0.2769,-0.2737,-0.6482,-1.6802,-2.5123,-2.8941,-3.0462,-2.9387,-2.4886,-1.9653,-1.3694,-0.6822,-0.0522,0.2246,0.1006,-0.0769,-0.2843,-0.5163,-0.586,-0.6046,-0.5631,-0.3509,-0.2024,-0.0933,0.1171,0.2268,0.2501,0.188,0.1175,0.0392,0.0078,-0.0235,-0.047,0.054,0.0614,-0.0077,-0.0451,-0.1281,-0.2289,0.6437,0.5732,0.4726,0.2815,0.1106,0.0,0.0,0.0,0.0,0.0,0.0,0.0,0.0,0.0,0.0,0.0,0.0,0.0,0.0,0.0,0.0,0.0,0.0,0.0,0.0,0.0,0.0,0.0,0.0,0.0,0.0,0.0,0.0,-0.0067,-0.1212,-0.31,-0.5413,-0.5406,-0.5393,-0.5379,-0.5382,-0.5379,-0.5505,-0.656,-0.6609,-0.6222,-0.6737,-0.6698,-0.6391,-0.6064,-0.3721,-0.0837,-0.021,-0.0759,-0.1829,-0.2339,-0.4623,-0.7319,-0.9086,-1.2342,-1.4285,-1.0168,-0.4299,0.2767,1.1455,1.7134,2.2026,2.6994,3.0331,3.2509,3.3003,3.2134,2.8415,1.9515,1.3191,0.5867,-0.433,-0.9767,-1.3937,-1.7234,-2.5164,-3.0169,-2.9774,-3.0906,-2.956,-2.4547,-1.8776,-1.1177,-0.1271,0.3507,0.5225,0.3452,0.1853,-0.0388,-0.3196,-0.4919,-0.5944,-0.6261,-0.4139,-0.273,-0.2024,0.0156,0.1488,0.2111,0.141,0.1097,0.1019,0.0314,0.0,0.0078,0.0837,0.0677,0.0,0.0,-0.0443,-0.1209,0.7972,0.7982,0.7992,0.7992,0.3621,0.0,0.0,0.0,0.0,0.0,0.0,0.0,0.0,0.0,0.0,0.0,0.0,0.0,0.0,0.0,0.0,0.0,0.0,0.0,0.0,0.0,0.0,0.0,0.0,0.0,0.0,0.0,0.0,-0.0135,-0.3777,-0.5413,-0.541,-0.5389,-0.5379,-0.5376,-0.5432,-0.5428,-0.5491,-0.6396,-0.6843,-0.7112,-0.7086,-0.722,-0.7225,-0.6501,-0.4879,-0.2725,-0.0701,-0.2527,-0.5745,-0.7497,-0.919,-1.0488,-1.0414,-1.28,-1.505,-1.3958,-0.8199,-0.0172,0.9893,1.6075,2.1332,2.7134,3.064,3.2801,3.3226,3.226,2.6849,1.3006,0.4924,-0.6344,-2.5648,-2.7668,-2.7394,-2.8136,-2.859,-2.9663,-3.1779,-3.1672,-2.9478,-2.4632,-1.7631,-0.6953,0.83,0.9134,0.8687,0.7647,0.468,0.2163,0.0078,-0.3117,-0.5237,-0.6261,-0.4139,-0.3124,-0.3046,-0.094,0.0,0.0,0.0,0.0,0.0,0.0,0.0,0.0,0.0,0.0,0.0,0.0,0.0,0.0,0.8048,0.7952,0.7959,0.7975,0.6656,0.4327,0.0603,0.0,0.0,0.0,0.0,0.0,0.0,0.0,0.0,0.0,0.0,0.0,0.0,0.0,0.0,0.0,0.0,0.0,0.0,0.0,0.0,0.0,0.0,0.0,0.0,0.0,0.0,-0.0139,-0.3811,-0.5406,-0.5399,-0.5386,-0.5372,-0.5432,-0.5428,-0.5428,-0.5557,-0.7051,-0.6992,-0.6373,-0.7544,-0.7385,-0.65,-0.6073,-0.4683,-0.3595,-0.6491,-0.7177,-0.7159,-0.9171,-0.9515,-0.9729,-1.1623,-1.3122,-1.3835,-1.2579,-0.7281,-0.0395,0.7479,1.5325,2.2467,2.7834,3.0132,3.1435,3.2351,3.1336,2.4811,0.7864,-0.2624,-1.3144,-2.6148,-2.9394,-3.011,-2.9267,-3.038,-3.0956,-3.0365,-3.0439,-2.8294,-2.297,-1.1095,0.007,0.9728,1.1547,1.1522,0.9807,0.748,0.4906,0.2239,-0.093,-0.3037,-0.4059,-0.2659,-0.2035,-0.2035,-0.0628,0.0,0.0,0.0,0.0,0.0,0.0,0.0,0.0075,0.0654,0.0926,0.0988,0.166,0.1486,0.0883,0.8038,0.8038,0.8045,0.7959,0.7972,0.6553,0.221,0.0704,0.0,0.0,0.0,0.0,0.0,0.0,0.0,0.0,0.0,0.0,0.0,0.0,0.0,0.0,0.0,0.0,0.0,0.0,0.0,0.0,0.0,0.0,0.0,0.0,0.0,-0.0138,-0.305,-0.4715,-0.5393,-0.5379,-0.5369,-0.5428,-0.5428,-0.5428,-0.5564,-0.7008,-0.7091,-0.6516,-0.7575,-0.747,-0.6695,-0.6183,-0.5089,-0.4635,-0.8498,-0.9214,-0.8902,-1.067,-1.0816,-1.0749,-1.2278,-1.3058,-1.318,-1.2348,-0.6783,0.0163,0.6591,1.5317,2.3281,2.7736,2.8064,2.7211,2.6071,2.2814,1.5176,-0.0466,-1.0154,-1.8722,-2.7278,-3.0351,-3.1207,-2.9888,-2.9755,-2.9365,-2.8296,-2.76,-2.4358,-1.7398,-0.6427,0.2904,0.9696,1.2342,1.3021,1.1899,1.0625,0.8519,0.5506,0.3595,0.1153,-0.1867,-0.1249,-0.0781,-0.0312,0.0313,0.0862,0.1175,0.0784,0.0628,0.0627,0.0535,0.0526,0.0593,0.1491,0.1872,0.1922,0.2525,0.217,0.131,0.8038,0.8038,0.8038,0.8038,0.7959,0.7156,0.4722,0.1908,0.0,0.0,0.0,0.0,0.0,0.0,0.0,0.0,0.0,0.0,0.0,0.0,0.0,0.0,0.0,0.0,0.0,0.0,0.0,0.0,0.0,0.0,0.0,0.0,0.0,-0.0068,-0.1886,-0.3699,-0.5396,-0.5399,-0.5452,-0.5428,-0.5442,-0.5439,-0.5509,-0.6599,-0.7121,-0.7304,-0.7471,-0.7543,-0.7495,-0.6841,-0.6204,-0.6157,-0.811,-0.9567,-1.0765,-1.2034,-1.2613,-1.2854,-1.2814,-1.2865,-1.2934,-1.3029,-0.7115,0.0519,0.7259,1.6248,2.4117,2.7439,2.5766,2.2121,1.7047,0.9847,0.0995,-1.0328,-1.7654,-2.3788,-2.9078,-3.0772,-3.0951,-2.9635,-2.7233,-2.5527,-2.5127,-2.3214,-1.8385,-0.9778,-0.363,0.2425,0.8475,1.1827,1.3611,1.3626,1.3697,1.2342,0.9442,0.9293,0.6324,0.0541,0.0543,0.101,0.1864,0.1874,0.2345,0.3046,0.2113,0.1721,0.1715,0.1521,0.1408,0.1516,0.2458,0.2807,0.282,0.3031,0.2404,0.1454,0.8038,0.8038,0.8038,0.8038,0.7959,0.7772,0.7266,0.3116,0.0,0.0,0.0,0.0,0.0,0.0,0.0,0.0,0.0,0.0,0.0,0.0,0.0,0.0,0.0,0.0,0.0,0.0,0.0,0.0,0.0,0.0,0.0,0.0,0.0,-0.0072,-0.2096,-0.3905,-0.541,-0.5616,-0.5572,-0.5439,-0.5491,-0.5467,-0.5575,-0.7405,-0.7739,-0.7495,-0.8881,-0.901,-0.8554,-0.8583,-0.9006,-0.9725,-1.0989,-1.1442,-1.1882,-1.325,-1.3195,-1.3074,-1.5099,-1.4406,-1.3211,-1.3529,-1.1175,-0.4897,0.9906,1.9957,2.7042,3.0144,2.9363,2.55,1.699,0.5661,-0.5311,-1.4298,-2.4648,-3.177,-3.2253,-3.1143,-2.9194,-2.6325,-2.399,-2.14,-1.848,-1.6581,-1.3089,-0.7244,-0.3459,0.1034,0.6496,1.1081,1.3521,1.3618,1.434,1.3761,1.1525,1.0775,0.8487,0.4846,0.4849,0.4553,0.3951,0.3956,0.3657,0.3124,0.289,0.2707,0.2582,0.2591,0.2524,0.2457,0.3345,0.3701,0.3818,0.4584,0.378,0.2191,0.8038,0.8038,0.8038,0.8038,0.8048,0.7965,0.7985,0.4528,0.1408,0.0202,0.0,0.0,0.0,0.0,0.0,0.0,0.0,0.0,0.0,0.0,0.0,0.0,0.0,0.0,0.0,0.0,0.0,0.0,0.0,0.0,0.0,0.0,0.0,-0.0073,-0.205,-0.3985,-0.5832,-0.5748,-0.561,-0.5477,-0.5559,-0.5498,-0.5509,-0.6671,-0.7069,-0.7229,-0.8229,-0.8821,-0.9287,-1.0141,-1.1076,-1.1875,-1.2315,-1.268,-1.3018,-1.3476,-1.3441,-1.3685,-1.5282,-1.5653,-1.5279,-1.4134,-1.2251,-0.6601,0.9048,1.6085,2.1563,2.9485,3.0092,2.4668,0.9941,-0.3854,-1.4935,-2.0909,-2.8866,-3.3496,-3.1188,-2.8127,-2.5025,-2.1981,-1.7187,-1.3122,-1.0716,-1.0222,-0.8946,-0.6356,-0.4361,-0.1371,0.2968,0.7886,1.1303,1.2834,1.4765,1.5105,1.3621,1.2629,1.0831,0.8378,0.7387,0.6641,0.6126,0.6113,0.6036,0.5976,0.4974,0.4528,0.4345,0.3737,0.343,0.3407,0.433,0.4686,0.4761,0.5305,0.4588,0.3218,0.8038,0.8038,0.8038,0.8038,0.8038,0.7952,0.7985,0.5737,0.3015,0.0303,0.0,0.0,0.0,0.0,0.0,0.0,0.0,0.0,0.0,0.0,0.0,0.0,0.0,0.0,0.0,0.0,0.0,0.0,0.0,0.0,0.0,0.0,-0.0364,-0.0946,-0.2202,-0.4053,-0.6176,-0.588,-0.5661,-0.5593,-0.5616,-0.5518,-0.5446,-0.5733,-0.6333,-0.6958,-0.7394,-0.8587,-1.0184,-1.1802,-1.2773,-1.3375,-1.3425,-1.3797,-1.4173,-1.3374,-1.3649,-1.4351,-1.5364,-1.7245,-1.8623,-1.7055,-1.5016,-1.0557,0.0308,0.5979,1.2072,2.3072,2.4407,1.7878,-0.0864,-1.5332,-2.5297,-2.7909,-3.1601,-3.2831,-2.9041,-2.4314,-2.0077,-1.6874,-0.9085,-0.3768,-0.336,-0.4588,-0.5454,-0.561,-0.4967,-0.3299,-0.0462,0.4325,0.8312,1.1471,1.4419,1.5525,1.472,1.3852,1.2391,1.026,0.8869,0.8268,0.83,0.841,0.8934,0.9648,0.7804,0.6862,0.6695,0.5498,0.4867,0.4657,0.5571,0.5778,0.5638,0.5566,0.4935,0.4063,0.8038,0.8038,0.8038,0.8038,0.8038,0.7952,0.7985,0.5737,0.3015,0.0303,0.0,0.0,0.0,0.0,0.0,0.0,0.0,0.0,0.0,0.0,0.0,0.0,0.0,0.0,0.0,0.0,0.0,0.0,0.0,0.0,0.0,0.0,-0.1676,-0.4608,-0.3553,-0.408,-0.5807,-0.6094,-0.5945,-0.5599,-0.5725,-0.5606,-0.5509,-0.6539,-0.6945,-0.7287,-0.8805,-1.0261,-1.1862,-1.4058,-1.4876,-1.5109,-1.5723,-1.5561,-1.4974,-1.4037,-1.3813,-1.4521,-1.7758,-2.0579,-2.3451,-2.6935,-2.6889,-2.6237,-2.7418,-1.2609,0.1875,0.369,0.3184,-0.1304,-1.3513,-2.5483,-3.3282,-3.2602,-3.377,-3.3411,-2.9469,-2.2676,-1.6113,-1.0765,-0.2101,0.2828,0.1254,-0.0869,-0.2543,-0.3266,-0.3383,-0.2801,-0.1475,0.261,0.6331,0.9421,1.1781,1.2889,1.259,1.2777,1.1274,0.8232,0.9653,1.0381,1.0353,1.1175,1.1672,1.1627,1.0553,1.0053,0.9818,0.8824,0.7744,0.68,0.7648,0.7394,0.6396,0.562,0.4784,0.3932,0.8038,0.8038,0.8038,0.8038,0.8038,0.7952,0.7985,0.5737,0.3015,0.0303,0.0,0.0,0.0,0.0,0.0,0.0,0.0,0.0,0.0,0.0,0.0,0.0,0.0,0.0,0.0,0.0,0.0,0.0,0.0,0.0,0.0,0.0,-0.1936,-0.538,-0.4704,-0.4856,-0.5742,-0.5844,-0.5772,-0.5596,-0.5737,-0.5634,-0.5446,-0.5985,-0.6135,-0.6513,-0.9219,-1.0564,-1.1571,-1.4676,-1.5664,-1.5891,-1.6873,-1.6257,-1.5001,-1.3555,-1.3219,-1.4082,-1.8045,-2.2542,-2.6908,-3.0053,-3.1432,-3.2249,-3.3089,-2.6149,-1.9399,-1.8895,-2.068,-2.3305,-2.6561,-3.2856,-3.6789,-3.447,-3.4719,-3.3592,-2.8868,-2.0019,-0.9902,0.1166,0.7289,0.9389,0.6414,0.3738,0.1421,-0.032,-0.2177,-0.2743,-0.1674,0.1116,0.3878,0.6454,0.9143,1.0557,1.0494,1.0657,0.9721,0.7783,0.8685,0.9911,1.1449,1.3028,1.404,1.4418,1.3472,1.2579,1.1716,1.0426,0.9357,0.8472,0.8617,0.82,0.7607,0.7069,0.6651,0.619]}]]